[[{"header":{"parameterUnit":"m.s-1","parameterCategory":1,"la1":31.0,"la2":29.5877,"lo1":-88.7671,"lo2":-86.6584,"dx":0.0162,"dy":0.0185,"nx":115,"ny":88,"refTime":"2022-11-07T18:00:00:Z","depth":0,"parameterNumber":2,"parameterNumberName":"U-component_of_WINDS"},"data":[0.0,0.0,0.0,0.0,0.0,0.0,0.0,0.0,0.0,0.0,0.0,0.0,0.0,0.0,0.0,0.0,0.0,0.0,0.0,0.0,0.0,0.0,0.0,0.0,0.0,0.0,0.0,0.0,0.0,0.0,0.0,0.0,0.0,0.0,0.0,0.0,0.0,0.0,0.0,0.0,0.0,0.0,0.0,0.0,0.0,0.0,0.0,0.0,0.0,0.0,0.0,0.0,0.0,0.0,0.0,0.0,0.0,0.0,0.0,0.0,0.0,0.0,0.0,0.0,0.0,0.0,0.0,0.0,0.0,0.0,0.0,0.0,0.0,0.0,0.0,0.0,0.0,0.0,0.0,0.0,0.0,0.0,0.0,0.0,0.0,0.0,0.0,0.0,0.0,0.0,0.0,0.0,0.0,0.0,0.0,0.0,0.0,0.0,0.0,0.0,0.0,0.0,0.0,0.0,0.0,0.0,0.0,0.0,0.0,0.0,0.0,0.0,0.0,0.0,0.0,0.0,0.0,0.0,0.0,0.0,0.0,0.0,0.0,0.0,0.0,0.0,0.0,0.0,0.0,0.0,0.0,0.0,0.0,0.0,0.0,0.0,0.0,0.0,0.0,0.0,0.0,0.0,0.0,0.0,0.0,0.0,0.0,0.0,0.0,0.0,0.0,0.0,0.0,0.0,0.0,0.0,0.0,0.0,0.0,0.0,0.0,0.0,0.0,0.0,0.0,0.0,0.0,0.0,0.0,0.0,0.0,0.0,0.0,0.0,0.0,0.0,0.0,0.0,0.0,0.0,0.0,0.0,0.0,0.0,0.0,0.0,0.0,0.0,0.0,0.0,0.0,0.0,0.0,0.0,0.0,0.0,0.0,0.0,0.0,0.0,0.0,0.0,0.0,0.0,0.0,0.0,0.0,0.0,0.0,0.0,0.0,0.0,0.0,0.0,0.0,0.0,0.0,0.0,0.0,0.0,0.0,0.0,0.0,0.0,0.0,0.0,0.0,0.0,0.0,0.0,0.0,0.0,0.0,0.0,0.0,0.0,0.0,0.0,0.0,0.0,0.0,0.0,0.0,0.0,0.0,0.0,0.0,0.0,0.0,0.0,0.0,0.0,0.0,0.0,0.0,0.0,0.0,0.0,0.0,0.0,0.0,0.0,0.0,0.0,0.0,0.0,0.0,0.0,0.0,0.0,0.0,0.0,0.0,0.0,0.0,0.0,0.0,0.0,0.0,0.0,0.0,0.0,0.0,0.0,0.0,0.0,0.0,0.0,0.0,0.0,0.0,0.0,0.0,0.0,0.0,0.0,0.0,0.0,0.0,0.0,0.0,0.0,0.0,0.0,0.0,0.0,0.0,0.0,0.0,0.0,0.0,0.0,0.0,0.0,0.0,0.0,0.0,0.0,0.0,0.0,0.0,0.0,0.0,0.0,0.0,0.0,0.0,0.0,0.0,0.0,0.0,0.0,0.0,0.0,0.0,0.0,0.0,0.0,0.0,0.0,0.0,0.0,0.0,0.0,0.0,0.0,0.0,0.0,0.0,0.0,0.0,0.0,0.0,0.0,0.0,0.0,0.0,0.0,0.0,0.0,0.0,0.0,0.0,0.0,0.0,0.0,0.0,0.0,0.0,0.0,0.0,0.0,0.0,0.0,0.0,0.0,0.0,0.0,0.0,0.0,0.0,0.0,0.0,0.0,0.0,0.0,0.0,0.0,0.0,0.0,0.0,0.0,0.0,0.0,0.0,0.0,0.0,0.0,0.0,0.0,0.0,0.0,0.0,0.0,0.0,0.0,0.0,0.0,0.0,0.0,0.0,0.0,0.0,0.0,0.0,0.0,0.0,0.0,0.0,0.0,0.0,0.0,0.0,0.0,0.0,0.0,0.0,0.0,0.0,0.0,0.0,0.0,0.0,0.0,0.0,0.0,0.0,0.0,0.0,0.0,0.0,0.0,0.0,0.0,0.0,0.0,0.0,0.0,0.0,0.0,0.0,0.0,0.0,0.0,0.0,0.0,0.0,0.0,0.0,0.0,0.0,0.0,0.0,0.0,0.0,0.0,0.0,0.0,0.0,0.0,0.0,0.0,0.0,0.0,0.0,0.0,0.0,0.0,0.0,0.0,0.0,0.0,0.0,0.0,0.0,0.0,0.0,0.0,0.0,0.0,0.0,0.0,0.0,0.0,0.0,0.0,0.0,0.0,0.0,0.0,0.0,0.0,0.0,0.0,0.0,0.0,0.0,0.0,0.0,0.0,0.0,0.0,0.0,0.0,0.0,0.0,0.0,0.0,0.0,0.0,0.0,0.0,0.0,0.0,0.0,0.0,0.0,0.0,0.0,0.0,0.0,0.0,0.0,0.0,0.0,0.0,0.0,0.0,0.0,0.0,0.0,0.0,0.0,0.0,0.0,0.0,0.0,0.0,0.0,0.0,0.0,0.0,0.0,0.0,0.0,0.0,0.0,0.0,0.0,0.0,0.0,0.0,0.0,0.0,0.0,0.0,0.0,0.0,0.0,0.0,0.0,0.0,0.0,0.0,0.0,0.0,0.0,0.0,0.0,0.0,0.0,0.0,0.0,0.0,0.0,0.0,0.0,0.0,0.0,0.0,0.0,0.0,0.0,0.0,0.0,0.0,0.0,0.0,0.0,0.0,0.0,0.0,0.0,0.0,0.0,0.0,0.0,0.0,0.0,0.0,0.0,0.0,0.0,0.0,0.0,0.0,0.0,0.0,0.0,0.0,0.0,0.0,0.0,0.0,0.0,0.0,0.0,0.0,0.0,0.0,0.0,0.0,0.0,0.0,0.0,0.0,0.0,0.0,0.0,0.0,0.0,0.0,0.0,0.0,0.0,0.0,0.0,0.0,0.0,0.0,0.0,0.0,0.0,0.0,0.0,0.0,0.0,0.0,0.0,0.0,0.0,0.0,0.0,0.0,0.0,0.0,0.0,0.0,0.0,0.0,0.0,0.0,0.0,0.0,0.0,0.0,0.0,0.0,0.0,0.0,0.0,0.0,0.0,0.0,0.0,0.0,0.0,0.0,0.0,0.0,0.0,0.0,0.0,0.0,0.0,0.0,0.0,0.0,0.0,0.0,0.0,0.0,0.0,0.0,0.0,0.0,0.0,0.0,0.0,0.0,0.0,0.0,0.0,0.0,0.0,0.0,0.0,0.0,0.0,0.0,0.0,0.0,0.0,0.0,0.0,0.0,0.0,0.0,0.0,0.0,0.0,0.0,0.0,0.0,0.0,0.0,0.0,0.0,0.0,0.0,0.0,0.0,0.0,0.0,0.0,0.0,0.0,0.0,0.0,0.0,0.0,0.0,0.0,0.0,0.0,0.0,0.0,0.0,0.0,0.0,0.0,0.0,0.0,0.0,0.0,0.0,0.0,0.0,0.0,0.0,0.0,0.0,0.0,0.0,0.0,0.0,0.0,0.0,0.0,0.0,0.0,0.0,0.0,0.0,0.0,0.0,0.0,0.0,0.0,0.0,0.0,0.0,0.0,0.0,0.0,0.0,0.0,0.0,0.0,0.0,0.0,0.0,0.0,0.0,0.0,0.0,0.0,0.0,0.0,0.0,0.0,0.0,0.0,0.0,0.0,0.0,0.0,0.0,0.0,0.0,0.0,0.0,0.0,0.0,0.0,0.0,0.0,0.0,0.0,0.0,0.0,0.0,0.0,0.0,0.0,0.0,0.0,0.0,0.0,0.0,0.0,0.0,0.0,0.0,0.0,0.0,0.0,0.0,0.0,0.0,0.0,0.0,0.0,0.0,0.0,0.0,0.0,0.0,0.0,0.0,0.0,0.0,0.0,0.0,0.0,0.0,0.0,0.0,0.0,0.0,0.0,0.0,0.0,0.0,0.0,0.0,0.0,0.0,0.0,0.0,0.0,0.0,0.0,0.0,0.0,0.0,0.0,0.0,0.0,0.0,0.0,0.0,0.0,0.0,0.0,0.0,0.0,0.0,0.0,0.0,0.0,0.0,0.0,0.0,0.0,0.0,0.0,0.0,0.0,0.0,0.0,0.0,0.0,0.0,0.0,0.0,0.0,0.0,0.0,0.0,0.0,0.0,0.0,0.0,0.0,0.0,0.0,0.0,0.0,0.0,0.0,0.0,0.0,0.0,0.0,0.0,0.0,0.0,0.0,0.0,0.0,0.0,0.0,0.0,0.0,0.0,0.0,0.0,0.0,0.0,0.0,0.0,0.0,0.0,0.0,0.0,0.0,0.0,0.0,0.0,0.0,0.0,1.8518,0.0,0.0,0.0,1.6815,0.0,0.0,0.0,0.0,0.0,0.0,0.0,0.0,0.0,0.0,0.0,0.0,0.0,0.0,0.0,0.0,0.0,0.0,0.0,0.0,0.0,0.0,0.0,0.0,0.0,0.0,0.0,0.0,0.0,0.0,0.0,0.0,0.0,0.0,0.0,0.0,0.0,0.0,0.0,0.0,0.0,0.0,0.0,0.0,0.0,0.0,0.0,0.0,0.0,0.0,0.0,0.0,0.0,0.0,0.0,0.0,0.0,0.0,0.0,0.0,0.0,0.0,0.0,0.0,0.0,0.0,0.0,0.0,0.0,0.0,0.0,0.0,0.0,0.0,0.0,0.0,0.0,0.0,0.0,0.0,0.0,0.0,0.0,0.0,0.0,0.0,0.0,0.0,0.0,0.0,0.0,0.0,0.0,0.0,0.0,0.0,0.0,0.0,0.0,0.0,0.0,0.0,0.0,0.0,0.0,0.0,0.0,0.0,0.0,0.0,1.8047,1.6979,1.8298,1.8248,1.6595,0.0,0.0,0.0,0.0,0.0,0.0,0.0,0.0,0.0,0.0,0.0,0.0,0.0,0.0,0.0,0.0,0.0,0.0,0.0,0.0,0.0,0.0,0.0,0.0,0.0,0.0,0.0,0.0,0.0,0.0,0.0,0.0,0.0,0.0,0.0,0.0,0.0,0.0,0.0,0.0,0.0,0.0,0.0,0.0,0.0,0.0,0.0,0.0,0.0,0.0,0.0,0.0,0.0,0.0,0.0,0.0,0.0,0.0,0.0,0.0,0.0,0.0,0.0,0.0,0.0,0.0,0.0,0.0,0.0,0.0,0.0,0.0,0.0,0.0,0.0,0.0,0.0,0.0,0.0,0.0,0.0,0.0,0.0,0.0,0.0,0.0,0.0,0.0,0.0,0.0,0.0,0.0,0.0,0.0,0.0,0.0,0.0,0.0,0.0,0.0,0.0,0.0,0.0,0.0,0.0,0.0,0.0,0.0,0.0,0.0,0.0,0.0,1.8555,1.8706,1.7155,0.0,0.0,0.0,0.0,0.0,0.0,0.0,0.0,0.0,0.0,0.0,0.0,0.0,0.0,0.0,0.0,0.0,0.0,0.0,0.0,0.0,0.0,0.0,0.0,0.0,0.0,0.0,0.0,0.0,0.0,0.0,0.0,0.0,0.0,0.0,0.0,0.0,0.0,0.0,0.0,0.0,0.0,0.0,0.0,0.0,0.0,0.0,0.0,0.0,0.0,0.0,0.0,0.0,0.0,0.0,0.0,0.0,0.0,0.0,0.0,0.0,0.0,0.0,0.0,0.0,0.0,0.0,0.0,0.0,0.0,0.0,0.0,0.0,0.0,0.0,0.0,0.0,0.0,0.0,0.0,0.0,0.0,0.0,0.0,0.0,0.0,0.0,0.0,0.0,0.0,0.0,0.0,0.0,0.0,0.0,0.0,0.0,0.0,0.0,0.0,0.0,0.0,0.0,0.0,0.0,0.0,0.0,0.0,0.0,0.0,1.7088,1.8022,1.8242,0.0,1.8695,0.0,0.0,0.0,0.0,0.0,0.0,0.0,0.0,0.0,0.0,0.0,0.0,0.0,0.0,0.0,0.0,0.0,0.0,0.0,0.0,0.0,0.0,0.0,0.0,0.0,0.0,0.0,0.0,0.0,0.0,0.0,0.0,0.0,0.0,0.0,0.0,0.0,0.0,0.0,0.0,0.0,0.0,0.0,0.0,0.0,0.0,0.0,0.0,0.0,0.0,0.0,0.0,0.0,0.0,0.0,0.0,0.0,0.0,0.0,0.0,0.0,0.0,0.0,0.0,0.0,0.0,0.0,0.0,0.0,0.0,0.0,0.0,0.0,0.0,0.0,0.0,0.0,0.0,0.0,0.0,0.0,0.0,0.0,0.0,0.0,0.0,0.0,0.0,0.0,0.0,0.0,0.0,0.0,0.0,0.0,0.0,0.0,0.0,0.0,0.0,0.0,0.0,0.0,0.0,0.0,0.0,0.0,0.0,0.0,0.0,1.774,1.8192,1.8192,1.8468,0.0,0.0,0.0,0.0,0.0,0.0,0.0,0.0,0.0,0.0,0.0,0.0,0.0,0.0,0.0,0.0,0.0,0.0,0.0,0.0,0.0,0.0,0.0,0.0,0.0,0.0,0.0,0.0,0.0,0.0,0.0,0.0,0.0,0.0,0.0,0.0,0.0,0.0,0.0,0.0,0.0,0.0,0.0,0.0,0.0,0.0,0.0,0.0,0.0,0.0,0.0,0.0,0.0,0.0,0.0,0.0,0.0,0.0,0.0,0.0,0.0,0.0,0.0,0.0,0.0,0.0,0.0,0.0,0.0,0.0,0.0,0.0,0.0,0.0,0.0,0.0,0.0,0.0,0.0,0.0,0.0,0.0,0.0,0.0,0.0,0.0,0.0,0.0,0.0,0.0,0.0,0.0,0.0,0.0,0.0,0.0,0.0,0.0,0.0,0.0,0.0,0.0,0.0,0.0,0.0,0.0,0.0,0.0,0.0,0.0,1.8067,1.8555,1.8857,1.8731,1.87,1.8794,0.0,0.0,0.0,0.0,0.0,0.0,0.0,0.0,0.0,0.0,0.0,0.0,0.0,0.0,0.0,0.0,0.0,0.0,0.0,0.0,0.0,0.0,0.0,0.0,0.0,0.0,0.0,0.0,0.0,0.0,0.0,0.0,0.0,0.0,0.0,0.0,0.0,0.0,0.0,0.0,0.0,0.0,0.0,0.0,0.0,0.0,0.0,0.0,0.0,0.0,0.0,0.0,0.0,0.0,0.0,0.0,0.0,0.0,0.0,0.0,0.0,0.0,0.0,0.0,0.0,0.0,0.0,0.0,0.0,0.0,0.0,0.0,0.0,0.0,0.0,0.0,0.0,0.0,0.0,0.0,0.0,0.0,0.0,0.0,0.0,0.0,0.0,0.0,0.0,0.0,0.0,0.0,0.0,0.0,0.0,0.0,0.0,0.0,0.0,0.0,0.0,0.0,0.0,0.0,0.0,0.0,0.0,0.0,1.9484,1.9164,1.9478,2.0522,2.0025,1.9252,0.0,0.0,0.0,0.0,0.0,0.0,0.0,0.0,0.0,0.0,0.0,0.0,0.0,0.0,0.0,0.0,0.0,0.0,0.0,0.0,0.0,0.0,0.0,0.0,0.0,0.0,0.0,0.0,0.0,0.0,0.0,0.0,0.0,0.0,0.0,0.0,0.0,0.0,0.0,0.0,0.0,0.0,0.0,0.0,0.0,0.0,0.0,0.0,0.0,0.0,0.0,0.0,0.0,0.0,0.0,0.0,0.0,0.0,0.0,0.0,0.0,0.0,0.0,0.0,0.0,0.0,0.0,0.0,0.0,0.0,0.0,0.0,0.0,0.0,0.0,0.0,0.0,0.0,0.0,0.0,0.0,0.0,0.0,0.0,0.0,0.0,0.0,0.0,0.0,0.0,0.0,0.0,0.0,0.0,0.0,0.0,0.0,0.0,0.0,0.0,0.0,0.0,0.0,0.0,0.0,0.0,0.0,0.0,0.0,1.7665,1.8217,1.9535,2.155,1.9804,1.8896,0.0,0.0,0.0,0.0,0.0,0.0,0.0,0.0,0.0,0.0,0.0,0.0,0.0,0.0,0.0,0.0,0.0,0.0,0.0,0.0,0.0,0.0,0.0,0.0,0.0,0.0,0.0,0.0,0.0,0.0,0.0,0.0,0.0,0.0,0.0,0.0,0.0,0.0,0.0,0.0,0.0,0.0,0.0,0.0,0.0,0.0,0.0,0.0,0.0,0.0,0.0,0.0,0.0,0.0,0.0,0.0,0.0,0.0,0.0,0.0,0.0,0.0,0.0,0.0,0.0,0.0,0.0,0.0,0.0,0.0,0.0,0.0,0.0,0.0,0.0,0.0,0.0,0.0,0.0,0.0,0.0,0.0,0.0,0.0,0.0,0.0,0.0,0.0,0.0,0.0,0.0,0.0,0.0,0.0,0.0,0.0,0.0,0.0,0.0,0.0,0.0,0.0,0.0,0.0,0.0,0.0,0.0,0.0,0.0,1.8086,1.9403,2.0733,2.1888,2.0087,1.889,0.0,0.0,0.0,0.0,0.0,0.0,0.0,0.0,0.0,0.0,0.0,0.0,0.0,0.0,0.0,0.0,0.0,0.0,0.0,0.0,0.0,0.0,0.0,0.0,0.0,0.0,0.0,0.0,0.0,0.0,0.0,0.0,0.0,0.0,0.0,0.0,0.0,0.0,0.0,0.0,0.0,0.0,0.0,0.0,0.0,0.0,0.0,0.0,0.0,0.0,0.0,0.0,0.0,0.0,0.0,0.0,0.0,0.0,0.0,0.0,0.0,0.0,0.0,0.0,0.0,0.0,0.0,0.0,0.0,0.0,0.0,0.0,0.0,0.0,0.0,0.0,0.0,0.0,0.0,0.0,0.0,0.0,0.0,0.0,0.0,0.0,0.0,0.0,0.0,0.0,0.0,0.0,0.0,0.0,0.0,0.0,0.0,0.0,0.0,0.0,0.0,0.0,0.0,0.0,0.0,0.0,0.0,0.0,1.8161,2.1267,2.2924,2.2967,2.1568,2.0936,1.939,0.0,0.0,0.0,0.0,0.0,0.0,0.0,0.0,0.0,0.0,0.0,0.0,0.0,0.0,0.0,0.0,0.0,0.0,0.0,0.0,0.0,0.0,0.0,0.0,0.0,0.0,0.0,0.0,0.0,0.0,0.0,0.0,0.0,0.0,0.0,0.0,0.0,0.0,0.0,0.0,0.0,0.0,0.0,0.0,0.0,0.0,0.0,0.0,0.0,0.0,0.0,0.0,0.0,0.0,0.0,0.0,0.0,0.0,0.0,0.0,0.0,0.0,0.0,0.0,0.0,0.0,0.0,0.0,0.0,0.0,0.0,0.0,0.0,0.0,0.0,0.0,0.0,0.0,0.0,0.0,0.0,0.0,0.0,0.0,0.0,0.0,0.0,0.0,0.0,0.0,0.0,0.0,0.0,0.0,0.0,0.0,0.0,0.0,0.0,0.0,0.0,0.0,0.0,0.0,0.0,0.0,0.0,0.0,0.0,1.9284,2.1224,2.2404,2.2533,2.0966,2.0035,0.0,0.0,0.0,0.0,0.0,0.0,0.0,0.0,0.0,0.0,0.0,0.0,0.0,0.0,0.0,0.0,0.0,0.0,0.0,0.0,0.0,0.0,0.0,0.0,0.0,0.0,0.0,0.0,0.0,0.0,0.0,0.0,0.0,0.0,0.0,0.0,0.0,0.0,0.0,0.0,0.0,0.0,0.0,0.0,0.0,0.0,0.0,0.0,0.0,0.0,0.0,0.0,0.0,0.0,0.0,0.0,0.0,0.0,0.0,0.0,0.0,0.0,0.0,0.0,0.0,0.0,0.0,0.0,0.0,0.0,0.0,0.0,0.0,0.0,0.0,0.0,0.0,0.0,0.0,0.0,0.0,0.0,0.0,0.0,0.0,0.0,0.0,0.0,0.0,0.0,0.0,0.0,0.0,0.0,0.0,0.0,0.0,0.0,0.0,0.0,0.0,0.0,0.0,0.0,0.0,0.0,0.0,0.0,0.0,2.0845,2.3017,2.418,2.4039,2.2081,2.1051,2.1084,0.0,0.0,0.0,0.0,0.0,0.0,0.0,0.0,0.0,0.0,0.0,0.0,0.0,0.0,0.0,0.0,0.0,0.0,0.0,0.0,0.0,0.0,0.0,0.0,0.0,0.0,0.0,0.0,0.0,0.0,0.0,0.0,0.0,0.0,0.0,0.0,0.0,0.0,0.0,0.0,0.0,0.0,0.0,0.0,0.0,0.0,0.0,0.0,0.0,0.0,0.0,0.0,0.0,0.0,0.0,0.0,0.0,0.0,0.0,0.0,0.0,0.0,0.0,0.0,0.0,0.0,0.0,0.0,0.0,0.0,0.0,0.0,0.0,0.0,0.0,0.0,0.0,0.0,0.0,0.0,0.0,0.0,0.0,0.0,0.0,0.0,0.0,0.0,0.0,0.0,0.0,0.0,0.0,0.0,0.0,0.0,0.0,0.0,0.0,0.0,0.0,0.0,0.0,0.0,0.0,0.0,0.0,0.0,2.5034,2.7602,2.7853,2.5745,2.4014,2.2447,0.0,0.0,0.0,0.0,0.0,0.0,0.0,0.0,0.0,0.0,0.0,0.0,0.0,0.0,0.0,0.0,0.0,0.0,0.0,0.0,0.0,0.0,0.0,0.0,0.0,0.0,0.0,0.0,0.0,0.0,0.0,0.0,0.0,0.0,0.0,0.0,0.0,0.0,0.0,0.0,0.0,0.0,0.0,0.0,0.0,0.0,0.0,0.0,0.0,0.0,0.0,0.0,0.0,0.0,0.0,0.0,0.0,0.0,0.0,0.0,0.0,0.0,0.0,0.0,0.0,0.0,0.0,0.0,0.0,0.0,0.0,0.0,0.0,0.0,0.0,0.0,0.0,0.0,0.0,0.0,0.0,0.0,0.0,0.0,0.0,0.0,0.0,0.0,0.0,0.0,0.0,0.0,0.0,0.0,0.0,0.0,0.0,0.0,0.0,0.0,0.0,0.0,0.0,0.0,0.0,0.0,0.0,0.0,0.0,2.7768,2.8957,2.8709,2.6884,2.485,2.357,0.0,0.0,0.0,0.0,0.0,0.0,0.0,0.0,0.0,0.0,0.0,0.0,0.0,0.0,0.0,0.0,0.0,0.0,0.0,0.0,0.0,0.0,0.0,0.0,0.0,0.0,0.0,0.0,0.0,0.0,0.0,0.0,0.0,0.0,0.0,0.0,0.0,0.0,0.0,0.0,0.0,0.0,0.0,0.0,0.0,0.0,0.0,0.0,0.0,0.0,0.0,0.0,0.0,0.0,0.0,0.0,0.0,0.0,0.0,0.0,0.0,0.0,0.0,0.0,0.0,0.0,0.0,0.0,0.0,0.0,0.0,0.0,0.0,0.0,0.0,0.0,0.0,0.0,0.0,0.0,0.0,0.0,0.0,0.0,0.0,0.0,0.0,0.0,0.0,0.0,0.0,0.0,0.0,0.0,0.0,0.0,0.0,0.0,0.0,0.0,0.0,0.0,0.0,0.0,0.0,0.0,0.0,0.0,2.7401,2.9885,3.0281,2.9914,2.8699,2.6549,2.5075,0.0,0.0,0.0,0.0,0.0,0.0,0.0,0.0,0.0,0.0,0.0,0.0,0.0,0.0,0.0,0.0,0.0,0.0,0.0,0.0,0.0,0.0,0.0,0.0,0.0,0.0,0.0,0.0,0.0,0.0,0.0,0.0,0.0,0.0,0.0,0.0,0.0,0.0,0.0,0.0,0.0,0.0,0.0,0.0,0.0,0.0,0.0,0.0,0.0,0.0,0.0,0.0,0.0,0.0,0.0,0.0,0.0,0.0,0.0,0.0,0.0,0.0,0.0,0.0,0.0,0.0,0.0,0.0,0.0,0.0,0.0,0.0,0.0,0.0,0.0,0.0,0.0,0.0,0.0,0.0,0.0,0.0,0.0,0.0,0.0,0.0,0.0,0.0,0.0,0.0,0.0,0.0,0.0,0.0,0.0,0.0,0.0,0.0,0.0,0.0,0.0,0.0,0.0,0.0,0.0,0.0,0.0,0.0,2.9318,3.1421,3.1432,3.116,3.0638,2.8524,2.6565,0.0,0.0,0.0,0.0,0.0,0.0,0.0,0.0,0.0,0.0,0.0,0.0,0.0,0.0,0.0,0.0,0.0,0.0,0.0,0.0,0.0,0.0,0.0,0.0,0.0,0.0,0.0,0.0,0.0,0.0,0.0,0.0,0.0,0.0,0.0,0.0,0.0,0.0,0.0,0.0,0.0,0.0,0.0,0.0,0.0,0.0,0.0,0.0,0.0,0.0,0.0,0.0,0.0,0.0,0.0,0.0,0.0,0.0,0.0,0.0,0.0,0.0,0.0,0.0,0.0,0.0,0.0,0.0,0.0,0.0,0.0,0.0,0.0,0.0,0.0,0.0,0.0,0.0,0.0,0.0,0.0,0.0,0.0,0.0,0.0,0.0,0.0,0.0,0.0,0.0,0.0,0.0,0.0,0.0,0.0,0.0,0.0,0.0,0.0,0.0,0.0,0.0,0.0,0.0,0.0,0.0,0.0,0.0,3.0281,3.1953,3.1612,3.1346,3.1235,2.9076,2.6942,0.0,0.0,0.0,0.0,0.0,0.0,0.0,0.0,0.0,0.0,0.0,0.0,0.0,0.0,0.0,0.0,0.0,0.0,0.0,0.0,0.0,0.0,0.0,0.0,0.0,0.0,0.0,0.0,0.0,0.0,0.0,0.0,0.0,0.0,0.0,0.0,0.0,0.0,0.0,0.0,0.0,0.0,0.0,0.0,0.0,0.0,0.0,0.0,2.5603,0.0,0.0,0.0,0.0,0.0,0.0,0.0,0.0,0.0,0.0,0.0,0.0,0.0,0.0,0.0,0.0,0.0,0.0,0.0,0.0,0.0,0.0,0.0,0.0,0.0,0.0,0.0,0.0,0.0,0.0,0.0,0.0,0.0,0.0,0.0,0.0,0.0,0.0,0.0,0.0,0.0,0.0,0.0,0.0,0.0,0.0,0.0,0.0,0.0,0.0,0.0,0.0,0.0,0.0,0.0,0.0,0.0,0.0,0.0,3.0984,3.2541,3.2361,3.2085,3.1738,3.0382,2.8247,0.0,0.0,0.0,0.0,0.0,0.0,0.0,0.0,0.0,0.0,0.0,0.0,0.0,0.0,0.0,0.0,0.0,0.0,0.0,0.0,0.0,0.0,0.0,0.0,0.0,0.0,0.0,0.0,0.0,0.0,0.0,0.0,0.0,0.0,0.0,0.0,0.0,0.0,0.0,0.0,0.0,0.0,0.0,0.0,0.0,0.0,0.0,0.0,0.0,0.0,0.0,0.0,0.0,0.0,0.0,0.0,0.0,0.0,0.0,0.0,0.0,0.0,0.0,0.0,0.0,0.0,0.0,0.0,0.0,0.0,0.0,0.0,0.0,0.0,0.0,0.0,0.0,0.0,0.0,0.0,0.0,0.0,0.0,0.0,0.0,0.0,0.0,0.0,0.0,0.0,0.0,0.0,0.0,0.0,0.0,0.0,0.0,0.0,0.0,0.0,0.0,0.0,0.0,0.0,0.0,0.0,0.0,2.9512,3.1526,3.314,3.3316,3.3068,3.248,3.1853,2.9723,2.5921,0.0,0.0,0.0,0.0,0.0,0.0,0.0,0.0,0.0,0.0,0.0,0.0,0.0,0.0,0.0,0.0,0.0,0.0,0.0,0.0,0.0,0.0,0.0,0.0,0.0,0.0,0.0,0.0,0.0,0.0,0.0,0.0,0.0,0.0,0.0,0.0,0.0,0.0,2.2437,2.5108,0.0,0.0,0.0,0.0,0.0,0.0,0.0,0.0,2.7169,0.0,0.0,0.0,0.0,0.0,0.0,0.0,0.0,0.0,0.0,0.0,0.0,0.0,0.0,0.0,0.0,0.0,0.0,0.0,0.0,0.0,0.0,0.0,0.0,0.0,0.0,0.0,0.0,0.0,0.0,0.0,0.0,0.0,0.0,0.0,0.0,0.0,0.0,0.0,0.0,0.0,0.0,0.0,0.0,0.0,0.0,0.0,0.0,0.0,0.0,0.0,0.0,0.0,0.0,0.0,0.0,2.9845,3.0809,3.2074,3.3732,3.4212,3.4162,3.3621,3.2606,3.0291,2.6566,0.0,0.0,0.0,0.0,0.0,0.0,0.0,0.0,0.0,0.0,0.0,0.0,0.0,0.0,0.0,0.0,0.0,0.0,0.0,0.0,0.0,0.0,0.0,0.0,0.0,0.0,0.0,0.0,0.0,0.0,0.0,0.0,0.0,0.0,0.0,0.0,0.0,0.0,0.0,2.8307,2.9286,0.0,0.0,0.0,0.0,0.0,0.0,0.0,0.0,2.7763,0.0,0.0,0.0,0.0,0.0,0.0,0.0,0.0,0.0,0.0,0.0,0.0,0.0,0.0,0.0,0.0,0.0,0.0,0.0,0.0,0.0,0.0,0.0,0.0,0.0,0.0,0.0,0.0,0.0,0.0,0.0,0.0,0.0,0.0,0.0,0.0,0.0,0.0,0.0,0.0,0.0,0.0,0.0,0.0,0.0,0.0,0.0,0.0,0.0,0.0,0.0,0.0,0.0,0.0,0.0,3.0573,3.2563,3.4087,3.5181,3.49,3.4589,3.4313,3.3244,3.111,0.0,0.0,0.0,0.0,0.0,0.0,0.0,0.0,0.0,0.0,0.0,0.0,0.0,0.0,0.0,0.0,0.0,0.0,0.0,0.0,0.0,0.0,0.0,0.0,0.0,0.0,0.0,0.0,0.0,0.0,0.0,0.0,0.0,0.0,0.0,0.0,0.0,0.0,0.0,0.0,2.9704,3.0633,3.1763,0.0,0.0,0.0,0.0,0.0,0.0,2.9041,2.8398,0.0,0.0,0.0,0.0,0.0,0.0,0.0,0.0,0.0,0.0,0.0,0.0,0.0,0.0,0.0,0.0,0.0,0.0,0.0,0.0,0.0,0.0,0.0,0.0,0.0,0.0,0.0,0.0,0.0,0.0,0.0,0.0,0.0,0.0,0.0,0.0,0.0,0.0,0.0,0.0,0.0,0.0,0.0,0.0,0.0,0.0,0.0,0.0,0.0,0.0,0.0,0.0,0.0,0.0,0.0,3.0708,3.3761,3.5791,3.6578,3.5606,3.499,3.4853,3.3947,3.1938,0.0,0.0,0.0,0.0,0.0,0.0,0.0,0.0,0.0,0.0,0.0,0.0,0.0,0.0,0.0,0.0,0.0,0.0,0.0,0.0,0.0,0.0,0.0,0.0,0.0,0.0,0.0,0.0,0.0,0.0,0.0,0.0,0.0,0.0,0.0,0.0,0.0,0.0,0.0,0.0,0.0,3.1943,3.3345,3.2064,0.0,0.0,0.0,0.0,3.1416,3.0914,0.0,0.0,0.0,0.0,0.0,0.0,0.0,0.0,0.0,0.0,0.0,0.0,0.0,0.0,0.0,0.0,0.0,0.0,0.0,0.0,0.0,0.0,0.0,0.0,0.0,0.0,0.0,0.0,0.0,0.0,0.0,0.0,0.0,0.0,0.0,0.0,0.0,0.0,0.0,0.0,0.0,0.0,0.0,0.0,0.0,0.0,0.0,0.0,0.0,0.0,0.0,0.0,0.0,0.0,0.0,0.0,3.0664,3.3469,3.5643,3.7089,3.6552,3.5968,3.5408,3.4828,3.252,0.0,0.0,0.0,0.0,0.0,0.0,0.0,0.0,0.0,0.0,0.0,0.0,0.0,0.0,0.0,0.0,0.0,0.0,0.0,0.0,0.0,0.0,0.0,0.0,0.0,0.0,0.0,0.0,0.0,0.0,0.0,0.0,0.0,0.0,0.0,0.0,0.0,0.0,0.0,0.0,0.0,3.3775,3.2556,3.2179,3.219,0.0,0.0,3.3696,3.4756,3.5278,0.0,0.0,0.0,0.0,0.0,0.0,0.0,0.0,0.0,0.0,0.0,0.0,0.0,0.0,0.0,0.0,0.0,0.0,0.0,0.0,0.0,0.0,0.0,0.0,0.0,0.0,0.0,0.0,0.0,0.0,0.0,0.0,0.0,0.0,0.0,0.0,0.0,0.0,0.0,0.0,0.0,0.0,0.0,0.0,0.0,0.0,0.0,0.0,0.0,0.0,0.0,0.0,0.0,0.0,0.0,2.9907,3.2137,3.5417,3.7663,3.8661,3.7218,3.6281,3.6006,3.5456,3.3248,0.0,0.0,0.0,0.0,0.0,0.0,0.0,0.0,0.0,0.0,0.0,0.0,0.0,0.0,0.0,0.0,0.0,0.0,0.0,0.0,0.0,0.0,0.0,0.0,0.0,0.0,0.0,0.0,0.0,0.0,0.0,0.0,0.0,0.0,0.0,0.0,0.0,0.0,0.0,0.0,0.0,0.0,3.5917,3.5203,0.0,0.0,0.0,3.5591,3.6346,0.0,0.0,0.0,0.0,0.0,0.0,0.0,0.0,0.0,0.0,0.0,0.0,0.0,0.0,0.0,0.0,0.0,0.0,0.0,0.0,0.0,0.0,0.0,0.0,0.0,0.0,0.0,0.0,0.0,0.0,0.0,0.0,0.0,0.0,0.0,0.0,0.0,0.0,0.0,0.0,0.0,0.0,0.0,0.0,0.0,0.0,0.0,0.0,0.0,0.0,0.0,0.0,0.0,0.0,0.0,0.0,0.0,3.3537,3.7489,3.9694,3.9842,3.7895,3.6674,3.6417,3.5956,0.0,0.0,0.0,0.0,0.0,0.0,0.0,0.0,0.0,0.0,0.0,0.0,0.0,0.0,0.0,0.0,0.0,0.0,0.0,0.0,0.0,0.0,0.0,0.0,0.0,0.0,0.0,2.0639,0.0,0.0,0.0,0.0,0.0,0.0,0.0,0.0,0.0,0.0,0.0,0.0,0.0,0.0,3.6485,3.8617,3.8077,3.7802,0.0,0.0,3.8014,3.8567,3.8793,3.8316,0.0,0.0,0.0,0.0,0.0,0.0,0.0,0.0,0.0,0.0,0.0,0.0,0.0,0.0,0.0,0.0,0.0,0.0,0.0,0.0,0.0,0.0,0.0,0.0,0.0,0.0,0.0,0.0,0.0,0.0,0.0,0.0,0.0,0.0,0.0,0.0,0.0,0.0,0.0,0.0,0.0,0.0,0.0,0.0,0.0,0.0,0.0,0.0,0.0,0.0,0.0,0.0,0.0,0.0,3.2437,3.439,3.9005,4.0901,3.9935,3.8649,3.7471,3.644,3.6343,3.4307,0.0,0.0,0.0,0.0,0.0,0.0,0.0,0.0,0.0,0.0,0.0,0.0,0.0,0.0,0.0,0.0,0.0,0.0,0.0,0.0,0.0,0.0,0.0,0.0,0.0,0.0,0.0,0.0,0.0,0.0,0.0,0.0,0.0,0.0,0.0,0.0,0.0,0.0,0.0,0.0,0.0,3.6948,3.8668,3.9647,4.0626,0.0,4.1847,4.2011,4.2498,4.3,4.1943,3.7826,0.0,0.0,0.0,0.0,0.0,0.0,0.0,0.0,0.0,0.0,0.0,0.0,0.0,0.0,0.0,0.0,0.0,0.0,0.0,0.0,0.0,0.0,0.0,0.0,0.0,0.0,0.0,0.0,0.0,0.0,0.0,0.0,0.0,0.0,0.0,0.0,0.0,0.0,0.0,0.0,0.0,0.0,0.0,0.0,0.0,0.0,0.0,0.0,0.0,0.0,0.0,0.0,0.0,3.2527,3.4425,3.9169,4.1053,3.9907,3.8727,3.7551,3.6428,3.6405,3.496,0.0,0.0,0.0,0.0,0.0,0.0,0.0,0.0,0.0,0.0,0.0,0.0,0.0,0.0,0.0,0.0,0.0,0.0,0.0,0.0,0.0,0.0,0.0,0.0,0.0,0.0,0.0,0.0,2.5393,2.5636,2.4591,0.0,0.0,0.0,0.0,0.0,0.0,0.0,0.0,0.0,0.0,3.991,4.1255,4.177,0.0,0.0,4.3126,4.2975,4.3865,4.3023,4.1818,4.0477,3.8768,0.0,0.0,0.0,0.0,0.0,0.0,0.0,0.0,0.0,0.0,0.0,0.0,0.0,0.0,0.0,0.0,0.0,0.0,0.0,0.0,0.0,0.0,0.0,0.0,0.0,0.0,1.6917,1.6921,0.0,0.0,0.0,0.0,0.0,0.0,0.0,0.0,0.0,0.0,0.0,0.0,0.0,0.0,0.0,0.0,0.0,0.0,0.0,0.0,0.0,0.0,0.0,0.0,3.2807,3.4735,3.9594,4.1378,3.9907,3.9083,3.7929,3.6476,3.6405,3.5363,3.3165,0.0,0.0,0.0,0.0,0.0,0.0,0.0,0.0,0.0,0.0,0.0,0.0,0.0,0.0,0.0,0.0,0.0,0.0,0.0,0.0,0.0,0.0,0.0,0.0,0.0,0.0,0.0,2.6306,2.6398,2.5402,0.0,0.0,0.0,0.0,0.0,0.0,0.0,0.0,0.0,0.0,4.2108,4.3542,4.3603,4.3815,4.4729,4.394,4.3489,4.4252,4.3198,4.2219,4.197,0.0,0.0,0.0,0.0,0.0,0.0,0.0,0.0,0.0,0.0,0.0,0.0,0.0,0.0,0.0,0.0,0.0,0.0,0.0,0.0,0.0,0.0,0.0,0.0,0.0,0.0,0.0,1.7432,0.0,0.0,1.7757,0.0,0.0,0.0,0.0,0.0,0.0,0.0,0.0,0.0,0.0,0.0,0.0,0.0,0.0,0.0,0.0,0.0,0.0,0.0,0.0,0.0,0.0,3.3472,3.55,4.0612,4.2161,3.9972,3.9853,3.8716,3.6511,3.6405,3.5363,3.3165,0.0,0.0,0.0,0.0,0.0,0.0,0.0,0.0,0.0,0.0,0.0,0.0,0.0,0.0,0.0,0.0,0.0,0.0,0.0,0.0,0.0,0.0,0.0,0.0,0.0,0.0,2.1952,2.4062,2.5871,0.0,0.0,0.0,0.0,0.0,0.0,0.0,0.0,0.0,3.9747,4.1418,4.3003,4.5135,4.493,4.483,4.5437,4.4568,4.384,4.3915,4.4227,4.3812,0.0,0.0,0.0,0.0,0.0,0.0,0.0,0.0,0.0,0.0,0.0,0.0,0.0,0.0,0.0,0.0,0.0,0.0,0.0,0.0,0.0,0.0,0.0,0.0,0.0,0.0,0.0,2.1532,2.0745,0.0,0.0,0.0,0.0,0.0,0.0,0.0,0.0,0.0,0.0,0.0,3.2527,3.3425,0.0,0.0,0.0,0.0,0.0,0.0,0.0,0.0,0.0,0.0,0.0,0.0,3.4175,3.6264,4.0857,4.2202,3.9972,3.9885,3.8798,3.6487,3.6405,3.5363,3.3165,0.0,0.0,0.0,0.0,0.0,0.0,0.0,0.0,0.0,0.0,0.0,0.0,0.0,0.0,0.0,0.0,0.0,0.0,0.0,0.0,0.0,0.0,0.0,0.0,0.0,2.4239,0.0,0.0,0.0,0.0,0.0,0.0,0.0,0.0,0.0,0.0,3.5881,3.912,4.1331,4.324,4.492,4.6361,4.6396,4.6461,0.0,0.0,0.0,0.0,0.0,0.0,0.0,0.0,0.0,0.0,0.0,0.0,0.0,4.4418,4.379,3.9396,3.8002,3.7764,3.8642,0.0,0.0,0.0,0.0,0.0,0.0,0.0,0.0,0.0,0.0,0.0,0.0,0.0,0.0,2.546,2.4909,2.4909,0.0,0.0,0.0,0.0,0.0,0.0,0.0,0.0,3.2908,3.4344,3.5228,3.6096,3.6297,3.5878,3.5204,3.3782,0.0,0.0,0.0,0.0,0.0,0.0,0.0,0.0,3.5646,3.7904,4.1674,4.2427,4.0043,3.9885,3.8798,3.6499,3.6405,3.5714,3.4307,3.3129,3.1863,0.0,0.0,0.0,0.0,0.0,0.0,0.0,0.0,0.0,0.0,0.0,0.0,0.0,0.0,0.0,0.0,0.0,0.0,0.0,0.0,0.0,0.0,0.0,2.6406,0.0,0.0,0.0,0.0,0.0,0.0,0.0,0.0,0.0,3.5502,3.8868,4.1982,4.3678,4.516,4.6361,4.7265,0.0,0.0,0.0,0.0,0.0,0.0,0.0,4.5562,4.7205,4.6135,4.5267,4.5949,4.7575,4.8529,4.755,0.0,0.0,4.4055,4.2509,4.2395,4.365,4.389,4.4357,4.5799,4.6838,4.7525,0.0,0.0,0.0,0.0,2.6797,0.0,0.0,0.0,3.0253,3.0027,0.0,2.9706,0.0,0.0,0.0,0.0,2.794,3.1001,0.0,0.0,3.7114,3.8439,3.8452,3.852,3.9218,4.0376,3.9759,3.9451,3.9176,3.443,3.0417,0.0,0.0,0.0,0.0,0.0,3.7892,4.0397,4.299,4.2904,4.0077,3.994,3.881,3.6511,3.6405,3.6393,3.6318,3.4346,3.3165,3.3036,2.8488,0.0,0.0,0.0,0.0,0.0,0.0,0.0,0.0,0.0,0.0,0.0,0.0,0.0,0.0,0.0,0.0,0.0,0.0,0.0,0.0,2.7613,0.0,0.0,0.0,0.0,0.0,0.0,0.0,0.0,0.0,4.1596,4.0137,4.1845,4.4131,4.6712,0.0,0.0,0.0,0.0,4.7274,4.7375,4.6888,4.6763,4.7274,4.8159,4.9003,4.9631,0.0,0.0,4.9396,5.077,5.1322,4.867,5.0444,5.1674,4.9992,4.7883,4.7029,4.8476,4.8018,4.8102,5.0051,5.1532,5.2812,3.0625,0.0,0.0,0.0,0.0,2.9905,3.149,3.4011,3.4011,3.3674,3.3094,3.3104,0.0,0.0,0.0,0.0,0.0,0.0,3.5146,3.7263,3.808,3.9149,4.0526,4.1023,4.1443,4.1832,4.2063,4.2203,4.2222,4.1184,3.7158,3.0543,0.0,0.0,0.0,0.0,4.0604,4.1862,4.3928,4.3568,4.0609,4.0554,3.9208,3.6476,3.6405,3.6405,3.6393,3.579,3.4723,3.3154,3.1737,0.0,0.0,0.0,0.0,0.0,0.0,0.0,0.0,0.0,0.0,0.0,0.0,0.0,0.0,0.0,0.0,0.0,0.0,0.0,2.6868,3.0532,3.243,0.0,0.0,0.0,0.0,0.0,0.0,0.0,0.0,0.0,4.4805,4.5874,4.6652,0.0,0.0,4.8526,4.9038,4.9665,5.0368,5.1113,5.1088,0.0,5.123,5.0503,5.0519,5.2251,5.36,5.4228,5.3625,5.4034,5.4077,5.2821,5.3341,5.37,5.3223,5.2009,5.123,5.1607,5.1749,5.2126,5.3173,5.4102,5.4712,3.3801,3.2017,3.1133,3.1596,3.291,3.2944,3.4472,3.693,3.6935,3.6846,3.6744,3.7015,3.6037,3.4102,3.3226,0.0,0.0,0.0,3.7841,3.9607,3.9867,4.0634,4.1762,4.2231,4.268,4.314,4.325,4.3728,4.4556,4.4646,4.1859,3.646,0.0,3.7994,3.6475,4.0181,4.2761,4.3948,4.5095,4.4211,4.1245,4.0198,3.8847,3.7119,3.6808,3.6708,3.672,3.6519,3.579,3.4461,3.3588,3.2329,0.0,0.0,0.0,0.0,0.0,0.0,0.0,0.0,0.0,0.0,0.0,2.4607,2.2638,0.0,0.0,0.0,2.8706,2.996,3.2326,3.5052,0.0,0.0,0.0,0.0,0.0,0.0,0.0,4.2133,4.4518,4.6537,4.8178,4.9257,4.9624,4.8846,4.954,5.0159,5.0259,0.0,5.1867,5.2503,5.2937,5.3289,5.3532,5.3088,5.3181,5.4443,5.5239,5.5591,5.5415,5.539,5.5207,5.4773,5.4755,5.4906,5.4906,5.4662,5.4426,5.4243,5.4285,5.4687,5.5684,5.6011,5.6143,3.6158,3.6728,3.4641,3.4523,3.5769,3.5904,3.7138,3.9079,3.922,3.9654,4.0309,4.1001,4.0185,3.8287,3.7549,0.0,3.8884,4.0074,4.0975,4.1643,4.2291,4.258,4.261,4.271,4.3319,4.4446,4.3868,4.4555,4.6271,4.5743,4.4845,4.3658,4.314,4.2644,4.2275,4.3138,4.4536,4.633,4.635,4.489,4.1837,3.9317,3.799,3.799,3.7525,3.7261,3.7236,3.6783,3.6519,3.6408,3.4517,3.3405,3.3278,0.0,0.0,0.0,0.0,0.0,0.0,0.0,0.0,0.0,0.0,0.0,0.0,0.0,0.0,3.238,3.622,0.0,4.0261,4.0099,0.0,0.0,0.0,3.809,3.9472,4.182,4.398,4.5688,0.0,0.0,5.0653,5.2084,5.2737,5.1766,5.1975,5.2051,5.1565,5.2093,5.2435,5.2804,5.3457,5.426,5.4906,5.5591,5.615,5.6351,5.6426,5.6351,5.5917,5.5842,5.5559,5.5125,5.5282,5.5634,5.5591,5.6369,5.691,5.6351,5.5942,5.6068,5.7374,5.7455,5.7531,3.6947,3.7584,3.7077,3.7025,3.7431,3.8547,3.9343,3.9931,4.1054,4.1623,4.1792,4.1955,4.2037,4.2054,4.2742,4.2859,4.2522,4.2577,4.298,4.3599,4.3778,4.4107,4.4636,4.5135,4.5533,4.5852,4.6191,4.661,4.704,4.692,4.6681,4.6371,4.6721,4.5609,4.3269,4.5241,4.658,4.7059,4.7059,4.5566,4.2514,3.9561,3.799,3.799,3.7889,3.7814,3.7814,3.7701,3.7424,3.7034,3.6498,3.6046,3.5602,3.1788,0.0,0.0,0.0,0.0,0.0,0.0,0.0,0.0,0.0,2.983,2.5833,0.0,3.2139,0.0,4.0538,4.2032,3.9547,4.0678,0.0,0.0,4.1341,4.1768,4.5332,4.5959,4.6938,4.8997,5.0695,5.1983,5.2804,5.4009,5.473,5.4436,5.3783,5.3264,5.3181,5.4361,5.5566,5.6269,5.662,5.6965,5.7072,5.7298,5.7625,5.8033,5.8428,5.8529,5.7983,5.8278,5.8221,5.7367,5.7198,5.7298,5.7273,5.7549,5.765,5.7524,5.7399,5.7399,5.7851,5.8403,5.8981,3.8735,3.891,3.9242,3.9371,3.9398,3.9884,4.0466,4.1156,4.1955,4.2286,4.2333,4.301,4.3851,4.4758,4.5407,4.5436,4.4872,4.4538,4.4563,4.4908,4.48,4.5095,4.5743,4.6121,4.6461,4.6749,4.7119,4.7298,4.7339,4.7608,4.7758,4.7758,4.8397,4.784,4.6163,4.716,4.7608,4.7298,4.6726,4.5357,4.3088,4.0799,3.9088,3.8052,3.8278,3.8178,3.7675,3.7852,3.7526,3.6496,3.6697,3.658,3.6003,3.3932,3.2924,0.0,0.0,0.0,0.0,0.0,0.0,0.0,0.0,0.0,0.0,0.0,3.5767,3.8203,4.1708,4.3175,4.1601,4.2567,4.3909,4.5473,4.5271,4.606,4.872,4.9197,4.99,5.1356,5.2528,5.3449,5.4052,5.5265,5.6018,5.5792,5.5849,5.5648,5.5046,5.5849,5.6878,5.775,5.8102,5.8453,5.888,5.8755,5.8704,5.9006,5.9307,5.9382,5.9131,5.9106,5.893,5.8403,5.8252,5.8353,5.8554,5.883,5.9031,5.9307,5.9357,5.9156,5.873,5.9483,6.0331,4.0957,4.0596,4.121,4.1491,4.1434,4.0912,4.1352,4.2462,4.2665,4.2807,4.297,4.4398,4.5645,4.6647,4.6666,4.6607,4.6483,4.5944,4.5798,4.5936,4.5606,4.5783,4.642,4.6431,4.679,4.7429,4.7429,4.75,4.7578,4.8158,4.8427,4.8457,4.9097,4.9378,4.9288,4.8787,4.8128,4.7328,4.5967,4.4681,4.3401,4.2133,4.0436,3.8366,3.8781,3.868,3.7801,3.8165,3.7714,3.6259,3.6635,3.6631,3.5994,3.6168,3.5602,0.0,3.3796,0.0,0.0,0.0,0.0,0.0,0.0,0.0,0.0,3.9395,3.9582,3.9226,4.1557,4.3435,4.4225,4.4644,4.5676,4.764,4.9126,5.0142,5.0754,5.1774,5.2636,5.3246,5.4278,5.4906,5.5006,5.6301,5.7129,5.6803,5.7932,5.8359,5.723,5.728,5.7782,5.8227,5.8685,5.9458,6.0091,5.9985,5.9709,5.9753,5.9904,5.9784,5.9759,5.9483,5.9041,5.8696,5.8856,5.9097,5.9278,5.9862,6.0643,6.1065,6.1316,6.1135,6.0236,6.0663,6.1542,4.27,4.2698,4.283,4.2931,4.3017,4.3511,4.3511,4.3288,4.4512,4.5406,4.6022,4.688,4.7398,4.7605,4.7453,4.7687,4.8131,4.6471,4.6313,4.7377,4.6514,4.6461,4.7089,4.713,4.7459,4.8087,4.8128,4.8409,4.8917,4.9048,4.9108,4.9127,4.9722,4.9781,4.9348,0.0,0.0,0.0,4.5518,4.4027,4.2879,4.1495,4.0349,3.9435,3.9898,0.0,4.0511,4.0612,4.0349,3.9609,3.9661,0.0,3.8278,0.0,0.0,0.0,0.0,0.0,0.0,0.0,0.0,0.0,3.883,3.8914,3.8628,4.2025,4.3257,4.1009,4.2771,4.374,4.2928,4.4973,4.6717,4.769,5.0047,5.2,5.2955,5.3683,5.4504,5.5447,5.615,5.6552,5.6627,5.8001,5.8786,5.8384,5.9684,6.0537,6.0236,5.9809,5.9865,6.0437,6.0588,6.0763,6.0989,6.0939,6.0884,6.0934,6.1266,6.1276,6.0944,6.1105,6.0357,5.8629,5.9447,6.0094,5.8576,5.9973,6.1702,6.1823,6.2551,6.2873,6.1793,6.2024,6.2676,4.4853,4.4377,4.5149,4.5057,0.0,4.5665,4.5766,4.5128,4.5906,4.6658,4.7361,4.7725,4.8082,4.8439,4.8714,4.9032,4.9334,4.8052,4.7876,4.8459,4.7339,4.6958,4.7309,4.7638,4.7978,4.8308,4.8648,4.8977,4.9318,4.9595,4.9733,4.9763,5.0368,5.0548,5.0253,5.023,4.9411,4.7829,4.6513,4.495,4.3179,4.2411,4.1156,3.9423,4.0099,0.0,0.0,0.0,0.0,0.0,0.0,0.0,0.0,3.804,3.7689,3.7902,3.715,3.6948,3.7562,3.8354,3.9747,4.1943,4.2897,4.2954,4.199,4.3797,4.4805,4.4485,4.3345,4.3669,4.6437,4.5628,4.5802,4.8441,5.0816,5.241,5.3122,5.4929,5.6294,5.6602,5.7355,5.7857,5.7838,5.9012,5.9885,5.9985,6.0864,6.1552,6.1542,6.109,6.0964,6.1517,6.1843,6.1994,6.1994,6.1994,6.1974,6.1963,6.1276,6.1137,6.1862,6.1231,6.048,6.0236,6.148,6.1923,6.1146,6.2101,6.287,6.1934,6.2857,6.3481,6.2261,6.2791,6.3701,4.7048,4.603,4.7488,4.7323,4.6192,4.7585,4.7859,4.7364,4.7089,0.0,0.0,4.8225,4.8638,4.9213,4.9973,5.0371,5.0429,4.9648,4.9377,4.9432,4.7996,4.7358,4.7519,4.8038,4.8427,4.8656,4.9217,4.9516,4.9666,5.0129,5.0375,5.0416,5.0936,5.1217,5.1146,5.0536,4.968,4.8656,4.7747,4.613,4.3773,4.3779,4.2467,3.9588,4.0577,4.089,4.03,4.114,4.0989,3.9736,4.0036,4.0036,3.956,3.9999,4.0626,4.1378,4.1628,4.2019,4.2587,4.324,4.4041,4.5091,4.6135,4.6502,4.5964,4.5057,4.5326,4.7299,4.3404,4.3241,4.8909,4.5908,4.4799,4.877,5.1289,5.2748,5.3046,5.5877,5.7876,5.7713,5.8459,5.9037,5.9168,5.9535,6.0343,6.1101,6.13,6.1532,6.1543,6.1466,6.1667,6.2094,6.2425,6.2629,6.2261,6.2543,6.2618,6.1919,6.0556,6.0336,6.187,6.0729,6.006,6.179,6.2605,6.223,6.2479,6.2971,6.3217,6.1343,6.2974,6.4374,6.3135,6.3811,6.4885,4.8811,4.8219,4.9105,4.9066,4.85,4.9346,4.9643,4.9459,4.8295,4.8165,4.8875,4.9534,4.9838,4.9973,5.0702,5.137,5.1838,5.0113,4.9633,5.0153,4.819,4.7608,4.8158,4.8248,4.8865,4.9878,5.0028,5.0368,5.0888,5.1038,5.1056,5.1056,5.1146,5.1217,5.1146,5.0536,5.0117,4.9878,4.8207,4.6372,4.451,4.4886,4.4116,4.21,4.3048,4.3342,4.2592,4.2649,4.2649,4.2436,4.2512,4.2286,4.1797,4.221,4.2411,4.216,4.2925,4.3675,4.4227,4.5246,4.6301,4.7355,4.8074,4.82,4.757,4.5939,4.5148,4.5637,4.354,4.2177,4.2791,4.4533,4.5783,4.7014,5.1287,5.4406,5.4762,5.7097,5.8936,5.9639,5.9966,6.0247,6.0372,5.9589,5.9592,6.1044,6.0583,5.9754,6.0109,6.1384,6.2479,6.2676,6.2752,6.1973,6.0699,6.1577,6.1688,6.009,5.9732,6.0145,6.2525,5.9878,5.8479,6.077,5.9823,5.8664,5.8576,6.0334,6.1452,6.1348,6.3411,6.5183,6.518,6.5866,6.6237,4.9681,4.9898,5.0669,5.0622,4.9997,5.042,5.0612,5.0593,4.9961,4.9653,4.9684,5.0364,5.0702,5.0769,5.148,5.1987,5.2234,5.1194,5.0579,5.0332,4.9213,4.8535,4.8371,4.9015,4.962,5.0196,5.0566,5.0907,5.1187,5.1217,5.1217,5.1217,5.1217,5.1217,5.1187,5.0907,5.0566,5.0207,4.9015,4.7792,4.6663,4.6841,4.5978,4.3977,4.4481,4.4168,4.3045,4.3,4.3,4.3,4.3,4.3014,4.3076,4.3302,4.3452,4.3528,4.4281,4.4819,4.5056,4.611,4.7048,4.7817,4.8451,4.8953,4.9248,4.7806,4.6582,4.581,4.451,4.4384,4.5577,4.5282,4.5474,4.7103,5.1211,5.3793,5.4536,5.7792,6.0197,6.0713,6.1065,6.0856,5.9833,5.9267,5.8614,5.8893,5.8769,5.9222,5.9222,6.0152,6.091,6.1014,6.1911,6.168,5.9838,6.0355,6.0179,5.815,5.7037,5.7617,5.9462,5.7447,5.7063,5.8791,5.848,5.8142,5.8074,5.9091,6.004,6.0565,6.1337,6.2637,6.3267,6.4338,6.5653,5.0518,5.1132,5.194,5.2043,5.1668,5.1606,5.1628,5.1679,5.1692,5.131,5.0748,5.1217,5.1446,5.1514,5.2224,5.257,5.2505,5.2108,5.1577,5.0964,5.017,4.9564,4.9189,4.9899,5.0255,5.0446,5.0966,5.1217,5.1217,5.1217,5.1217,5.1217,5.1217,5.1217,5.1217,5.1217,5.0936,5.0416,4.9942,4.9416,4.8767,4.8876,4.7951,4.598,4.5982,4.52,4.3507,4.3352,4.3377,4.3377,4.3478,4.3754,4.4166,4.4418,4.4729,4.5181,4.5849,4.6316,4.6466,4.733,4.8018,4.8419,4.9028,4.9629,5.0173,5.0103,4.8897,4.6882,4.5809,4.62,4.7459,4.5984,4.5124,4.7566,5.0538,5.2373,5.3032,5.6931,6.0087,6.0439,6.1047,6.0752,5.9767,5.8901,5.7582,5.5921,5.716,5.8451,5.7972,5.8214,5.8679,5.8455,5.988,6.0526,5.9129,5.9095,5.8332,5.6243,5.4841,5.5463,5.6546,5.5619,5.5404,5.7405,5.753,5.7329,5.7902,5.8225,5.8565,5.9111,6.0106,6.0819,6.2087,6.3683,6.5277,5.1803,5.2018,5.2742,5.3486,5.3906,5.3355,5.3133,5.3208,5.325,5.2837,5.2153,5.2164,5.2198,5.23,5.3044,5.3348,5.3273,5.235,5.2196,5.2459,5.0713,5.0429,5.1317,5.0676,5.0536,5.1038,5.1187,5.1217,5.1217,5.1247,5.1217,5.1217,5.1217,5.1247,5.1217,5.1217,5.1176,5.1116,5.1056,5.071,5.0117,5.0624,4.9882,4.7725,4.8236,4.7254,4.4637,4.4453,4.4439,4.4503,4.4945,4.5261,4.5412,4.6235,4.6798,4.6873,4.7857,4.8702,4.9163,4.9775,5.0051,5.0218,5.067,5.076,5.0348,5.2499,5.2283,4.9057,4.7246,4.6565,4.5153,4.5341,4.5867,4.6621,4.9094,5.0609,5.155,5.3751,5.6371,5.8557,5.9341,6.0143,6.0747,5.8203,5.5224,5.3059,5.5027,5.6019,5.4475,5.5755,5.6643,5.5041,5.5689,5.7105,5.7199,5.7379,5.635,5.4444,5.4091,5.4898,5.5762,5.4565,5.3096,5.6371,5.5637,5.4372,5.5755,5.664,5.7102,5.8384,6.0082,6.2457,6.4497,6.5525,6.6534,5.227,5.2706,5.3067,5.3654,5.4356,5.4554,5.4707,5.4714,5.4254,5.3913,5.3632,5.3217,5.301,5.3036,5.3348,5.3509,5.3475,5.3495,5.3296,5.3041,5.2893,5.2612,5.191,5.1879,5.1626,5.1223,5.1217,5.1217,5.1277,5.1576,5.1786,5.1786,5.1798,5.1798,5.1756,5.1397,5.1217,5.1217,5.1576,5.1846,5.1995,5.2258,5.1753,5.0476,4.9826,4.8409,4.6167,4.5113,4.4589,4.4614,4.5171,4.5648,4.5974,4.6697,4.7415,4.8099,4.9138,4.9992,5.0544,5.0812,5.0946,5.0921,5.1448,5.1719,5.1802,5.3522,5.3554,5.1643,5.1039,4.9862,4.7175,4.7431,4.767,4.7278,4.9289,5.1146,5.1402,5.4993,5.7602,5.7263,5.834,5.8351,5.668,5.3815,5.1552,5.0775,5.2697,5.3744,5.2963,5.4129,5.5196,5.5574,5.4591,5.3791,5.4848,5.5339,5.4362,5.2804,5.2301,5.3274,5.3859,5.3446,5.2843,5.5276,5.3762,5.2876,5.3913,5.5717,5.6853,5.8077,5.9398,6.1636,6.3097,6.3683,6.4718,5.2784,5.3508,5.3765,5.4326,5.5097,5.5684,5.5853,5.5643,5.509,5.4638,5.4246,5.3725,5.3509,5.3509,5.3509,5.3509,5.3611,5.427,5.4329,5.3859,5.4703,5.4226,5.2782,5.2742,5.2294,5.1351,5.1217,5.1217,5.1247,5.1666,5.2007,5.2157,5.2187,5.2187,5.2145,5.1708,5.1457,5.1517,5.1977,5.2606,5.3336,5.3473,5.3106,5.2303,5.0917,4.9255,4.743,4.5874,4.5141,4.5292,4.5849,4.6416,4.6969,4.749,4.8309,4.9421,5.0343,5.1071,5.149,5.1649,5.1741,5.1749,5.2126,5.2703,5.3403,5.3683,5.3607,5.336,5.3771,5.2595,5.0218,4.909,4.8548,4.832,5.001,5.078,5.1103,5.4522,5.579,5.5268,5.6095,5.6312,5.3103,5.1291,5.0314,4.973,5.1053,5.2338,5.2338,5.2686,5.3745,5.5607,5.305,5.2425,5.3556,5.3773,5.2836,5.2083,5.1694,5.2115,5.2187,5.2246,5.2427,5.4103,5.3181,5.3083,5.368,5.5149,5.6624,5.7879,5.9247,6.0706,6.2226,6.2198,6.3512,5.3623,5.4399,5.5144,5.5868,5.6669,5.6743,5.6345,5.5848,5.5653,5.4874,5.38,5.3526,5.3509,5.3509,5.3543,5.3509,5.3619,5.4304,5.4971,5.5411,5.5321,5.4926,5.4409,5.3407,5.2373,5.1584,5.1621,5.1511,5.1364,5.1366,5.1576,5.2157,5.2187,5.2217,5.2276,5.2217,5.2187,5.2306,5.2426,5.2893,5.397,5.4149,5.3803,5.3003,5.1452,4.9922,4.8486,4.6985,4.6396,4.6933,4.744,4.8033,4.8626,4.9188,5.0042,5.1063,5.1699,5.2026,5.2109,5.2511,5.2787,5.2812,5.2845,5.354,5.4713,5.3174,5.2649,5.3675,5.4066,5.3588,5.2802,5.0037,4.8831,5.0471,4.944,4.89,4.9072,5.0079,5.0553,5.2005,5.2855,5.2831,5.2339,5.2676,5.1369,5.0194,5.0385,5.0928,5.0858,5.1184,5.1764,5.1864,5.2012,5.2719,5.4319,5.3694,5.2559,5.2066,5.2148,5.2553,5.2637,5.2734,5.2974,5.3189,5.3306,5.3496,5.3808,5.4668,5.5959,5.7364,5.9098,6.0573,6.1761,6.2841,6.389,5.4436,5.5249,5.6051,5.6559,5.6847,5.733,5.7398,5.7092,5.6114,5.5422,5.478,5.3913,5.3509,5.3551,5.3991,5.4203,5.427,5.4964,5.5708,5.6373,5.6731,5.645,5.5638,5.5174,5.4442,5.3578,5.3854,5.3697,5.3112,5.34,5.3111,5.2282,5.2187,5.2618,5.3234,5.3037,5.3246,5.4084,5.4521,5.4803,5.4862,5.5251,5.5147,5.4316,5.1984,5.0449,4.9918,4.7929,4.6898,4.7099,4.8269,4.9088,4.9414,5.0829,5.1883,5.231,5.2829,5.298,5.2737,5.3113,5.3432,5.3439,5.3783,5.4353,5.4841,5.3673,5.3448,5.5157,5.2902,5.2457,5.4923,5.3301,5.0937,4.9604,4.9011,4.8764,4.9157,5.0162,5.0987,5.0411,5.038,5.0558,5.0779,5.0962,5.0869,5.0236,5.0449,5.0683,5.0762,5.1308,5.1758,5.1738,5.2095,5.2719,5.3274,5.3069,5.2505,5.25,5.2637,5.2871,5.2988,5.313,5.3326,5.3555,5.3711,5.3789,5.4068,5.4742,5.5981,5.833,5.9978,6.0155,6.1421,6.2288,6.3054,5.5249,5.6057,5.6853,5.7183,5.7226,5.7745,5.7844,5.7516,5.6257,5.5581,5.5129,5.4018,5.3619,5.389,5.4406,5.4913,5.531,5.5843,5.635,5.6833,5.7552,5.7297,5.635,5.6214,5.5618,5.4798,5.51,5.491,5.4259,5.4284,5.3872,5.3141,5.2755,5.3054,5.397,5.3952,5.4354,5.5192,5.5863,5.5953,5.5653,5.5953,5.588,5.4904,5.2452,5.1003,5.0933,4.8652,4.7566,4.8018,4.9172,5.0017,5.0519,5.2151,5.3088,5.2988,5.3406,5.3557,5.3289,5.3658,5.4077,5.426,5.478,5.5308,5.5514,5.4164,5.4627,5.5251,5.3416,5.2491,5.4952,5.4533,5.2299,5.0026,4.9845,4.9679,4.9078,5.0276,5.0403,4.9591,4.9479,4.9621,4.9742,5.0141,5.0379,5.0391,5.0742,5.1016,5.1269,5.166,5.2148,5.2285,5.2661,5.2896,5.3284,5.3227,5.3008,5.3008,5.31,5.3301,5.3359,5.3502,5.3613,5.3881,5.4037,5.4076,5.4453,5.5075,5.6872,5.9281,5.9706,5.9564,6.0617,6.1564,6.2479,5.6093,5.6853,5.7666,5.7923,5.7892,5.7966,5.7613,5.6996,5.6141,5.5473,5.484,5.3897,5.3966,5.4439,5.4676,5.5378,5.6461,5.6731,5.6833,5.7002,5.7586,5.7353,5.6389,5.6389,5.5995,5.5079,5.4819,5.481,5.4877,5.4063,5.3917,5.448,5.3585,5.3486,5.4239,5.4832,5.5192,5.5551,5.6132,5.6312,5.6205,5.6222,5.5923,5.5092,5.2931,5.1723,5.1622,4.9276,4.8419,4.9389,5.0126,5.0954,5.2126,5.3231,5.3532,5.3213,5.3464,5.3665,5.3733,5.4177,5.4748,5.5189,5.5842,5.615,5.5969,5.4846,5.4386,5.5041,5.3957,5.3518,5.4244,5.3602,5.2374,5.2149,5.1759,5.0691,4.9426,4.8936,4.9093,4.9394,4.9566,4.9722,5.0137,5.0547,5.0801,5.0879,5.1148,5.1543,5.188,5.2134,5.2349,5.2676,5.3066,5.3359,5.3541,5.3697,5.3599,5.3541,5.3666,5.3822,5.3764,5.3822,5.3803,5.3972,5.3972,5.4056,5.4353,5.5002,5.584,5.7676,5.8042,5.9069,6.0055,6.1079,6.2142,5.689,5.7629,5.7886,5.8002,5.8002,5.8002,5.7832,5.7558,5.6844,5.6101,5.5313,5.4583,5.4414,5.4694,5.5108,5.5877,5.679,5.7315,5.7552,5.7586,5.7789,5.7701,5.74,5.7344,5.7471,5.7606,5.7634,5.7476,5.7041,5.605,5.5452,5.4815,5.3819,5.3822,5.4837,5.5551,5.6239,5.7141,5.738,5.7304,5.6838,5.6402,5.6102,5.5731,5.412,5.3077,5.2724,5.042,4.9309,4.9665,5.1205,5.2787,5.4084,5.4662,5.4604,5.4152,5.4202,5.4102,5.3833,5.4253,5.4873,5.5458,5.6244,5.6702,5.6631,5.5715,5.5742,5.677,5.5421,5.4615,5.6191,5.6908,5.5372,5.2703,5.0964,5.0048,4.9203,4.9141,4.9355,4.9527,5.0015,5.043,5.0625,5.0976,5.1206,5.1269,5.1601,5.1973,5.2153,5.2622,5.2999,5.3234,5.356,5.3769,5.3828,5.3848,5.3808,5.375,5.3881,5.3972,5.3972,5.3972,5.3972,5.4037,5.4017,5.4186,5.4463,5.511,5.6016,5.685,5.7947,5.8882,5.9733,6.0807,6.1988,5.7257,5.7966,5.8002,5.8002,5.8002,5.8002,5.8002,5.7826,5.6889,5.6355,5.5955,5.503,5.4945,5.5431,5.5911,5.6486,5.7205,5.7721,5.79,5.79,5.79,5.79,5.79,5.79,5.8094,5.8592,5.8853,5.8881,5.8656,5.782,5.6915,5.5942,5.4812,5.4521,5.5225,5.5863,5.6671,5.7334,5.756,5.7423,5.6868,5.6641,5.6432,5.6024,5.4576,5.3782,5.3501,5.1652,5.0535,5.0896,5.2636,5.431,5.5315,5.5516,5.5383,5.4798,5.4748,5.4629,5.4177,5.4604,5.5232,5.5968,5.6846,5.733,5.7281,5.6864,5.7705,5.8345,5.7033,5.6633,5.8657,5.7287,5.579,5.4102,5.2655,5.0816,4.9779,4.9355,4.9683,4.9976,5.0445,5.0796,5.105,5.1387,5.1616,5.1738,5.2051,5.2422,5.2603,5.3033,5.3326,5.358,5.3789,5.392,5.3978,5.3978,5.3998,5.3959,5.3978,5.3972,5.3972,5.3972,5.3972,5.4095,5.4134,5.4525,5.4842,5.5686,5.6557,5.7314,5.7988,5.9086,6.0078,6.1014,6.204,5.733,5.7966,5.8002,5.8002,5.8002,5.8002,5.8002,5.7774,5.6635,5.6376,5.6443,5.5489,5.5534,5.6521,5.6664,5.707,5.7789,5.7866,5.79,5.79,5.79,5.79,5.79,5.79,5.8035,5.8229,5.8718,5.9087,5.9303,5.8761,5.8269,5.7568,5.6461,5.5704,5.5443,5.585,5.6265,5.6432,5.6808,5.6778,5.6402,5.6688,5.6868,5.6341,5.4956,5.4191,5.4141,5.3014,5.2251,5.2553,5.421,5.5239,5.5534,5.5924,5.5709,5.4748,5.5082,5.5006,5.4805,5.5006,5.5767,5.6734,5.738,5.7951,5.8058,5.86,5.9154,5.9592,5.8575,5.8942,6.0049,5.7729,5.518,5.5486,5.4389,5.2575,5.0089,4.9527,4.9898,5.0527,5.082,5.0952,5.1304,5.1719,5.1894,5.2109,5.2383,5.2754,5.315,5.3404,5.3594,5.3783,5.3959,5.3978,5.3972,5.3972,5.3972,5.3972,5.3998,5.4017,5.4017,5.4017,5.3972,5.4095,5.4388,5.4779,5.5285,5.5976,5.6677,5.7273,5.8211,5.9372,6.0359,6.1186,6.1974,5.7813,5.8002,5.8002,5.8002,5.8002,5.8002,5.8002,5.7971,5.7591,5.7155,5.6873,5.645,5.638,5.6767,5.6833,5.7205,5.7755,5.79,5.79,5.79,5.79,5.79,5.79,5.7924,5.8195,5.865,5.8989,5.9588,6.0536,5.9778,5.9031,5.8459,5.7342,5.6206,5.5483,5.5833,5.6175,5.6222,5.6312,5.6641,5.6778,5.6581,5.6855,5.7527,5.7032,5.6308,5.559,5.4514,5.417,5.4529,5.5006,5.5609,5.5899,5.61,5.5742,5.4974,5.5082,5.5182,5.4848,5.5132,5.5917,5.6885,5.7656,5.8252,5.905,5.9307,5.991,6.0428,6.0422,6.0665,6.1515,6.0572,5.8839,5.5857,5.3304,5.0917,4.9939,4.9844,5.0234,5.0723,5.105,5.124,5.1382,5.1597,5.1816,5.2109,5.2519,5.293,5.3384,5.3652,5.3842,5.3881,5.3998,5.3998,5.3972,5.3972,5.3972,5.3972,5.4017,5.4037,5.4037,5.4037,5.4017,5.4037,5.4583,5.5058,5.5402,5.5913,5.6542,5.7419,5.8799,6.0141,6.0441,6.11,6.1973,5.8002,5.8002,5.8002,5.818,5.8468,5.8505,5.8694,5.8835,5.8303,5.8039,5.7738,5.7071,5.6986,5.7266,5.7273,5.7476,5.7866,5.79,5.79,5.79,5.79,5.79,5.7967,5.8161,5.8592,5.9047,5.9665,6.0443,6.112,6.0862,6.0065,5.8906,5.8119,5.6915,5.5267,5.5534,5.5773,5.5833,5.6013,5.6402,5.6628,5.6928,5.7363,5.7955,5.7996,5.734,5.6224,5.6049,5.5955,5.5609,5.5609,5.5892,5.6143,5.6219,5.5792,5.5031,5.5415,5.5491,5.5207,5.5616,5.647,5.733,5.8077,5.8805,5.9402,5.9684,6.0286,6.0989,6.1165,6.1567,6.2012,6.1799,5.9159,5.5027,5.196,5.0236,4.9895,5.0019,5.0449,5.0918,5.1245,5.1397,5.1416,5.1694,5.2007,5.2402,5.2944,5.332,5.3652,5.3861,5.3972,5.3972,5.3972,5.3972,5.3972,5.3972,5.3972,5.3972,5.4213,5.4193,5.4211,5.4231,5.4271,5.4408,5.4883,5.5293,5.5619,5.6193,5.7278,5.8342,5.9722,6.0527,6.0844,6.1492,6.2297,5.8112,5.8149,5.8143,5.8572,5.9264,5.9343,5.9636,5.9987,5.887,5.8586,5.8686,5.7544,5.7322,5.79,5.7755,5.7866,5.79,5.79,5.79,5.79,5.79,5.7958,5.8186,5.8616,5.8989,5.9351,6.0646,6.1187,6.1574,6.2008,6.0949,5.9313,5.8722,5.7429,5.5675,5.5251,5.5251,5.5521,5.5953,5.6402,5.6808,5.744,5.8068,5.8421,5.7958,5.745,5.6909,5.6993,5.6864,5.5444,5.5917,5.6143,5.6219,5.6244,5.5968,5.5641,5.5867,5.6068,5.5742,5.6351,5.7255,5.7932,5.888,5.9552,5.9684,6.0035,6.0537,6.1316,6.124,6.1692,6.2211,6.0823,5.7861,5.4456,5.2925,5.2056,5.0658,5.0199,5.0508,5.1245,5.1401,5.1377,5.1655,5.2065,5.2631,5.2754,5.3242,5.3516,5.375,5.392,5.3972,5.3972,5.3972,5.3972,5.3972,5.3972,5.3972,5.4037,5.4394,5.4518,5.4574,5.4613,5.47,5.5058,5.6119,5.6214,5.5828,5.6676,5.8174,5.8912,6.0016,6.0728,6.1337,6.2233,6.3077,5.8939,5.8939,5.8939,5.9416,6.0083,6.0156,6.026,6.0311,5.9423,5.913,5.8921,5.8075,5.7785,5.79,5.79,5.79,5.79,5.79,5.79,5.79,5.79,5.8263,5.865,5.8989,5.9327,5.9969,6.0825,6.1569,6.2076,6.1985,6.116,5.9125,5.8542,5.7594,5.5538,5.5281,5.5491,5.591,5.6162,5.6778,5.7483,5.7905,5.8637,5.9345,5.8528,5.778,5.7282,5.6495,5.5799,5.5624,5.5867,5.6157,5.6308,5.6553,5.6346,5.5924,5.6276,5.6552,5.6276,5.6677,5.7437,5.8409,5.9131,5.9703,6.0111,6.0217,6.0814,6.1466,6.1466,6.1743,6.2418,6.0699,5.8245,5.5943,5.5027,5.3846,5.1123,5.0294,5.0785,5.1172,5.1397,5.1538,5.1855,5.2031,5.2539,5.3072,5.3443,5.3652,5.3822,5.3978,5.3972,5.3972,5.3972,5.3998,5.4023,5.41,5.4202,5.4416,5.482,5.5192,5.5203,5.5368,5.5638,5.6498,5.7695,5.7407,5.6742,5.8589,6.0365,6.0375,6.0313,6.1221,6.2106,6.3006,6.3487,5.9783,5.9747,5.9747,6.023,6.0896,6.0964,6.0969,6.0886,6.0523,5.9858,5.9168,5.8608,5.8255,5.7918,5.79,5.79,5.79,5.79,5.79,5.79,5.7934,5.833,5.8989,5.9428,5.9902,6.0655,6.1434,6.2052,6.2201,6.1736,6.0565,5.8869,5.8291,5.6979,5.5584,5.5491,5.582,5.6269,5.6838,5.7453,5.8008,5.8457,5.9205,6.0172,5.9586,5.8877,5.8193,5.7335,5.6337,5.5699,5.569,5.6097,5.6458,5.6578,5.6396,5.6383,5.6301,5.6684,5.6634,5.7129,5.7807,5.866,5.9408,5.9759,6.0136,6.0362,6.0939,6.1441,6.1642,6.1923,6.2615,6.1973,5.9859,5.8119,5.7455,5.5821,5.2785,5.1792,5.1545,5.1562,5.1397,5.1636,5.1914,5.2187,5.2642,5.3267,5.3633,5.3861,5.3861,5.3972,5.3972,5.3972,5.3972,5.3998,5.4074,5.4202,5.4457,5.4897,5.5498,5.593,5.621,5.6434,5.6734,5.7612,5.8373,5.8409,5.8279,6.0412,6.1544,6.1021,6.1042,6.1995,6.2857,6.3676,6.3944,6.0597,6.0603,6.0597,6.1043,6.1704,6.1777,6.1783,6.1756,6.1477,6.0481,5.9427,5.9094,5.837,5.7993,5.79,5.79,5.79,5.79,5.79,5.79,5.8127,5.8626,5.9293,5.9969,6.0689,6.1467,6.2009,6.2357,6.208,6.1204,6.015,5.8801,5.7609,5.6616,5.5789,5.585,5.6342,5.6748,5.7483,5.8068,5.8397,5.8949,5.9937,6.087,6.0055,5.9401,5.85,5.7532,5.6605,5.5509,5.5408,5.5976,5.6567,5.6548,5.6371,5.6823,5.6652,5.6853,5.7204,5.7681,5.8284,5.8886,5.984,6.0091,6.006,6.0658,6.1165,6.1441,6.1718,6.2275,6.2752,6.2531,6.1408,5.9946,5.9504,5.7943,5.4845,5.3841,5.3595,5.1674,5.1416,5.1636,5.209,5.2461,5.2955,5.3404,5.3744,5.3972,5.3972,5.3972,5.3972,5.3972,5.3972,5.4227,5.4329,5.4711,5.4914,5.5345,5.6045,5.6643,5.7177,5.7766,5.8077,5.8176,5.865,5.8997,5.9713,6.116,6.1725,6.1301,6.1716,6.2639,6.3485,6.4325,6.4446,6.141,6.141,6.138,6.1851,6.2542,6.2579,6.2528,6.2363,6.1214,6.0481,5.9991,5.8772,5.8226,5.7909,5.79,5.79,5.79,5.79,5.7924,5.8094,5.8457,5.9124,5.9945,6.0622,6.14,6.2052,6.2391,6.2391,6.211,6.1193,6.0,5.8801,5.7586,5.6598,5.6189,5.6222,5.6778,5.7453,5.8008,5.8397,5.889,5.9608,6.0505,6.1406,5.9864,5.881,5.8084,5.6123,5.4703,5.529,5.5383,5.5994,5.6568,5.6439,5.6284,5.6542,5.7072,5.738,5.77,5.8227,5.9012,5.989,6.0512,6.0638,6.0518,6.109,6.1466,6.1642,6.2094,6.2701,6.2777,6.2802,6.1701,6.0605,6.086,6.0315,5.6126,5.5289,5.5328,5.2596,5.1974,5.1694,5.2246,5.2734,5.3144,5.3516,5.3822,5.3972,5.3972,5.3972,5.3972,5.3972,5.3972,5.4304,5.4635,5.5142,5.5517,5.5854,5.6531,5.735,5.802,5.9003,5.9468,5.963,6.0151,6.0859,6.1626,6.2215,6.2313,6.2154,6.2695,6.3332,6.4097,6.486,6.5117,6.2218,6.2212,6.2212,6.2432,6.2756,6.2793,6.2547,6.2156,6.1785,6.0901,5.9944,5.9296,5.8651,5.8101,5.79,5.79,5.79,5.79,5.8094,5.849,5.8887,5.9665,6.0588,6.1153,6.1704,6.2221,6.2391,6.2424,6.2282,6.115,6.0,5.8801,5.7586,5.6752,5.6439,5.6551,5.7154,5.7965,5.8427,5.877,5.9219,6.0057,6.1164,6.1111,5.959,5.8289,5.7719,5.5429,5.4207,5.4791,5.4989,5.5591,5.6107,5.6202,5.6035,5.6585,5.7154,5.7606,5.7926,5.8428,5.9137,6.0066,6.0412,6.0362,6.0493,6.0995,6.1692,6.2094,6.2295,6.2802,6.2802,6.2802,6.2199,6.1758,6.2705,6.1426,5.8754,5.8053,5.5939,5.3498,5.2536,5.2252,5.2475,5.2969,5.3359,5.3666,5.3939,5.3972,5.3972,5.3972,5.3998,5.4176,5.4253,5.4716,5.5162,5.5734,5.6269,5.6614,5.7245,5.8069,5.8959,5.9985,6.0729,6.1129,6.1823,6.2266,6.2288,6.2459,6.2695,6.3028,6.351,6.402,6.4709,6.5275,6.5595,6.2793,6.2793,6.2793,6.2793,6.2793,6.2793,6.247,6.2029,6.2291,6.1307,5.9612,5.9744,5.9196,5.8217,5.79,5.79,5.79,5.79,5.8297,5.8896,5.9225,6.0003,6.095,6.1525,6.1873,6.2323,6.2424,6.2424,6.2203,6.1193,5.9967,5.8854,5.768,5.6923,5.6641,5.7047,5.762,5.8248,5.877,5.9129,5.9727,6.0655,6.1613,6.1925,5.9537,5.806,5.8013,5.516,5.4229,5.4555,5.4837,5.5103,5.5922,5.5806,5.6019,5.6823,5.7104,5.7506,5.8008,5.8604,5.9413,6.0442,6.0111,6.0236,6.0618,6.1316,6.1793,6.2576,6.2802,6.2802,6.2802,6.2802,6.2836,6.3025,6.3236,6.2999,6.0825,5.9153,5.7154,5.506,5.3419,5.268,5.277,5.3066,5.3437,5.3724,5.3972,5.3972,5.3972,5.3972,5.4049,5.4355,5.466,5.5173,5.5739,5.6436,5.6988,5.7542,5.8332,5.9246,6.0089,6.1005,6.1639,6.2202,6.2511,6.2823,6.2764,6.2892,6.3357,6.3791,6.4173,6.4655,6.5211,6.582,6.6305,6.2793,6.2793,6.2793,6.2793,6.2793,6.2793,6.2761,6.2573,6.2076,6.1243,6.0094,5.9598,5.8943,5.8164,5.7981,5.7945,5.79,5.8026,5.8423,5.9124,5.9733,6.0477,6.1332,6.2018,6.2144,6.2424,6.2424,6.2424,6.2203,6.1265,6.0054,5.894,5.8338,5.7603,5.7148,5.7543,5.8308,5.8846,5.9069,5.9697,6.0731,6.1553,6.2225,6.1923,5.9978,5.8139,5.7962,5.5304,5.3845,5.4988,5.4831,5.5188,5.5988,5.6175,5.6396,5.696,5.7481,5.8052,5.851,5.9106,5.9834,6.0713,6.0864,6.1266,6.1517,6.1718,6.2074,6.2676,6.2802,6.2802,6.2802,6.2802,6.3078,6.35,6.3886,6.3355,6.1883,6.061,5.8544,5.6361,5.4621,5.3414,5.2868,5.3195,5.3521,5.3808,5.3972,5.3972,5.4049,5.41,5.4355,5.4711,5.5213,5.5744,5.6461,5.7114,5.7801,5.8418,5.9397,6.0339,6.1093,6.1833,6.2458,6.2973,6.328,6.3613,6.3817,6.4042,6.4271,6.4528,6.4858,6.5211,6.5566,6.622,6.692,6.2793,6.2793,6.2793,6.2793,6.2793,6.2793,6.2793,6.2736,6.2451,6.1562,6.061,6.0544,5.9821,5.878,5.8581,5.8317,5.811,5.8321,5.893,5.9631,6.0385,6.1173,6.1849,6.2221,6.2391,6.2424,6.2424,6.2424,6.2193,6.1834,6.0887,5.95,5.906,5.8535,5.7706,5.7962,5.8457,5.8996,5.9518,6.0356,6.1373,6.1972,6.2421,6.2903,5.9777,5.8471,5.7503,5.5315,5.3948,5.4856,5.4899,5.5425,5.6082,5.6502,5.691,5.7481,5.8033,5.8434,5.8736,5.9508,6.0311,6.0934,6.126,6.1411,6.1863,6.2044,6.225,6.2731,6.2802,6.2802,6.2802,6.2802,6.3174,6.3626,6.4224,6.4284,6.3362,6.1937,6.0272,5.8027,5.5939,5.4707,5.3618,5.3519,5.3742,5.3842,5.3972,5.3972,5.4151,5.438,5.4716,5.5198,5.5744,5.636,5.7159,5.7916,5.8668,5.9376,6.0413,6.1277,6.1905,6.2583,6.3233,6.374,6.4071,6.4427,6.4832,6.4832,6.4782,6.5135,6.5539,6.594,6.6293,6.6645,6.7225,6.2939,6.3129,6.2903,6.2793,6.2793,6.2793,6.2793,6.2793,6.278,6.1989,6.107,6.1011,6.0377,5.9385,5.8976,5.8616,5.7986,5.865,5.9394,6.0148,6.0926,6.1637,6.211,6.2424,6.2424,6.2424,6.2424,6.2424,6.2458,6.235,6.1656,5.9925,5.9908,5.9188,5.8425,5.8367,5.8786,5.9428,6.028,6.1148,6.1912,6.2285,6.2644,6.1939,6.0142,5.8072,5.7738,5.5264,5.4064,5.4805,5.5164,5.5598,5.615,5.6677,5.7186,5.7757,5.8309,5.8836,5.9238,5.989,6.0638,6.1165,6.1567,6.1918,6.2124,6.2199,6.23,6.2756,6.2802,6.2802,6.2802,6.2802,6.3274,6.3772,6.43,6.4852,6.495,6.3244,6.19,6.0341,5.8151,5.5918,5.4917,5.4229,5.4022,5.4004,5.3972,5.4017,5.4306,5.4651,5.5229,5.5792,5.6492,5.7162,5.8056,5.8803,5.9544,6.0344,6.1366,6.2189,6.2799,6.3343,6.3944,6.4402,6.4832,6.5388,6.589,6.5564,6.5289,6.5915,6.6441,6.6741,6.7089,6.7342,6.7507,6.3276,6.3943,6.3166,6.2866,6.2836,6.2793,6.2793,6.2793,6.2793,6.2324,6.1506,6.082,6.0086,5.9344,5.9095,5.8677,5.7967,5.8684,5.9496,6.025,6.0926,6.1738,6.2221,6.2424,6.2424,6.2424,6.2424,6.2424,6.2594,6.3081,6.1839,6.0206,6.0526,5.9526,5.8858,5.8786,5.9368,6.0116,6.1088,6.1776,6.2285,6.2614,6.3018,6.2321,6.0095,5.8174,5.8505,5.5559,5.4228,5.5182,5.5433,5.5767,5.6326,5.6853,5.743,5.7983,5.8535,5.9187,5.9915,6.0292,6.0864,6.1718,6.2275,6.245,6.2425,6.2651,6.2802,6.2777,6.2802,6.2802,6.2802,6.2902,6.3425,6.4023,6.4576,6.5103,6.5086,6.4124,6.2863,6.2121,6.0259,5.7681,5.5728,5.4908,5.4092,5.3998,5.4219,5.4238,5.4748,5.5134,5.582,5.6473,5.7265,5.8078,5.9045,5.9802,6.0485,6.123,6.2148,6.2938,6.3645,6.4195,6.468,6.5211,6.5692,6.6316,6.6765,6.6466,6.6441,6.694,6.7312,6.7461,6.7692,6.7944,6.7982,6.4524,6.4744,6.3943,6.3613,6.3539,6.3019,6.2793,6.2793,6.2793,6.2637,6.2232,6.1004,6.0219,5.9824,5.9254,5.8943,5.8718,5.9361,6.008,6.0858,6.1603,6.212,6.2391,6.2424,6.2424,6.2424,6.2424,6.2729,6.3149,6.3521,6.2602,6.1624,6.1305,6.021,5.954,5.9368,6.0057,6.0745,6.1613,6.2255,6.2734,6.2898,6.3108,6.2832,5.9764,5.8451,5.8237,5.5795,5.5168,5.5282,5.5691,5.6143,5.6627,5.7179,5.775,5.8309,5.8861,5.9709,6.0563,6.0844,6.1215,6.1843,6.2425,6.2681,6.2476,6.2601,6.2777,6.2802,6.2802,6.2802,6.2827,6.3128,6.3701,6.4325,6.4877,6.5358,6.5303,6.4533,6.4256,6.3693,6.1394,5.8776,5.7003,5.5417,5.4651,5.4017,5.4258,5.4582,5.5073,5.5885,5.6646,5.7437,5.8243,5.8989,5.9935,6.0688,6.1392,6.2166,6.2919,6.3598,6.4322,6.4933,6.5415,6.5968,6.6468,6.6989,6.7288,6.7312,6.7461,6.7709,6.7857,6.798,6.8259,6.8511,6.8324,6.5441,6.5521,6.4537,6.4103,6.3986,6.316,6.2793,6.2793,6.2793,6.2618,6.2363,6.1193,6.0412,6.0003,5.9732,5.9235,5.9337,5.9936,6.068,6.1366,6.1917,6.2357,6.2424,6.2424,6.2424,6.2424,6.2719,6.3081,6.3409,6.3893,6.3119,6.2335,6.197,6.0989,5.9656,5.9967,6.0715,6.1403,6.2061,6.2555,6.3078,6.3108,6.257,6.2145,5.9547,5.8287,5.7743,5.6064,5.5332,5.5591,5.6018,5.6426,5.6979,5.7556,5.8152,5.873,5.9408,6.0186,6.0889,6.1391,6.1667,6.2275,6.2325,6.24,6.2421,6.2576,6.2777,6.2802,6.2802,6.2802,6.2832,6.3279,6.3827,6.44,6.4953,6.5455,6.581,6.5486,6.5498,6.5289,6.2503,5.9825,6.03,5.8662,5.5925,5.5084,5.4629,5.4985,5.5449,5.6439,5.7765,5.8551,5.9366,6.0089,6.0814,6.1614,6.2413,6.2989,6.3722,6.4205,6.4883,6.544,6.6043,6.6591,6.7064,6.7585,6.7882,6.8054,6.8178,6.8301,6.8497,6.8694,6.8652,6.8827,6.8373,6.5809,6.6256,6.483,6.4176,6.4096,6.3166,6.2793,6.2793,6.2786,6.2464,6.1872,6.1485,6.0661,5.9759,5.9916,5.9658,5.9698,6.0578,6.1298,6.1569,6.2086,6.2357,6.2424,6.2424,6.2482,6.2618,6.299,6.3386,6.3738,6.4459,6.3782,6.262,6.2073,6.1387,5.9424,6.0432,6.1403,6.2061,6.2674,6.2974,6.3078,6.3108,6.2409,6.136,5.9611,5.8401,5.7742,5.6233,5.5584,5.5949,5.6118,5.652,5.7129,5.7625,5.8177,5.8805,5.9714,6.0487,6.1135,6.1667,6.2044,6.2325,6.222,6.2245,6.2601,6.2777,6.2802,6.2802,6.2802,6.2802,6.3003,6.34,6.3998,6.4475,6.5028,6.5534,6.5936,6.5943,6.5821,6.5693,6.3147,6.0984,6.2513,6.2277,5.8405,5.6461,5.5464,5.5454,5.6053,5.7056,5.8516,5.9684,6.0463,6.1135,6.1893,6.2663,6.339,6.3944,6.4427,6.4883,6.5262,6.5689,6.6341,6.7039,6.7511,6.7857,6.8374,6.8841,6.8865,6.8938,6.9256,6.9428,6.9309,6.8949,6.8396,6.7033,6.718,6.6152,6.5375,6.4744,6.3386,6.2793,6.2793,6.278,6.2618,6.2162,6.1393,6.0922,6.0512,5.9873,5.9874,6.0606,6.0781,6.1434,6.2052,6.2333,6.2357,6.2424,6.2458,6.2651,6.3081,6.3521,6.412,6.5009,6.4952,6.3966,6.2807,6.1687,6.0649,6.032,6.0984,6.1942,6.2195,6.2704,6.3108,6.3108,6.3064,6.2701,6.1924,5.9858,5.8712,5.8228,5.6402,5.5843,5.6175,5.6269,5.6646,5.733,5.7876,5.8303,5.9056,5.9985,6.0563,6.1014,6.1391,6.1492,6.1743,6.1943,6.2044,6.2275,6.2651,6.2752,6.2802,6.2802,6.2802,6.2902,6.3772,6.435,6.4626,6.5128,6.571,6.6022,6.5771,6.5576,6.5435,6.3813,6.0853,6.0736,6.2587,6.0071,5.8258,5.728,5.6966,5.7372,5.8115,5.9285,6.0588,6.1566,6.2244,6.2947,6.3613,6.4097,6.4528,6.4959,6.5388,6.574,6.6041,6.6716,6.7511,6.7808,6.8128,6.8767,6.9305,6.9402,6.9549,6.9574,6.9454,6.9141,6.8685,6.8084,6.77,6.759,6.6813,6.6029,6.5148,6.3827,6.3086,6.2866,6.2786,6.2679,6.2176,6.1231,6.0791,6.0753,6.0408,6.0105,6.1332,6.1637,6.1772,6.2391,6.2424,6.2424,6.2424,6.2492,6.2821,6.3386,6.3866,6.439,6.4768,6.4432,6.358,6.2436,6.1214,6.0963,6.1014,6.1672,6.2225,6.2495,6.2988,6.3108,6.3108,6.2934,6.2498,6.1287,5.99,5.874,5.787,5.6872,5.5892,5.6251,5.647,5.6771,5.7499,5.8001,5.8353,5.9106,5.9935,6.0537,6.104,6.0889,6.104,6.1311,6.1567,6.1893,6.2195,6.2651,6.2752,6.2802,6.2802,6.2802,6.2978,6.3898,6.4475,6.4726,6.5304,6.5886,6.6004,6.5727,6.5732,6.5548,6.439,6.1482,5.9485,6.0691,6.1235,6.0152,5.9179,5.8981,5.8769,5.9403,6.023,6.1535,6.2592,6.3229,6.3842,6.4427,6.4832,6.5135,6.5513,6.589,6.6166,6.6466,6.7213,6.7906,6.8227,6.862,6.928,6.967,6.9622,6.9526,6.9406,6.9214,6.8925,6.8516,6.8033,6.77,6.759,6.6849,6.6029,6.5221,6.4273,6.3503,6.2836,6.2793,6.2382,6.1689,6.1627,6.124,6.0713,6.0975,6.125,6.1467,6.2052,6.2255,6.2357,6.2424,6.2424,6.2458,6.256,6.3091,6.3656,6.4197,6.4533,6.4112,6.389,6.3271,6.2281,6.1448,6.1499,6.1882,6.2181,6.2555,6.2854,6.3018,6.3108,6.3108,6.317,6.2292,6.1082,5.9914,5.8697,5.7581,5.6307,5.6353,5.6451,5.6445,5.6947,5.7449,5.787,5.8252,5.8905,5.9885,6.0487,6.0889,6.0613,6.0814,6.116,6.1336,6.1868,6.24,6.2752,6.2777,6.2802,6.2802,6.2802,6.2952,6.3726,6.4475,6.4953,6.553,6.5818,6.5954,6.597,6.6046,6.5526,6.4319,6.245,6.1276,6.174,6.222,6.1143,6.0372,6.0753,6.0584,6.051,6.1439,6.2665,6.3587,6.4198,6.4731,6.511,6.5413,6.5664,6.5966,6.6316,6.6614,6.6938,6.7511,6.8079,6.8619,6.9109,6.9549,6.9695,6.9695,6.955,6.9358,6.8973,6.8661,6.8632,6.8265,6.77,6.7627,6.6813,6.6029,6.5148,6.3796,6.3019,6.2823,6.2793,6.2605,6.2429,6.1775,6.163,6.1899,6.1517,6.1689,6.1985,6.2289,6.2357,6.2424,6.2424,6.2424,6.2594,6.2922,6.3565,6.4309,6.4832,6.4945,6.4269,6.3792,6.252,6.1448,6.1639,6.2104,6.2525,6.2794,6.2914,6.3033,6.3108,6.3108,6.3257,6.3452,6.2631,6.2104,6.0625,5.9516,5.8706,5.6458,5.6258,5.6301,5.5917,5.6194,5.7129,5.77,5.8303,5.9689,6.0191,6.0392,6.0568,6.0788,6.1009,6.1235,6.1512,6.2074,6.2576,6.2802,6.2802,6.2802,6.2802,6.2802,6.3053,6.3726,6.4325,6.4802,6.543,6.5939,6.594,6.5632,6.5733,6.5702,6.4464,6.4062,6.2918,6.2579,6.2817,6.1828,6.1466,6.1909,6.2123,6.195,6.2538,6.3739,6.4325,6.4858,6.5236,6.5566,6.589,6.6166,6.6539,6.6838,6.7062,6.7387,6.7831,6.8373,6.8987,6.9329,6.9622,6.9695,6.9695,6.9502,6.931,6.8853,6.8468,6.8484,6.8374,6.77,6.759,6.6849,6.5852,6.4714,6.338,6.2793,6.2793,6.2793,6.2777,6.2711,6.2215,6.2194,6.2367,6.2018,6.1985,6.2357,6.2391,6.2424,6.2424,6.2424,6.2661,6.2922,6.3318,6.4062,6.484,6.52,6.5009,6.3998,6.2405,6.101,6.1253,6.1792,6.2435,6.2854,6.3048,6.3048,6.3108,6.3108,6.3108,6.3333,6.3663,6.3698,6.3184,6.1534,6.0717,5.9735,5.693,5.6049,5.6294,5.5993,5.6269,5.7305,5.8127,5.9106,6.0311,6.0367,6.0518,6.0713,6.0713,6.0939,6.1285,6.1718,6.2199,6.2576,6.2802,6.2802,6.2802,6.2802,6.2877,6.3279,6.3701,6.4103,6.4526,6.5258,6.6036,6.5681,6.518,6.5324,6.5628,6.542,6.5162,6.4671,6.4174,6.3604,6.2863,6.2491,6.2677,6.2854,6.28,6.3492,6.4647,6.504,6.5413,6.579,6.6191,6.6491,6.6815,6.7163,6.7435,6.7585,6.7979,6.8472,6.8938,6.9427,6.9622,6.9695,6.9671,6.9671,6.9406,6.9094,6.8611,6.8366,6.8498,6.8337,6.77,6.7627,6.6776,6.5411,6.398,6.3129,6.2749,6.2711,6.2758,6.2775,6.2674,6.2548,6.2387,6.2455,6.2296,6.2285,6.2424,6.2424,6.2424,6.2424,6.2424,6.2695,6.3217,6.3646,6.4434,6.5246,6.5362,6.4641,6.291,6.1603,6.0973,6.1194,6.1926,6.2584,6.3018,6.3108,6.3108,6.3108,6.3138,6.3168,6.3393,6.3607,6.3609,6.2885,6.1731,6.0604,5.9054,5.7425,5.5987,5.6493,5.6602,5.6646,5.7851,5.8805,5.991,6.0437,6.0442,6.0543,6.0688,6.0738,6.0864,6.1215,6.1743,6.2275,6.2676,6.2802,6.2802,6.2802,6.2802,6.2802,6.3103,6.3651,6.4099,6.4576,6.5183,6.581,6.5871,6.5515,6.5437,6.571,6.5843,6.5585,6.54,6.4812,6.4435,6.3865,6.3647,6.3678,6.3934,6.3922,6.453,6.5558,6.5847,6.6191,6.6641,6.6989,6.7188,6.7509,6.7782,6.8004,6.8127,6.857,6.9109,6.9402,6.9597,6.9646,6.9695,6.9574,6.9382,6.9069,6.8708,6.8295,6.8236,6.8482,6.8489,6.77,6.7554,6.6182,6.4634,6.3203,6.2903,6.2451,6.1951,6.2505,6.2671,6.2579,6.2102,6.204,6.2445,6.2434,6.2424,6.2424,6.2424,6.2424,6.2424,6.2424,6.299,6.3538,6.3988,6.4758,6.5236,6.5103,6.3986,6.2462,6.1433,6.1164,6.1852,6.2465,6.2928,6.3078,6.3108,6.3108,6.3108,6.3227,6.3452,6.3857,6.4441,6.4635,6.4452,6.3819,6.2321,6.0573,5.8342,5.7265,5.693,5.6033,5.6721,5.8359,5.9131,5.9809,6.0337,6.0468,6.0563,6.0663,6.0814,6.1014,6.1391,6.1943,6.245,6.2777,6.2802,6.2802,6.2802,6.2802,6.2802,6.2978,6.355,6.4124,6.4601,6.5082,6.5584,6.6018,6.5887,6.5664,6.5808,6.6011,6.5978,6.582,6.5541,6.5189,6.493,6.4718,6.4808,6.5411,6.563,6.5647,6.6418,6.6746,6.7089,6.7484,6.7732,6.788,6.7956,6.8153,6.8374,6.8644,6.9036,6.9427,6.9549,6.9695,6.9695,6.9574,6.9262,6.9045,6.8805,6.8537,6.8191,6.8364,6.8627,6.8656,6.77,6.748,6.5962,6.4781,6.3873,6.3076,6.2527,6.2176,6.2159,6.2116,6.2186,6.1968,6.2135,6.246,6.2426,6.2424,6.2424,6.2424,6.2424,6.2424,6.2821,6.3396,6.3883,6.4239,6.4606,6.4937,6.3648,6.2484,6.1901,6.1483,6.1389,6.2121,6.2734,6.3108,6.3108,6.3108,6.3108,6.3108,6.3333,6.3827,6.4351,6.4889,6.5368,6.5466,6.4823,6.3472,6.1618,5.9356,5.7987,5.7519,5.7109,5.7625,5.8981,5.9904,6.0362,6.0638,6.0738,6.0688,6.0788,6.0939,6.119,6.1517,6.2174,6.2727,6.2777,6.2802,6.2802,6.2802,6.2802,6.2802,6.2952,6.3425,6.3998,6.45,6.5011,6.547,6.5824,6.5912,6.5735,6.5657,6.5954,6.6283,6.6101,6.5821,6.5517,6.5377,6.5283,6.5518,6.6225,6.6958,6.7111,6.7311,6.7617,6.7707,6.7831,6.8152,6.8424,6.8497,6.8571,6.8914,6.9207,6.9451,6.9695,6.9695,6.9695,6.9695,6.9502,6.9117,6.8948,6.8826,6.8505,6.8154,6.8465,6.8771,6.885,6.7627,6.7327,6.6065,6.5296,6.4925,6.3554,6.2781,6.2649,6.2037,6.1682,6.1767,6.2378,6.2513,6.2406,6.2424,6.2424,6.2424,6.2424,6.2424,6.2753,6.3183,6.3903,6.4203,6.4248,6.4133,6.3522,6.2399,6.2043,6.1765,6.1525,6.1688,6.2241,6.2674,6.3108,6.3108,6.3138,6.3123,6.3407,6.3752,6.4366,6.48,6.5159,6.5637,6.5553,6.5128,6.392,6.2079,6.0288,5.8609,5.8215,5.8328,5.8805,5.9458,6.0331,6.0788,6.1065,6.104,6.1065,6.1115,6.1115,6.119,6.1441,6.23,6.2752,6.2802,6.2802,6.2802,6.2802,6.2802,6.2852,6.3023,6.3224,6.3797,6.45,6.499,6.5449,6.5729,6.6038,6.5965,6.5813,6.6109,6.6514,6.631,6.6031,6.5914,6.5775,6.5919,6.618,6.6629,6.739,6.7911,6.8192,6.85,6.8521,6.8447,6.8595,6.8963,6.9037,6.9134,6.9475,6.9695,6.9695,6.9695,6.9695,6.9695,6.9647,6.9358,6.8973,6.8851,6.87,6.842,6.816,6.8544,6.8848,6.9048,6.7327,6.6696,6.6366,6.5489,6.428,6.3791,6.3236,6.2698,6.3003,6.2855,6.2466,6.2877,6.3021,6.2424,6.2424,6.2424,6.2424,6.2424,6.2854,6.3318,6.3521,6.4377,6.4707,6.4123,6.3,6.2135,6.1567,6.1695,6.1599,6.1755,6.2211,6.2824,6.2898,6.3108,6.3108,6.3168,6.3303,6.3632,6.4051,6.4605,6.5503,6.5892,6.6221,6.6381,6.6587,6.4733,6.2816,6.1124,5.9793,5.9104,5.9006,5.9307,5.9809,6.0507,6.104,6.119,6.119,6.119,6.119,6.119,6.119,6.1291,6.2074,6.2777,6.2802,6.2802,6.2802,6.2802,6.2802,6.2802,6.2927,6.2978,6.345,6.4526,6.5237,6.5642,6.6028,6.6388,6.6587,6.6513,6.6574,6.6647,6.6473,6.6334,6.631,6.6313,6.6601,6.6915,6.7368,6.8013,6.8612,6.8922,6.9256,6.9451,6.9402,6.9231,6.9427,6.9549,6.9573,6.9646,6.9695,6.9695,6.9695,6.9695,6.9598,6.9478,6.9166,6.8781,6.856,6.8404,6.8213,6.8137,6.859,6.8953,6.918]},{"header":{"parameterUnit":"m.s-1","parameterCategory":1,"la1":31.0,"la2":29.5877,"lo1":-88.7671,"lo2":-86.6584,"dx":0.0162,"dy":0.0185,"nx":115,"ny":88,"refTime":"2022-11-07T18:00:00:Z","depth":0,"parameterNumber":3,"parameterNumberName":"V-component_of_WINDS"},"data":[0.0,0.0,0.0,0.0,0.0,0.0,0.0,0.0,0.0,0.0,0.0,0.0,0.0,0.0,0.0,0.0,0.0,0.0,0.0,0.0,0.0,0.0,0.0,0.0,0.0,0.0,0.0,0.0,0.0,0.0,0.0,0.0,0.0,0.0,0.0,0.0,0.0,0.0,0.0,0.0,0.0,0.0,0.0,0.0,0.0,0.0,0.0,0.0,0.0,0.0,0.0,0.0,0.0,0.0,0.0,0.0,0.0,0.0,0.0,0.0,0.0,0.0,0.0,0.0,0.0,0.0,0.0,0.0,0.0,0.0,0.0,0.0,0.0,0.0,0.0,0.0,0.0,0.0,0.0,0.0,0.0,0.0,0.0,0.0,0.0,0.0,0.0,0.0,0.0,0.0,0.0,0.0,0.0,0.0,0.0,0.0,0.0,0.0,0.0,0.0,0.0,0.0,0.0,0.0,0.0,0.0,0.0,0.0,0.0,0.0,0.0,0.0,0.0,0.0,0.0,0.0,0.0,0.0,0.0,0.0,0.0,0.0,0.0,0.0,0.0,0.0,0.0,0.0,0.0,0.0,0.0,0.0,0.0,0.0,0.0,0.0,0.0,0.0,0.0,0.0,0.0,0.0,0.0,0.0,0.0,0.0,0.0,0.0,0.0,0.0,0.0,0.0,0.0,0.0,0.0,0.0,0.0,0.0,0.0,0.0,0.0,0.0,0.0,0.0,0.0,0.0,0.0,0.0,0.0,0.0,0.0,0.0,0.0,0.0,0.0,0.0,0.0,0.0,0.0,0.0,0.0,0.0,0.0,0.0,0.0,0.0,0.0,0.0,0.0,0.0,0.0,0.0,0.0,0.0,0.0,0.0,0.0,0.0,0.0,0.0,0.0,0.0,0.0,0.0,0.0,0.0,0.0,0.0,0.0,0.0,0.0,0.0,0.0,0.0,0.0,0.0,0.0,0.0,0.0,0.0,0.0,0.0,0.0,0.0,0.0,0.0,0.0,0.0,0.0,0.0,0.0,0.0,0.0,0.0,0.0,0.0,0.0,0.0,0.0,0.0,0.0,0.0,0.0,0.0,0.0,0.0,0.0,0.0,0.0,0.0,0.0,0.0,0.0,0.0,0.0,0.0,0.0,0.0,0.0,0.0,0.0,0.0,0.0,0.0,0.0,0.0,0.0,0.0,0.0,0.0,0.0,0.0,0.0,0.0,0.0,0.0,0.0,0.0,0.0,0.0,0.0,0.0,0.0,0.0,0.0,0.0,0.0,0.0,0.0,0.0,0.0,0.0,0.0,0.0,0.0,0.0,0.0,0.0,0.0,0.0,0.0,0.0,0.0,0.0,0.0,0.0,0.0,0.0,0.0,0.0,0.0,0.0,0.0,0.0,0.0,0.0,0.0,0.0,0.0,0.0,0.0,0.0,0.0,0.0,0.0,0.0,0.0,0.0,0.0,0.0,0.0,0.0,0.0,0.0,0.0,0.0,0.0,0.0,0.0,0.0,0.0,0.0,0.0,0.0,0.0,0.0,0.0,0.0,0.0,0.0,0.0,0.0,0.0,0.0,0.0,0.0,0.0,0.0,0.0,0.0,0.0,0.0,0.0,0.0,0.0,0.0,0.0,0.0,0.0,0.0,0.0,0.0,0.0,0.0,0.0,0.0,0.0,0.0,0.0,0.0,0.0,0.0,0.0,0.0,0.0,0.0,0.0,0.0,0.0,0.0,0.0,0.0,0.0,0.0,0.0,0.0,0.0,0.0,0.0,0.0,0.0,0.0,0.0,0.0,0.0,0.0,0.0,0.0,0.0,0.0,0.0,0.0,0.0,0.0,0.0,0.0,0.0,0.0,0.0,0.0,0.0,0.0,0.0,0.0,0.0,0.0,0.0,0.0,0.0,0.0,0.0,0.0,0.0,0.0,0.0,0.0,0.0,0.0,0.0,0.0,0.0,0.0,0.0,0.0,0.0,0.0,0.0,0.0,0.0,0.0,0.0,0.0,0.0,0.0,0.0,0.0,0.0,0.0,0.0,0.0,0.0,0.0,0.0,0.0,0.0,0.0,0.0,0.0,0.0,0.0,0.0,0.0,0.0,0.0,0.0,0.0,0.0,0.0,0.0,0.0,0.0,0.0,0.0,0.0,0.0,0.0,0.0,0.0,0.0,0.0,0.0,0.0,0.0,0.0,0.0,0.0,0.0,0.0,0.0,0.0,0.0,0.0,0.0,0.0,0.0,0.0,0.0,0.0,0.0,0.0,0.0,0.0,0.0,0.0,0.0,0.0,0.0,0.0,0.0,0.0,0.0,0.0,0.0,0.0,0.0,0.0,0.0,0.0,0.0,0.0,0.0,0.0,0.0,0.0,0.0,0.0,0.0,0.0,0.0,0.0,0.0,0.0,0.0,0.0,0.0,0.0,0.0,0.0,0.0,0.0,0.0,0.0,0.0,0.0,0.0,0.0,0.0,0.0,0.0,0.0,0.0,0.0,0.0,0.0,0.0,0.0,0.0,0.0,0.0,0.0,0.0,0.0,0.0,0.0,0.0,0.0,0.0,0.0,0.0,0.0,0.0,0.0,0.0,0.0,0.0,0.0,0.0,0.0,0.0,0.0,0.0,0.0,0.0,0.0,0.0,0.0,0.0,0.0,0.0,0.0,0.0,0.0,0.0,0.0,0.0,0.0,0.0,0.0,0.0,0.0,0.0,0.0,0.0,0.0,0.0,0.0,0.0,0.0,0.0,0.0,0.0,0.0,0.0,0.0,0.0,0.0,0.0,0.0,0.0,0.0,0.0,0.0,0.0,0.0,0.0,0.0,0.0,0.0,0.0,0.0,0.0,0.0,0.0,0.0,0.0,0.0,0.0,0.0,0.0,0.0,0.0,0.0,0.0,0.0,0.0,0.0,0.0,0.0,0.0,0.0,0.0,0.0,0.0,0.0,0.0,0.0,0.0,0.0,0.0,0.0,0.0,0.0,0.0,0.0,0.0,0.0,0.0,0.0,0.0,0.0,0.0,0.0,0.0,0.0,0.0,0.0,0.0,0.0,0.0,0.0,0.0,0.0,0.0,0.0,0.0,0.0,0.0,0.0,0.0,0.0,0.0,0.0,0.0,0.0,0.0,0.0,0.0,0.0,0.0,0.0,0.0,0.0,0.0,0.0,0.0,0.0,0.0,0.0,0.0,0.0,0.0,0.0,0.0,0.0,0.0,0.0,0.0,0.0,0.0,0.0,0.0,0.0,0.0,0.0,0.0,0.0,0.0,0.0,0.0,0.0,0.0,0.0,0.0,0.0,0.0,0.0,0.0,0.0,0.0,0.0,0.0,0.0,0.0,0.0,0.0,0.0,0.0,0.0,0.0,0.0,0.0,0.0,0.0,0.0,0.0,0.0,0.0,0.0,0.0,0.0,0.0,0.0,0.0,0.0,0.0,0.0,0.0,0.0,0.0,0.0,0.0,0.0,0.0,0.0,0.0,0.0,0.0,0.0,0.0,0.0,0.0,0.0,0.0,0.0,0.0,0.0,0.0,0.0,0.0,0.0,0.0,0.0,0.0,0.0,0.0,0.0,0.0,0.0,0.0,0.0,0.0,0.0,0.0,0.0,0.0,0.0,0.0,0.0,0.0,0.0,0.0,0.0,0.0,0.0,0.0,0.0,0.0,0.0,0.0,0.0,0.0,0.0,0.0,0.0,0.0,0.0,0.0,0.0,0.0,0.0,0.0,0.0,0.0,0.0,0.0,0.0,0.0,0.0,0.0,0.0,0.0,0.0,0.0,0.0,0.0,0.0,0.0,0.0,0.0,0.0,0.0,0.0,0.0,0.0,0.0,0.0,0.0,0.0,0.0,0.0,0.0,0.0,0.0,0.0,0.0,0.0,0.0,0.0,0.0,0.0,0.0,0.0,0.0,0.0,0.0,0.0,0.0,0.0,0.0,0.0,0.0,0.0,0.0,0.0,0.0,0.0,0.0,0.0,0.0,0.0,0.0,0.0,0.0,0.0,0.0,0.0,0.0,0.0,0.0,0.0,0.0,0.0,0.0,0.0,0.0,0.0,0.0,0.0,0.0,0.0,0.0,0.0,0.0,0.0,0.0,0.0,0.0,0.0,0.0,0.0,0.0,0.0,0.0,0.0,0.0,0.0,0.0,0.0,0.0,0.0,0.0,0.0,0.0,0.0,0.0,0.0,0.0,0.0,0.0,0.0,0.0,0.0,0.0,0.0,0.0,0.0,0.0,0.0,0.0,0.0,0.0,0.0,2.2094,0.0,0.0,0.0,2.0106,0.0,0.0,0.0,0.0,0.0,0.0,0.0,0.0,0.0,0.0,0.0,0.0,0.0,0.0,0.0,0.0,0.0,0.0,0.0,0.0,0.0,0.0,0.0,0.0,0.0,0.0,0.0,0.0,0.0,0.0,0.0,0.0,0.0,0.0,0.0,0.0,0.0,0.0,0.0,0.0,0.0,0.0,0.0,0.0,0.0,0.0,0.0,0.0,0.0,0.0,0.0,0.0,0.0,0.0,0.0,0.0,0.0,0.0,0.0,0.0,0.0,0.0,0.0,0.0,0.0,0.0,0.0,0.0,0.0,0.0,0.0,0.0,0.0,0.0,0.0,0.0,0.0,0.0,0.0,0.0,0.0,0.0,0.0,0.0,0.0,0.0,0.0,0.0,0.0,0.0,0.0,0.0,0.0,0.0,0.0,0.0,0.0,0.0,0.0,0.0,0.0,0.0,0.0,0.0,0.0,0.0,0.0,0.0,0.0,0.0,2.152,2.0224,2.1819,2.1759,1.9832,0.0,0.0,0.0,0.0,0.0,0.0,0.0,0.0,0.0,0.0,0.0,0.0,0.0,0.0,0.0,0.0,0.0,0.0,0.0,0.0,0.0,0.0,0.0,0.0,0.0,0.0,0.0,0.0,0.0,0.0,0.0,0.0,0.0,0.0,0.0,0.0,0.0,0.0,0.0,0.0,0.0,0.0,0.0,0.0,0.0,0.0,0.0,0.0,0.0,0.0,0.0,0.0,0.0,0.0,0.0,0.0,0.0,0.0,0.0,0.0,0.0,0.0,0.0,0.0,0.0,0.0,0.0,0.0,0.0,0.0,0.0,0.0,0.0,0.0,0.0,0.0,0.0,0.0,0.0,0.0,0.0,0.0,0.0,0.0,0.0,0.0,0.0,0.0,0.0,0.0,0.0,0.0,0.0,0.0,0.0,0.0,0.0,0.0,0.0,0.0,0.0,0.0,0.0,0.0,0.0,0.0,0.0,0.0,0.0,0.0,0.0,0.0,2.2113,2.2293,2.0535,0.0,0.0,0.0,0.0,0.0,0.0,0.0,0.0,0.0,0.0,0.0,0.0,0.0,0.0,0.0,0.0,0.0,0.0,0.0,0.0,0.0,0.0,0.0,0.0,0.0,0.0,0.0,0.0,0.0,0.0,0.0,0.0,0.0,0.0,0.0,0.0,0.0,0.0,0.0,0.0,0.0,0.0,0.0,0.0,0.0,0.0,0.0,0.0,0.0,0.0,0.0,0.0,0.0,0.0,0.0,0.0,0.0,0.0,0.0,0.0,0.0,0.0,0.0,0.0,0.0,0.0,0.0,0.0,0.0,0.0,0.0,0.0,0.0,0.0,0.0,0.0,0.0,0.0,0.0,0.0,0.0,0.0,0.0,0.0,0.0,0.0,0.0,0.0,0.0,0.0,0.0,0.0,0.0,0.0,0.0,0.0,0.0,0.0,0.0,0.0,0.0,0.0,0.0,0.0,0.0,0.0,0.0,0.0,0.0,0.0,2.0387,2.149,2.1764,0.0,2.2404,0.0,0.0,0.0,0.0,0.0,0.0,0.0,0.0,0.0,0.0,0.0,0.0,0.0,0.0,0.0,0.0,0.0,0.0,0.0,0.0,0.0,0.0,0.0,0.0,0.0,0.0,0.0,0.0,0.0,0.0,0.0,0.0,0.0,0.0,0.0,0.0,0.0,0.0,0.0,0.0,0.0,0.0,0.0,0.0,0.0,0.0,0.0,0.0,0.0,0.0,0.0,0.0,0.0,0.0,0.0,0.0,0.0,0.0,0.0,0.0,0.0,0.0,0.0,0.0,0.0,0.0,0.0,0.0,0.0,0.0,0.0,0.0,0.0,0.0,0.0,0.0,0.0,0.0,0.0,0.0,0.0,0.0,0.0,0.0,0.0,0.0,0.0,0.0,0.0,0.0,0.0,0.0,0.0,0.0,0.0,0.0,0.0,0.0,0.0,0.0,0.0,0.0,0.0,0.0,0.0,0.0,0.0,0.0,0.0,0.0,2.1166,2.1704,2.1704,2.2034,0.0,0.0,0.0,0.0,0.0,0.0,0.0,0.0,0.0,0.0,0.0,0.0,0.0,0.0,0.0,0.0,0.0,0.0,0.0,0.0,0.0,0.0,0.0,0.0,0.0,0.0,0.0,0.0,0.0,0.0,0.0,0.0,0.0,0.0,0.0,0.0,0.0,0.0,0.0,0.0,0.0,0.0,0.0,0.0,0.0,0.0,0.0,0.0,0.0,0.0,0.0,0.0,0.0,0.0,0.0,0.0,0.0,0.0,0.0,0.0,0.0,0.0,0.0,0.0,0.0,0.0,0.0,0.0,0.0,0.0,0.0,0.0,0.0,0.0,0.0,0.0,0.0,0.0,0.0,0.0,0.0,0.0,0.0,0.0,0.0,0.0,0.0,0.0,0.0,0.0,0.0,0.0,0.0,0.0,0.0,0.0,0.0,0.0,0.0,0.0,0.0,0.0,0.0,0.0,0.0,0.0,0.0,0.0,0.0,0.0,2.1555,2.2113,2.2473,2.2323,2.2298,2.2423,0.0,0.0,0.0,0.0,0.0,0.0,0.0,0.0,0.0,0.0,0.0,0.0,0.0,0.0,0.0,0.0,0.0,0.0,0.0,0.0,0.0,0.0,0.0,0.0,0.0,0.0,0.0,0.0,0.0,0.0,0.0,0.0,0.0,0.0,0.0,0.0,0.0,0.0,0.0,0.0,0.0,0.0,0.0,0.0,0.0,0.0,0.0,0.0,0.0,0.0,0.0,0.0,0.0,0.0,0.0,0.0,0.0,0.0,0.0,0.0,0.0,0.0,0.0,0.0,0.0,0.0,0.0,0.0,0.0,0.0,0.0,0.0,0.0,0.0,0.0,0.0,0.0,0.0,0.0,0.0,0.0,0.0,0.0,0.0,0.0,0.0,0.0,0.0,0.0,0.0,0.0,0.0,0.0,0.0,0.0,0.0,0.0,0.0,0.0,0.0,0.0,0.0,0.0,0.0,0.0,0.0,0.0,0.0,2.3221,2.2877,2.3226,2.439,2.3838,2.2957,0.0,0.0,0.0,0.0,0.0,0.0,0.0,0.0,0.0,0.0,0.0,0.0,0.0,0.0,0.0,0.0,0.0,0.0,0.0,0.0,0.0,0.0,0.0,0.0,0.0,0.0,0.0,0.0,0.0,0.0,0.0,0.0,0.0,0.0,0.0,0.0,0.0,0.0,0.0,0.0,0.0,0.0,0.0,0.0,0.0,0.0,0.0,0.0,0.0,0.0,0.0,0.0,0.0,0.0,0.0,0.0,0.0,0.0,0.0,0.0,0.0,0.0,0.0,0.0,0.0,0.0,0.0,0.0,0.0,0.0,0.0,0.0,0.0,0.0,0.0,0.0,0.0,0.0,0.0,0.0,0.0,0.0,0.0,0.0,0.0,0.0,0.0,0.0,0.0,0.0,0.0,0.0,0.0,0.0,0.0,0.0,0.0,0.0,0.0,0.0,0.0,0.0,0.0,0.0,0.0,0.0,0.0,0.0,0.0,2.1076,2.1734,2.3281,2.5669,2.3615,2.2897,0.0,0.0,0.0,0.0,0.0,0.0,0.0,0.0,0.0,0.0,0.0,0.0,0.0,0.0,0.0,0.0,0.0,0.0,0.0,0.0,0.0,0.0,0.0,0.0,0.0,0.0,0.0,0.0,0.0,0.0,0.0,0.0,0.0,0.0,0.0,0.0,0.0,0.0,0.0,0.0,0.0,0.0,0.0,0.0,0.0,0.0,0.0,0.0,0.0,0.0,0.0,0.0,0.0,0.0,0.0,0.0,0.0,0.0,0.0,0.0,0.0,0.0,0.0,0.0,0.0,0.0,0.0,0.0,0.0,0.0,0.0,0.0,0.0,0.0,0.0,0.0,0.0,0.0,0.0,0.0,0.0,0.0,0.0,0.0,0.0,0.0,0.0,0.0,0.0,0.0,0.0,0.0,0.0,0.0,0.0,0.0,0.0,0.0,0.0,0.0,0.0,0.0,0.0,0.0,0.0,0.0,0.0,0.0,0.0,2.159,2.3136,2.4723,2.6099,2.3939,2.2902,0.0,0.0,0.0,0.0,0.0,0.0,0.0,0.0,0.0,0.0,0.0,0.0,0.0,0.0,0.0,0.0,0.0,0.0,0.0,0.0,0.0,0.0,0.0,0.0,0.0,0.0,0.0,0.0,0.0,0.0,0.0,0.0,0.0,0.0,0.0,0.0,0.0,0.0,0.0,0.0,0.0,0.0,0.0,0.0,0.0,0.0,0.0,0.0,0.0,0.0,0.0,0.0,0.0,0.0,0.0,0.0,0.0,0.0,0.0,0.0,0.0,0.0,0.0,0.0,0.0,0.0,0.0,0.0,0.0,0.0,0.0,0.0,0.0,0.0,0.0,0.0,0.0,0.0,0.0,0.0,0.0,0.0,0.0,0.0,0.0,0.0,0.0,0.0,0.0,0.0,0.0,0.0,0.0,0.0,0.0,0.0,0.0,0.0,0.0,0.0,0.0,0.0,0.0,0.0,0.0,0.0,0.0,0.0,2.168,2.5345,2.732,2.7386,2.5704,2.4909,2.3096,0.0,0.0,0.0,0.0,0.0,0.0,0.0,0.0,0.0,0.0,0.0,0.0,0.0,0.0,0.0,0.0,0.0,0.0,0.0,0.0,0.0,0.0,0.0,0.0,0.0,0.0,0.0,0.0,0.0,0.0,0.0,0.0,0.0,0.0,0.0,0.0,0.0,0.0,0.0,0.0,0.0,0.0,0.0,0.0,0.0,0.0,0.0,0.0,0.0,0.0,0.0,0.0,0.0,0.0,0.0,0.0,0.0,0.0,0.0,0.0,0.0,0.0,0.0,0.0,0.0,0.0,0.0,0.0,0.0,0.0,0.0,0.0,0.0,0.0,0.0,0.0,0.0,0.0,0.0,0.0,0.0,0.0,0.0,0.0,0.0,0.0,0.0,0.0,0.0,0.0,0.0,0.0,0.0,0.0,0.0,0.0,0.0,0.0,0.0,0.0,0.0,0.0,0.0,0.0,0.0,0.0,0.0,0.0,0.0,2.2981,2.528,2.6686,2.6884,2.4986,2.4237,0.0,0.0,0.0,0.0,0.0,0.0,0.0,0.0,0.0,0.0,0.0,0.0,0.0,0.0,0.0,0.0,0.0,0.0,0.0,0.0,0.0,0.0,0.0,0.0,0.0,0.0,0.0,0.0,0.0,0.0,0.0,0.0,0.0,0.0,0.0,0.0,0.0,0.0,0.0,0.0,0.0,0.0,0.0,0.0,0.0,0.0,0.0,0.0,0.0,0.0,0.0,0.0,0.0,0.0,0.0,0.0,0.0,0.0,0.0,0.0,0.0,0.0,0.0,0.0,0.0,0.0,0.0,0.0,0.0,0.0,0.0,0.0,0.0,0.0,0.0,0.0,0.0,0.0,0.0,0.0,0.0,0.0,0.0,0.0,0.0,0.0,0.0,0.0,0.0,0.0,0.0,0.0,0.0,0.0,0.0,0.0,0.0,0.0,0.0,0.0,0.0,0.0,0.0,0.0,0.0,0.0,0.0,0.0,0.0,2.4884,2.7446,2.8816,2.868,2.6345,2.5424,2.6153,0.0,0.0,0.0,0.0,0.0,0.0,0.0,0.0,0.0,0.0,0.0,0.0,0.0,0.0,0.0,0.0,0.0,0.0,0.0,0.0,0.0,0.0,0.0,0.0,0.0,0.0,0.0,0.0,0.0,0.0,0.0,0.0,0.0,0.0,0.0,0.0,0.0,0.0,0.0,0.0,0.0,0.0,0.0,0.0,0.0,0.0,0.0,0.0,0.0,0.0,0.0,0.0,0.0,0.0,0.0,0.0,0.0,0.0,0.0,0.0,0.0,0.0,0.0,0.0,0.0,0.0,0.0,0.0,0.0,0.0,0.0,0.0,0.0,0.0,0.0,0.0,0.0,0.0,0.0,0.0,0.0,0.0,0.0,0.0,0.0,0.0,0.0,0.0,0.0,0.0,0.0,0.0,0.0,0.0,0.0,0.0,0.0,0.0,0.0,0.0,0.0,0.0,0.0,0.0,0.0,0.0,0.0,0.0,2.9884,3.2931,3.323,3.0665,2.865,2.6752,0.0,0.0,0.0,0.0,0.0,0.0,0.0,0.0,0.0,0.0,0.0,0.0,0.0,0.0,0.0,0.0,0.0,0.0,0.0,0.0,0.0,0.0,0.0,0.0,0.0,0.0,0.0,0.0,0.0,0.0,0.0,0.0,0.0,0.0,0.0,0.0,0.0,0.0,0.0,0.0,0.0,0.0,0.0,0.0,0.0,0.0,0.0,0.0,0.0,0.0,0.0,0.0,0.0,0.0,0.0,0.0,0.0,0.0,0.0,0.0,0.0,0.0,0.0,0.0,0.0,0.0,0.0,0.0,0.0,0.0,0.0,0.0,0.0,0.0,0.0,0.0,0.0,0.0,0.0,0.0,0.0,0.0,0.0,0.0,0.0,0.0,0.0,0.0,0.0,0.0,0.0,0.0,0.0,0.0,0.0,0.0,0.0,0.0,0.0,0.0,0.0,0.0,0.0,0.0,0.0,0.0,0.0,0.0,0.0,3.3148,3.4548,3.4195,3.2004,2.9631,2.8105,0.0,0.0,0.0,0.0,0.0,0.0,0.0,0.0,0.0,0.0,0.0,0.0,0.0,0.0,0.0,0.0,0.0,0.0,0.0,0.0,0.0,0.0,0.0,0.0,0.0,0.0,0.0,0.0,0.0,0.0,0.0,0.0,0.0,0.0,0.0,0.0,0.0,0.0,0.0,0.0,0.0,0.0,0.0,0.0,0.0,0.0,0.0,0.0,0.0,0.0,0.0,0.0,0.0,0.0,0.0,0.0,0.0,0.0,0.0,0.0,0.0,0.0,0.0,0.0,0.0,0.0,0.0,0.0,0.0,0.0,0.0,0.0,0.0,0.0,0.0,0.0,0.0,0.0,0.0,0.0,0.0,0.0,0.0,0.0,0.0,0.0,0.0,0.0,0.0,0.0,0.0,0.0,0.0,0.0,0.0,0.0,0.0,0.0,0.0,0.0,0.0,0.0,0.0,0.0,0.0,0.0,0.0,0.0,3.2691,3.5655,3.6088,3.5631,3.4203,3.1622,2.985,0.0,0.0,0.0,0.0,0.0,0.0,0.0,0.0,0.0,0.0,0.0,0.0,0.0,0.0,0.0,0.0,0.0,0.0,0.0,0.0,0.0,0.0,0.0,0.0,0.0,0.0,0.0,0.0,0.0,0.0,0.0,0.0,0.0,0.0,0.0,0.0,0.0,0.0,0.0,0.0,0.0,0.0,0.0,0.0,0.0,0.0,0.0,0.0,0.0,0.0,0.0,0.0,0.0,0.0,0.0,0.0,0.0,0.0,0.0,0.0,0.0,0.0,0.0,0.0,0.0,0.0,0.0,0.0,0.0,0.0,0.0,0.0,0.0,0.0,0.0,0.0,0.0,0.0,0.0,0.0,0.0,0.0,0.0,0.0,0.0,0.0,0.0,0.0,0.0,0.0,0.0,0.0,0.0,0.0,0.0,0.0,0.0,0.0,0.0,0.0,0.0,0.0,0.0,0.0,0.0,0.0,0.0,0.0,3.4959,3.7426,3.7417,3.7135,3.6553,3.3993,3.1659,0.0,0.0,0.0,0.0,0.0,0.0,0.0,0.0,0.0,0.0,0.0,0.0,0.0,0.0,0.0,0.0,0.0,0.0,0.0,0.0,0.0,0.0,0.0,0.0,0.0,0.0,0.0,0.0,0.0,0.0,0.0,0.0,0.0,0.0,0.0,0.0,0.0,0.0,0.0,0.0,0.0,0.0,0.0,0.0,0.0,0.0,0.0,0.0,0.0,0.0,0.0,0.0,0.0,0.0,0.0,0.0,0.0,0.0,0.0,0.0,0.0,0.0,0.0,0.0,0.0,0.0,0.0,0.0,0.0,0.0,0.0,0.0,0.0,0.0,0.0,0.0,0.0,0.0,0.0,0.0,0.0,0.0,0.0,0.0,0.0,0.0,0.0,0.0,0.0,0.0,0.0,0.0,0.0,0.0,0.0,0.0,0.0,0.0,0.0,0.0,0.0,0.0,0.0,0.0,0.0,0.0,0.0,0.0,3.6088,3.8101,3.7674,3.7336,3.7225,3.4651,3.2108,0.0,0.0,0.0,0.0,0.0,0.0,0.0,0.0,0.0,0.0,0.0,0.0,0.0,0.0,0.0,0.0,0.0,0.0,0.0,0.0,0.0,0.0,0.0,0.0,0.0,0.0,0.0,0.0,0.0,0.0,0.0,0.0,0.0,0.0,0.0,0.0,0.0,0.0,0.0,0.0,0.0,0.0,0.0,0.0,0.0,0.0,0.0,0.0,3.0478,0.0,0.0,0.0,0.0,0.0,0.0,0.0,0.0,0.0,0.0,0.0,0.0,0.0,0.0,0.0,0.0,0.0,0.0,0.0,0.0,0.0,0.0,0.0,0.0,0.0,0.0,0.0,0.0,0.0,0.0,0.0,0.0,0.0,0.0,0.0,0.0,0.0,0.0,0.0,0.0,0.0,0.0,0.0,0.0,0.0,0.0,0.0,0.0,0.0,0.0,0.0,0.0,0.0,0.0,0.0,0.0,0.0,0.0,0.0,3.6926,3.8781,3.8524,3.8195,3.7823,3.6207,3.3664,0.0,0.0,0.0,0.0,0.0,0.0,0.0,0.0,0.0,0.0,0.0,0.0,0.0,0.0,0.0,0.0,0.0,0.0,0.0,0.0,0.0,0.0,0.0,0.0,0.0,0.0,0.0,0.0,0.0,0.0,0.0,0.0,0.0,0.0,0.0,0.0,0.0,0.0,0.0,0.0,0.0,0.0,0.0,0.0,0.0,0.0,0.0,0.0,0.0,0.0,0.0,0.0,0.0,0.0,0.0,0.0,0.0,0.0,0.0,0.0,0.0,0.0,0.0,0.0,0.0,0.0,0.0,0.0,0.0,0.0,0.0,0.0,0.0,0.0,0.0,0.0,0.0,0.0,0.0,0.0,0.0,0.0,0.0,0.0,0.0,0.0,0.0,0.0,0.0,0.0,0.0,0.0,0.0,0.0,0.0,0.0,0.0,0.0,0.0,0.0,0.0,0.0,0.0,0.0,0.0,0.0,0.0,3.5152,3.7593,3.9451,3.966,3.9409,3.873,3.7982,3.5383,3.0874,0.0,0.0,0.0,0.0,0.0,0.0,0.0,0.0,0.0,0.0,0.0,0.0,0.0,0.0,0.0,0.0,0.0,0.0,0.0,0.0,0.0,0.0,0.0,0.0,0.0,0.0,0.0,0.0,0.0,0.0,0.0,0.0,0.0,0.0,0.0,0.0,0.0,0.0,2.6709,2.9873,0.0,0.0,0.0,0.0,0.0,0.0,0.0,0.0,3.2325,0.0,0.0,0.0,0.0,0.0,0.0,0.0,0.0,0.0,0.0,0.0,0.0,0.0,0.0,0.0,0.0,0.0,0.0,0.0,0.0,0.0,0.0,0.0,0.0,0.0,0.0,0.0,0.0,0.0,0.0,0.0,0.0,0.0,0.0,0.0,0.0,0.0,0.0,0.0,0.0,0.0,0.0,0.0,0.0,0.0,0.0,0.0,0.0,0.0,0.0,0.0,0.0,0.0,0.0,0.0,0.0,3.5587,3.6716,3.8204,4.0178,4.0795,4.0735,4.0068,3.888,3.608,3.1607,0.0,0.0,0.0,0.0,0.0,0.0,0.0,0.0,0.0,0.0,0.0,0.0,0.0,0.0,0.0,0.0,0.0,0.0,0.0,0.0,0.0,0.0,0.0,0.0,0.0,0.0,0.0,0.0,0.0,0.0,0.0,0.0,0.0,0.0,0.0,0.0,0.0,0.0,0.0,3.3716,3.4883,0.0,0.0,0.0,0.0,0.0,0.0,0.0,0.0,3.305,0.0,0.0,0.0,0.0,0.0,0.0,0.0,0.0,0.0,0.0,0.0,0.0,0.0,0.0,0.0,0.0,0.0,0.0,0.0,0.0,0.0,0.0,0.0,0.0,0.0,0.0,0.0,0.0,0.0,0.0,0.0,0.0,0.0,0.0,0.0,0.0,0.0,0.0,0.0,0.0,0.0,0.0,0.0,0.0,0.0,0.0,0.0,0.0,0.0,0.0,0.0,0.0,0.0,0.0,0.0,3.4443,3.6907,3.874,3.9962,4.093,4.1244,4.0915,3.9619,3.7075,0.0,0.0,0.0,0.0,0.0,0.0,0.0,0.0,0.0,0.0,0.0,0.0,0.0,0.0,0.0,0.0,0.0,0.0,0.0,0.0,0.0,0.0,0.0,0.0,0.0,0.0,0.0,0.0,0.0,0.0,0.0,0.0,0.0,0.0,0.0,0.0,0.0,0.0,0.0,0.0,3.54,3.6507,3.7853,0.0,0.0,0.0,0.0,0.0,0.0,3.4629,3.3844,0.0,0.0,0.0,0.0,0.0,0.0,0.0,0.0,0.0,0.0,0.0,0.0,0.0,0.0,0.0,0.0,0.0,0.0,0.0,0.0,0.0,0.0,0.0,0.0,0.0,0.0,0.0,0.0,0.0,0.0,0.0,0.0,0.0,0.0,0.0,0.0,0.0,0.0,0.0,0.0,0.0,0.0,0.0,0.0,0.0,0.0,0.0,0.0,0.0,0.0,0.0,0.0,0.0,0.0,0.0,3.2733,3.6562,3.8995,3.9809,4.1096,4.1723,4.1583,4.0457,3.8063,0.0,0.0,0.0,0.0,0.0,0.0,0.0,0.0,0.0,0.0,0.0,0.0,0.0,0.0,0.0,0.0,0.0,0.0,0.0,0.0,0.0,0.0,0.0,0.0,0.0,0.0,0.0,0.0,0.0,0.0,0.0,0.0,0.0,0.0,0.0,0.0,0.0,0.0,0.0,0.0,0.0,3.811,3.9738,3.8212,0.0,0.0,0.0,0.0,3.7481,3.6883,0.0,0.0,0.0,0.0,0.0,0.0,0.0,0.0,0.0,0.0,0.0,0.0,0.0,0.0,0.0,0.0,0.0,0.0,0.0,0.0,0.0,0.0,0.0,0.0,0.0,0.0,0.0,0.0,0.0,0.0,0.0,0.0,0.0,0.0,0.0,0.0,0.0,0.0,0.0,0.0,0.0,0.0,0.0,0.0,0.0,0.0,0.0,0.0,0.0,0.0,0.0,0.0,0.0,0.0,0.0,0.0,3.2668,3.6088,3.8706,4.0454,4.2188,4.2841,4.2291,4.1553,3.8799,0.0,0.0,0.0,0.0,0.0,0.0,0.0,0.0,0.0,0.0,0.0,0.0,0.0,0.0,0.0,0.0,0.0,0.0,0.0,0.0,0.0,0.0,0.0,0.0,0.0,0.0,0.0,0.0,0.0,0.0,0.0,0.0,0.0,0.0,0.0,0.0,0.0,0.0,0.0,0.0,0.0,4.0296,3.882,3.8371,3.8362,0.0,0.0,4.0157,4.1512,4.2043,0.0,0.0,0.0,0.0,0.0,0.0,0.0,0.0,0.0,0.0,0.0,0.0,0.0,0.0,0.0,0.0,0.0,0.0,0.0,0.0,0.0,0.0,0.0,0.0,0.0,0.0,0.0,0.0,0.0,0.0,0.0,0.0,0.0,0.0,0.0,0.0,0.0,0.0,0.0,0.0,0.0,0.0,0.0,0.0,0.0,0.0,0.0,0.0,0.0,0.0,0.0,0.0,0.0,0.0,0.0,2.981,3.2331,3.6337,3.9002,4.021,4.2229,4.319,4.291,4.2301,3.9667,0.0,0.0,0.0,0.0,0.0,0.0,0.0,0.0,0.0,0.0,0.0,0.0,0.0,0.0,0.0,0.0,0.0,0.0,0.0,0.0,0.0,0.0,0.0,0.0,0.0,0.0,0.0,0.0,0.0,0.0,0.0,0.0,0.0,0.0,0.0,0.0,0.0,0.0,0.0,0.0,0.0,0.0,4.2781,4.1953,0.0,0.0,0.0,4.2392,4.3339,0.0,0.0,0.0,0.0,0.0,0.0,0.0,0.0,0.0,0.0,0.0,0.0,0.0,0.0,0.0,0.0,0.0,0.0,0.0,0.0,0.0,0.0,0.0,0.0,0.0,0.0,0.0,0.0,0.0,0.0,0.0,0.0,0.0,0.0,0.0,0.0,0.0,0.0,0.0,0.0,0.0,0.0,0.0,0.0,0.0,0.0,0.0,0.0,0.0,0.0,0.0,0.0,0.0,0.0,0.0,0.0,0.0,3.1791,3.6361,3.9135,3.9929,4.1833,4.3011,4.328,4.2851,0.0,0.0,0.0,0.0,0.0,0.0,0.0,0.0,0.0,0.0,0.0,0.0,0.0,0.0,0.0,0.0,0.0,0.0,0.0,0.0,0.0,0.0,0.0,0.0,0.0,0.0,0.0,2.4597,0.0,0.0,0.0,0.0,0.0,0.0,0.0,0.0,0.0,0.0,0.0,0.0,0.0,0.0,4.3529,4.5971,4.5354,4.5075,0.0,0.0,4.5254,4.5912,4.6181,4.5663,0.0,0.0,0.0,0.0,0.0,0.0,0.0,0.0,0.0,0.0,0.0,0.0,0.0,0.0,0.0,0.0,0.0,0.0,0.0,0.0,0.0,0.0,0.0,0.0,0.0,0.0,0.0,0.0,0.0,0.0,0.0,0.0,0.0,0.0,0.0,0.0,0.0,0.0,0.0,0.0,0.0,0.0,0.0,0.0,0.0,0.0,0.0,0.0,0.0,0.0,0.0,0.0,0.0,0.0,3.0281,3.1101,3.5722,3.8729,3.9891,4.1085,4.2214,4.326,4.324,4.0818,0.0,0.0,0.0,0.0,0.0,0.0,0.0,0.0,0.0,0.0,0.0,0.0,0.0,0.0,0.0,0.0,0.0,0.0,0.0,0.0,0.0,0.0,0.0,0.0,0.0,0.0,0.0,0.0,0.0,0.0,0.0,0.0,0.0,0.0,0.0,0.0,0.0,0.0,0.0,0.0,0.0,4.4058,4.6031,4.7249,4.8416,0.0,4.9788,4.9956,5.0619,5.1217,5.0014,4.5055,0.0,0.0,0.0,0.0,0.0,0.0,0.0,0.0,0.0,0.0,0.0,0.0,0.0,0.0,0.0,0.0,0.0,0.0,0.0,0.0,0.0,0.0,0.0,0.0,0.0,0.0,0.0,0.0,0.0,0.0,0.0,0.0,0.0,0.0,0.0,0.0,0.0,0.0,0.0,0.0,0.0,0.0,0.0,0.0,0.0,0.0,0.0,0.0,0.0,0.0,0.0,0.0,0.0,3.0299,3.0945,3.5657,3.8682,3.9863,4.1011,4.2142,4.327,4.329,4.1595,0.0,0.0,0.0,0.0,0.0,0.0,0.0,0.0,0.0,0.0,0.0,0.0,0.0,0.0,0.0,0.0,0.0,0.0,0.0,0.0,0.0,0.0,0.0,0.0,0.0,0.0,0.0,0.0,3.0246,3.0552,2.9338,0.0,0.0,0.0,0.0,0.0,0.0,0.0,0.0,0.0,0.0,4.7589,4.9112,4.9751,0.0,0.0,5.1367,5.1187,5.2276,5.1301,4.9864,4.8185,4.6202,0.0,0.0,0.0,0.0,0.0,0.0,0.0,0.0,0.0,0.0,0.0,0.0,0.0,0.0,0.0,0.0,0.0,0.0,0.0,0.0,0.0,0.0,0.0,0.0,0.0,0.0,1.3806,1.3802,0.0,0.0,0.0,0.0,0.0,0.0,0.0,0.0,0.0,0.0,0.0,0.0,0.0,0.0,0.0,0.0,0.0,0.0,0.0,0.0,0.0,0.0,0.0,0.0,2.9996,3.0596,3.5185,3.8334,3.9863,4.0671,4.1802,4.323,4.329,4.2074,3.9481,0.0,0.0,0.0,0.0,0.0,0.0,0.0,0.0,0.0,0.0,0.0,0.0,0.0,0.0,0.0,0.0,0.0,0.0,0.0,0.0,0.0,0.0,0.0,0.0,0.0,0.0,0.0,3.1316,3.1442,3.029,0.0,0.0,0.0,0.0,0.0,0.0,0.0,0.0,0.0,0.0,5.0182,5.1834,5.1935,5.2217,5.3336,5.2366,5.1828,5.2767,5.151,5.0343,4.9991,0.0,0.0,0.0,0.0,0.0,0.0,0.0,0.0,0.0,0.0,0.0,0.0,0.0,0.0,0.0,0.0,0.0,0.0,0.0,0.0,0.0,0.0,0.0,0.0,0.0,0.0,0.0,1.3151,0.0,0.0,1.4875,0.0,0.0,0.0,0.0,0.0,0.0,0.0,0.0,0.0,0.0,0.0,0.0,0.0,0.0,0.0,0.0,0.0,0.0,0.0,0.0,0.0,0.0,2.9371,2.9887,3.4248,3.7589,3.9798,3.9918,4.1021,4.32,4.329,4.2074,3.9481,0.0,0.0,0.0,0.0,0.0,0.0,0.0,0.0,0.0,0.0,0.0,0.0,0.0,0.0,0.0,0.0,0.0,0.0,0.0,0.0,0.0,0.0,0.0,0.0,0.0,0.0,2.6147,2.866,3.0814,0.0,0.0,0.0,0.0,0.0,0.0,0.0,0.0,0.0,4.7369,4.9333,5.1164,5.376,5.3575,5.3456,5.4119,5.3114,5.2247,5.2336,5.2737,5.227,0.0,0.0,0.0,0.0,0.0,0.0,0.0,0.0,0.0,0.0,0.0,0.0,0.0,0.0,0.0,0.0,0.0,0.0,0.0,0.0,0.0,0.0,0.0,0.0,0.0,0.0,0.0,1.4601,1.4367,0.0,0.0,0.0,0.0,0.0,0.0,0.0,0.0,0.0,0.0,0.0,2.7293,2.8047,0.0,0.0,0.0,0.0,0.0,0.0,0.0,0.0,0.0,0.0,0.0,0.0,2.9872,3.0497,3.4321,3.7543,3.9798,3.9885,4.0997,4.322,4.329,4.2074,3.9481,0.0,0.0,0.0,0.0,0.0,0.0,0.0,0.0,0.0,0.0,0.0,0.0,0.0,0.0,0.0,0.0,0.0,0.0,0.0,0.0,0.0,0.0,0.0,0.0,0.0,2.8919,0.0,0.0,0.0,0.0,0.0,0.0,0.0,0.0,0.0,0.0,4.2761,4.6621,4.9202,5.1475,5.3533,5.5281,5.5354,5.5401,0.0,0.0,0.0,0.0,0.0,0.0,0.0,0.0,0.0,0.0,0.0,0.0,0.0,5.2935,5.2187,4.695,4.5264,4.5005,4.6103,0.0,0.0,0.0,0.0,0.0,0.0,0.0,0.0,0.0,0.0,0.0,0.0,0.0,0.0,1.6161,1.608,1.608,0.0,0.0,0.0,0.0,0.0,0.0,0.0,0.0,2.7629,2.8834,2.9543,3.0271,3.0457,3.0105,2.9572,2.8773,0.0,0.0,0.0,0.0,0.0,0.0,0.0,0.0,3.0681,3.1823,3.4988,3.7701,3.9782,3.9885,4.0997,4.321,4.329,4.2492,4.0818,3.946,3.7973,0.0,0.0,0.0,0.0,0.0,0.0,0.0,0.0,0.0,0.0,0.0,0.0,0.0,0.0,0.0,0.0,0.0,0.0,0.0,0.0,0.0,0.0,0.0,3.1487,0.0,0.0,0.0,0.0,0.0,0.0,0.0,0.0,0.0,4.2263,4.6322,5.0032,5.2025,5.379,5.5281,5.6359,0.0,0.0,0.0,0.0,0.0,0.0,0.0,5.4269,5.6256,5.5012,5.4007,5.476,5.6761,5.7899,5.6731,0.0,0.0,5.2474,5.0661,5.0552,5.2049,5.2306,5.2833,5.4581,5.585,5.6701,0.0,0.0,0.0,0.0,1.5461,0.0,0.0,0.0,1.7522,1.7753,0.0,1.8137,0.0,0.0,0.0,0.0,2.3341,2.6013,0.0,0.0,3.1125,3.2219,3.2265,3.2305,3.2871,3.3861,3.338,3.314,3.2982,2.9996,2.7979,0.0,0.0,0.0,0.0,0.0,3.1777,3.3897,3.6093,3.8105,3.9859,3.994,4.0986,4.32,4.329,4.33,4.321,4.0887,3.9481,3.9284,3.2271,0.0,0.0,0.0,0.0,0.0,0.0,0.0,0.0,0.0,0.0,0.0,0.0,0.0,0.0,0.0,0.0,0.0,0.0,0.0,0.0,3.2871,0.0,0.0,0.0,0.0,0.0,0.0,0.0,0.0,0.0,4.9489,4.7807,4.9841,5.2564,5.57,0.0,0.0,0.0,0.0,5.6402,5.6521,5.591,5.576,5.6402,5.7393,5.8367,5.9115,0.0,0.0,5.8803,6.0505,6.1164,5.8035,6.0116,6.1583,5.9578,5.7064,5.6047,5.7739,5.7257,5.739,5.9681,6.1447,6.2974,1.7659,0.0,0.0,0.0,0.0,1.7266,1.8192,1.9686,1.9686,1.9565,1.9397,1.9379,0.0,0.0,0.0,0.0,0.0,0.0,2.9459,3.125,3.1918,3.2832,3.3986,3.4366,3.4717,3.5043,3.5314,3.5452,3.5429,3.4903,3.2336,2.7957,0.0,0.0,0.0,0.0,3.4014,3.5068,3.686,3.8652,4.0432,4.0487,4.1362,4.323,4.329,4.329,4.33,4.2582,4.1335,3.949,3.904,0.0,0.0,0.0,0.0,0.0,0.0,0.0,0.0,0.0,0.0,0.0,0.0,0.0,0.0,0.0,0.0,0.0,0.0,0.0,3.1966,3.6387,3.867,0.0,0.0,0.0,0.0,0.0,0.0,0.0,0.0,0.0,5.3426,5.467,5.5598,0.0,0.0,5.7799,5.8441,5.9189,6.0027,6.0982,6.0952,0.0,6.1088,6.022,6.0206,6.2271,6.3842,6.459,6.3872,6.4395,6.4411,6.2915,6.3499,6.3962,6.3393,6.2016,6.1088,6.1537,6.1672,6.2121,6.3334,6.4441,6.5203,1.9502,1.845,1.7952,1.8242,1.9013,1.9032,1.9902,2.1348,2.1338,2.1259,2.1201,2.1357,2.1095,2.0605,2.2411,0.0,0.0,0.0,3.1717,3.3197,3.3434,3.4039,3.5004,3.5357,3.5734,3.6158,3.6331,3.6733,3.7387,3.7462,3.5495,3.159,0.0,3.2503,3.252,3.4393,3.5881,3.6836,3.7839,3.9222,4.1066,4.2037,4.3026,4.4016,4.3818,4.3698,4.3688,4.3449,4.2582,4.1046,4.2463,4.1216,0.0,0.0,0.0,0.0,0.0,0.0,0.0,0.0,0.0,0.0,0.0,2.9325,2.6949,0.0,0.0,0.0,3.4248,3.5745,3.8503,4.1773,0.0,0.0,0.0,0.0,0.0,0.0,0.0,5.0212,5.3054,5.5491,5.7479,5.8767,5.9172,5.8245,5.9039,5.9744,5.9863,0.0,6.1778,6.257,6.3123,6.3542,6.3797,6.3303,6.3378,6.4919,6.5832,6.6251,6.6041,6.6011,6.5757,6.5203,6.5218,6.5398,6.5398,6.5144,6.4934,6.468,6.4695,6.5173,6.6325,6.6714,6.6909,2.0889,2.1151,2.0,1.997,2.0703,2.0781,2.1455,2.2548,2.2615,2.288,2.3229,2.3672,2.3288,2.251,2.5223,0.0,3.2357,3.3552,3.4363,3.4904,3.5408,3.567,3.5695,3.5759,3.6309,3.7336,3.6871,3.7449,3.8869,3.8404,3.765,3.6695,3.6158,3.6442,3.7402,3.6945,3.7411,3.8919,3.8957,3.9869,4.1745,4.4075,4.5274,4.5274,4.4696,4.4356,4.4377,4.3788,4.3449,4.3389,4.3321,4.2208,3.9946,0.0,0.0,0.0,0.0,0.0,0.0,0.0,0.0,0.0,0.0,0.0,0.0,0.0,0.0,3.861,4.319,0.0,4.8008,4.7788,0.0,0.0,0.0,4.5343,4.6988,4.9811,5.2384,5.4418,0.0,0.0,6.04,6.2106,6.2884,6.1658,6.1942,6.2032,6.1419,6.2047,6.2525,6.2929,6.3707,6.4665,6.5398,6.6251,6.6954,6.7194,6.7284,6.7194,6.664,6.655,6.6176,6.5622,6.5847,6.6265,6.6251,6.7178,6.7898,6.7194,6.667,6.6819,6.8375,6.8511,6.86,2.1318,2.1699,2.1406,2.1417,2.1652,2.2297,2.2715,2.3025,2.3658,2.4001,2.4098,2.4207,2.4994,2.639,2.9119,3.139,3.3259,3.5001,3.6105,3.6584,3.6734,3.701,3.7413,3.7852,3.8228,3.8517,3.8781,3.9132,3.9471,3.9371,3.917,3.8931,3.9182,3.8441,3.6792,3.8151,3.9107,3.9509,3.9509,4.0402,4.2283,4.4275,4.5274,4.5274,4.5155,4.5065,4.5065,4.4905,4.4576,4.4087,4.3569,4.303,4.2382,3.7883,0.0,0.0,0.0,0.0,0.0,0.0,0.0,0.0,0.0,3.6006,3.2459,0.0,3.8302,0.0,4.8338,5.0092,4.7078,4.8424,0.0,0.0,4.9295,4.9804,5.4054,5.4803,5.597,5.8424,6.0416,6.1986,6.2929,6.4366,6.5188,6.4874,6.4096,6.3512,6.3378,6.4784,6.6221,6.7059,6.7478,6.7851,6.8016,6.8286,6.8675,6.9199,6.9632,6.9752,6.9139,6.9453,6.9347,6.833,6.8166,6.8286,6.8256,6.8585,6.8704,6.8555,6.8405,6.8405,6.8944,6.9602,7.029,2.1651,2.245,2.2656,2.2745,2.2775,2.3027,2.3348,2.3716,2.4207,2.4414,2.441,2.4801,2.6299,2.8617,3.0126,3.1612,3.3071,3.4993,3.6026,3.6346,3.7156,3.7839,3.8404,3.8743,3.9007,3.9271,3.9559,3.971,3.9722,3.9948,4.0074,4.0074,4.0588,4.0098,3.8693,3.9572,3.9948,3.971,4.0262,4.1335,4.2924,4.4525,4.5314,4.5324,4.5593,4.5473,4.4875,4.5135,4.4746,4.3519,4.2991,4.2782,4.2811,3.9445,3.8147,0.0,0.0,0.0,0.0,0.0,0.0,0.0,0.0,0.0,0.0,0.0,4.2601,4.5503,5.102,5.305,4.9689,5.1983,5.3862,5.4343,5.3952,5.4922,5.8095,5.8664,5.9502,6.1238,6.26,6.3663,6.4381,6.5862,6.6759,6.649,6.6595,6.6356,6.5637,6.6595,6.7822,6.8824,6.9243,6.9662,7.0171,7.0021,6.9961,7.032,7.0679,7.0769,7.047,7.044,7.0231,6.9602,6.9423,6.9542,6.9782,7.0111,7.035,7.0679,7.0739,7.05,6.9991,7.0889,7.186,2.1735,2.3042,2.3464,2.3759,2.3937,2.3591,2.3845,2.45,2.4617,2.4684,2.4793,2.5601,2.7257,2.9432,2.9694,3.0648,3.2228,3.4249,3.5281,3.5487,3.7283,3.8417,3.8994,3.8982,3.9283,3.9798,3.9798,3.9835,3.9923,4.0387,4.0613,4.0638,4.1152,4.1364,4.1289,4.0914,4.0362,3.9735,4.0892,4.2123,4.333,4.4618,4.5379,4.5571,4.6191,4.6072,4.5025,4.5484,4.4996,4.3259,4.2941,4.2842,4.292,4.308,4.2382,0.0,4.0277,0.0,0.0,0.0,0.0,0.0,0.0,0.0,0.0,4.7001,4.7303,4.7295,5.2744,5.5689,5.431,5.6726,5.8201,5.7824,5.8774,5.9757,6.0519,6.1702,6.2764,6.3527,6.465,6.5398,6.5518,6.7134,6.8122,6.7732,6.9079,6.9588,6.8241,6.8301,6.89,6.9393,6.9977,7.0859,7.1653,7.1487,7.1158,7.1172,7.1351,7.1248,7.1218,7.0889,7.0597,7.0731,7.0649,7.0703,7.1314,7.1896,7.2312,7.2774,7.3073,7.2817,7.1787,7.2295,7.3343,2.0985,2.2539,2.2623,2.3507,2.4867,2.5105,2.5105,2.5024,2.5715,2.6198,2.6537,2.7083,2.759,2.8164,2.9544,3.0563,3.1387,3.3996,3.5638,3.6497,3.8024,3.9007,3.9534,3.9546,3.9823,4.035,4.0362,4.0575,4.1001,4.1088,4.1138,4.1177,4.1744,4.1795,4.1339,0.0,0.0,0.0,4.0515,4.1507,4.2692,4.4038,4.5456,4.6866,4.7549,0.0,4.836,4.8479,4.8139,4.723,4.7135,0.0,4.5593,0.0,0.0,0.0,0.0,0.0,0.0,0.0,0.0,0.0,4.6456,4.6945,4.7835,5.081,5.268,5.2726,5.5709,5.821,5.9391,6.002,6.0608,6.104,6.1357,6.1972,6.3109,6.3977,6.4919,6.6116,6.6954,6.7433,6.7523,6.9123,7.0097,6.9618,7.1128,7.2146,7.1787,7.1278,7.1384,7.2026,7.2206,7.2415,7.2684,7.2624,7.2518,7.2578,7.3013,7.3107,7.2671,7.2944,7.3463,7.3955,7.3248,7.2819,7.4096,7.3978,7.3616,7.3719,7.4587,7.4929,7.3642,7.3958,7.4736,2.0455,2.1734,2.2112,2.3082,0.0,2.502,2.5564,2.6055,2.6504,2.6921,2.7344,2.7572,2.7813,2.8054,2.9126,2.9735,3.014,3.3393,3.5184,3.5776,3.8185,3.9446,3.9697,3.9973,4.0236,4.0512,4.0775,4.1051,4.1314,4.1592,4.1731,4.1756,4.2311,4.2462,4.2144,4.2171,4.1507,4.0111,4.0211,4.1144,4.2944,4.3703,4.4939,4.6723,4.7788,0.0,0.0,0.0,0.0,0.0,0.0,0.0,0.0,4.5334,4.4966,4.5245,4.4347,4.4058,4.4715,4.5683,4.7369,5.0014,5.1151,5.1561,5.1193,5.4205,5.5951,5.5706,5.8845,6.0975,6.1068,6.2838,6.3916,6.3667,6.4496,6.5374,6.6004,6.6598,6.7089,6.7493,6.8391,6.899,6.9005,7.0366,7.1368,7.1487,7.2535,7.3436,7.3343,7.2804,7.2654,7.3313,7.3702,7.3881,7.3881,7.3881,7.3898,7.4009,7.4831,7.4995,7.4093,7.4818,7.5526,7.5221,7.4664,7.4703,7.5341,7.5418,7.5593,7.6311,7.6464,7.671,7.68,7.6468,7.5916,1.9925,2.0886,2.1548,2.2461,2.352,2.4229,2.5397,2.6866,2.7033,0.0,0.0,2.7878,2.8099,2.8431,2.8834,2.9082,2.9372,3.292,3.4634,3.4895,3.8178,3.976,3.9873,4.0287,4.0613,4.0827,4.1252,4.1503,4.1628,4.211,4.2363,4.2375,4.2788,4.3,4.2964,4.2475,4.1733,4.0827,4.0087,4.0767,4.2898,4.3115,4.4192,4.6275,4.7588,4.8194,4.8027,4.9056,4.8876,4.7277,4.7687,4.7687,4.7067,4.7616,4.8416,4.9366,4.9666,5.0103,5.0697,5.1475,5.2486,5.3797,5.5012,5.5418,5.4748,5.6899,5.8375,5.8507,6.2167,6.4032,6.3061,6.5945,6.7643,6.659,6.7831,6.8782,6.8898,6.9002,6.8974,6.8856,6.9708,7.0396,7.0592,7.1862,7.2715,7.31,7.3951,7.452,7.4409,7.3864,7.3492,7.4001,7.4437,7.4929,7.5235,7.495,7.504,7.5365,7.6514,7.6837,7.5809,7.6776,7.735,7.6176,7.6369,7.6976,7.7026,7.733,7.7936,7.9271,7.8333,7.7745,7.9505,7.8712,7.737,1.9012,2.0266,2.0576,2.1462,2.2713,2.3207,2.4481,2.6298,2.7203,2.7826,2.8236,2.858,2.8756,2.8834,2.9291,2.9696,3.0212,3.3208,3.4814,3.5363,3.831,3.9948,4.0387,4.0462,4.1003,4.1922,4.2048,4.2311,4.2724,4.285,4.2889,4.2889,4.2964,4.3,4.2964,4.2475,4.2123,4.1922,4.045,4.0134,4.0988,4.156,4.3329,4.6247,4.7601,4.9016,5.0591,5.0799,5.0799,5.0518,5.0607,5.0338,4.9729,5.0249,5.0488,5.0189,5.1128,5.2079,5.2737,5.3922,5.5179,5.6436,5.7261,5.741,5.6817,5.8143,6.0426,6.365,6.5665,6.7703,6.9573,7.0836,7.1477,7.1283,7.1038,7.1104,7.1569,7.0627,7.0277,7.1115,7.1504,7.1879,7.2589,7.4288,7.5085,7.4466,7.5443,7.6697,7.6419,7.555,7.4749,7.4736,7.4826,7.5472,7.6351,7.5745,7.5755,7.6782,7.78,7.8074,7.6484,7.8967,8.0443,7.8973,7.984,8.0744,8.0855,8.0384,8.0222,8.0449,7.9584,7.9205,8.0267,7.9857,7.9244,1.8482,1.9232,1.9513,2.0485,2.1869,2.3028,2.4634,2.6407,2.6933,2.7736,2.8631,2.9096,2.9291,2.933,2.9741,3.0034,3.0309,3.2693,3.4337,3.5448,3.7826,3.9501,4.0498,4.1128,4.1683,4.2213,4.25,4.2763,4.2975,4.3,4.3,4.3,4.3,4.3,4.2975,4.2763,4.25,4.2199,4.1128,4.118,4.2455,4.2781,4.4497,4.7705,4.8356,4.9431,5.1129,5.1217,5.1217,5.1217,5.1217,5.1206,5.1307,5.1576,5.1756,5.1846,5.2743,5.3414,5.3725,5.4982,5.6132,5.7017,5.7709,5.8308,5.8723,6.0302,6.2523,6.5538,6.7647,6.9543,7.1284,7.3086,7.4206,7.4249,7.382,7.3659,7.3743,7.2574,7.1819,7.2355,7.2774,7.3456,7.4593,7.5987,7.7081,7.6967,7.7504,7.7354,7.7354,7.6733,7.6233,7.6149,7.5523,7.5661,7.6978,7.712,7.7504,7.899,8.0612,8.0823,7.9719,8.19,8.2785,8.176,8.2366,8.2939,8.3082,8.2699,8.2544,8.2789,8.2609,8.2512,8.2965,8.2534,8.1392,1.8356,1.8611,1.8905,1.975,2.1023,2.2674,2.4504,2.6261,2.6748,2.7805,2.9133,2.957,2.9721,2.976,3.017,3.0351,3.062,3.2265,3.3755,3.5088,3.7272,3.9029,4.0368,4.1593,4.2263,4.24,4.2813,4.3,4.3,4.3,4.3,4.3,4.3,4.3,4.3,4.3,4.2788,4.2375,4.1907,4.2346,4.3622,4.3792,4.543,4.8506,4.8934,4.9816,5.1506,5.1636,5.1666,5.1666,5.1786,5.2115,5.2636,5.2935,5.3336,5.3875,5.464,5.5166,5.5346,5.6406,5.7257,5.7736,5.8397,5.9474,6.1102,6.2567,6.4449,6.6838,6.9457,7.1441,7.2906,7.4993,7.6558,7.6725,7.6445,7.6292,7.6312,7.5122,7.4036,7.385,7.4262,7.5106,7.5942,7.7109,7.8486,7.9678,7.9035,7.8231,7.8344,7.8359,7.8402,7.8326,7.7292,7.7035,7.8112,7.8823,7.9874,8.1453,8.32,8.335,8.2903,8.4231,8.5213,8.4114,8.4643,8.5345,8.5241,8.5115,8.5213,8.5406,8.4901,8.4824,8.4967,8.4366,8.2989,1.8823,1.8917,1.9213,1.9567,2.0121,2.154,2.3275,2.5183,2.6877,2.8595,2.9902,3.0117,3.0137,3.0195,3.0625,3.0801,3.0932,3.2395,3.3373,3.419,3.693,3.8871,3.9958,4.145,4.2475,4.285,4.2975,4.3,4.3,4.3025,4.3,4.3,4.3,4.3025,4.3,4.3,4.2989,4.2939,4.2889,4.2693,4.2427,4.2856,4.4718,4.8065,4.8659,5.0205,5.2698,5.3007,5.3019,5.3067,5.3563,5.391,5.4089,5.5132,5.5833,5.5923,5.7034,5.8008,5.859,5.9352,5.9681,5.9847,6.0386,6.1783,6.4118,6.465,6.6024,6.8696,7.1551,7.3711,7.6178,7.7699,7.8749,7.9394,7.8949,7.8916,7.9238,7.8852,7.7677,7.6141,7.6424,7.6591,7.6113,7.8076,8.021,8.1752,8.1102,8.061,8.1192,8.1362,8.1508,8.1988,8.1313,8.0755,8.1263,8.1566,8.2375,8.3786,8.4804,8.4889,8.4698,8.6168,8.8041,8.6494,8.7385,8.8728,8.842,8.8321,8.7929,8.7224,8.6206,8.4792,8.4483,8.458,8.3738,1.9025,1.92,1.9348,1.9562,1.9918,2.0618,2.2051,2.395,2.5714,2.747,2.9177,3.0166,3.0605,3.0639,3.0801,3.0913,3.0971,3.1787,3.272,3.3791,3.5656,3.7636,3.9765,4.0761,4.1829,4.2933,4.3,4.3,4.3051,4.3302,4.3478,4.3478,4.3463,4.3463,4.3452,4.3151,4.3,4.3,4.3302,4.3528,4.3653,4.3826,4.5137,4.7535,4.8777,5.0129,5.1783,5.2704,5.3198,5.3228,5.3832,5.4401,5.479,5.5713,5.6539,5.729,5.856,5.9578,6.0236,6.0521,6.0715,6.0685,6.1313,6.2359,6.3757,6.4568,6.6208,6.8884,7.0735,7.2804,7.5818,7.7542,7.9042,8.0412,8.0481,8.0381,8.0588,7.9088,7.7889,7.8187,7.7729,7.7965,7.9188,8.1209,8.2802,8.3418,8.2867,8.2611,8.2836,8.3153,8.3293,8.337,8.4063,8.4485,8.3756,8.3807,8.4769,8.6115,8.7151,8.7202,8.7622,8.824,8.9375,8.8675,8.9919,9.0669,9.0284,8.9274,8.8601,8.8319,8.8425,8.7263,8.6696,8.6655,8.5689,1.9212,1.9508,1.9602,1.9773,2.0054,2.0267,2.1703,2.387,2.5215,2.6982,2.9109,3.0377,3.0913,3.0913,3.0913,3.0913,3.0972,3.1313,3.2142,3.337,3.4599,3.6684,3.9258,4.022,4.1434,4.2779,4.3,4.3,4.3025,4.3377,4.3639,4.3765,4.379,4.379,4.3779,4.3388,4.3201,4.3251,4.3614,4.4141,4.4729,4.4869,4.5784,4.7691,4.9224,5.0451,5.1535,5.2976,5.3857,5.4037,5.464,5.5286,5.5944,5.6628,5.7573,5.8833,5.9997,6.0864,6.1329,6.1553,6.1628,6.1672,6.2121,6.281,6.3855,6.4942,6.6718,6.9149,7.0115,7.2019,7.5157,7.7568,7.9515,8.1067,8.1459,8.181,8.1931,8.0264,7.977,8.0227,7.9556,7.945,8.1723,8.324,8.4152,8.4635,8.4757,8.4475,8.4475,8.5087,8.5439,8.4613,8.6835,8.7305,8.5604,8.6159,8.7285,8.8145,8.9142,8.9756,9.0391,9.0493,9.0749,9.0489,9.1305,9.1769,9.1873,9.0771,8.9581,8.966,8.9512,8.9002,8.7946,8.811,8.7167,1.9534,1.98,2.0037,2.0334,2.0643,2.067,2.2586,2.5341,2.5859,2.7734,3.0245,3.0806,3.0913,3.0913,3.0932,3.0913,3.0957,3.1333,3.1818,3.2538,3.4275,3.6269,3.8275,3.9858,4.1334,4.2499,4.2577,4.277,4.2885,4.3006,4.3302,4.3765,4.379,4.3815,4.3865,4.3815,4.379,4.389,4.3991,4.4407,4.5311,4.5462,4.6411,4.8198,4.985,5.1274,5.274,5.4288,5.5354,5.6025,5.6568,5.7244,5.7919,5.862,5.9638,6.0821,6.1613,6.2002,6.2135,6.2614,6.2944,6.2974,6.3048,6.3842,6.5458,6.6514,6.7921,6.9991,7.102,7.2793,7.5234,7.8354,8.0669,8.1312,8.2536,8.3536,8.4251,8.3656,8.3462,8.2472,8.1976,8.2085,8.2354,8.2834,8.4291,8.5586,8.6831,8.7328,8.6826,8.7767,8.8152,8.8048,8.8685,8.9221,8.7246,8.7998,8.9451,9.001,9.0324,9.1082,9.1169,9.1338,9.1696,9.2068,9.2271,9.2658,9.3199,9.2924,9.1878,9.1192,9.0032,8.9329,8.8512,8.7796,8.7085,1.9813,2.0092,2.0401,2.0603,2.0726,2.0884,2.171,2.3031,2.513,2.6621,2.8006,2.9962,3.0913,3.0918,3.1172,3.1274,3.1313,3.1753,3.2183,3.267,3.3605,3.4975,3.6608,3.7303,3.8364,3.9759,4.0238,4.0901,4.1847,4.2239,4.2913,4.3676,4.379,4.4127,4.4669,4.4478,4.4654,4.5357,4.5748,4.5959,4.601,4.6336,4.6763,4.7191,4.9466,5.0975,5.1495,5.4293,5.5953,5.6192,5.7556,5.8501,5.889,6.0609,6.1866,6.2375,6.2959,6.3139,6.2884,6.3333,6.3677,6.3722,6.4096,6.474,6.6012,6.7514,6.8834,6.9927,7.3485,7.5617,7.5639,7.7645,8.0051,8.2301,8.3517,8.4249,8.4291,8.3743,8.3152,8.3639,8.4158,8.4507,8.4511,8.513,8.5822,8.6466,8.738,8.7786,8.7922,8.8869,8.9647,8.9613,9.0174,9.0625,8.9936,9.0149,9.0884,9.0932,9.1169,9.1575,9.1778,9.1967,9.2305,9.2759,9.303,9.3165,9.359,9.3107,9.2367,9.0902,8.987,8.9658,8.8796,8.8237,8.7739,2.0092,2.0386,2.071,2.0831,2.0828,2.1,2.1411,2.2168,2.4809,2.6288,2.7224,2.9693,3.0957,3.1113,3.1391,3.1684,3.1934,3.2261,3.2554,3.2812,3.3207,3.4258,3.5576,3.5791,3.6639,3.8059,3.8514,3.9257,4.0218,4.1162,4.2208,4.3249,4.3779,4.4518,4.5311,4.5271,4.5583,4.6286,4.6823,4.6898,4.6647,4.6898,4.6863,4.6867,4.9369,5.103,5.11,5.4539,5.6718,5.7257,5.8634,5.9608,6.0206,6.2151,6.3303,6.3183,6.3647,6.3827,6.3542,6.3947,6.4411,6.4665,6.5248,6.5877,6.6417,6.8322,6.945,7.0797,7.4029,7.6733,7.6774,7.7836,8.0055,8.2593,8.3523,8.4076,8.4473,8.3674,8.3781,8.4716,8.5324,8.5784,8.621,8.6792,8.715,8.7279,8.7888,8.8361,8.8801,8.9478,9.0324,9.056,9.1155,9.1561,9.1426,9.173,9.1812,9.1812,9.2029,9.2319,9.2421,9.2609,9.2861,9.3383,9.3654,9.3721,9.3548,9.3092,9.196,9.0472,9.0099,9.0098,8.9394,8.8744,8.815,2.0399,2.071,2.0989,2.1082,2.1053,2.108,2.2025,2.3372,2.5069,2.6515,2.7886,2.9991,3.0903,3.1411,3.1548,3.1973,3.2598,3.2754,3.2812,3.291,3.3226,3.4164,3.5514,3.5514,3.6276,3.7722,3.8029,3.8111,3.8425,3.9891,4.1256,4.2445,4.3878,4.4855,4.5537,4.5984,4.6286,4.6587,4.7048,4.7199,4.7083,4.7124,4.6873,4.6768,4.9657,5.1526,5.1792,5.5239,5.7736,5.886,5.9771,6.0759,6.2121,6.3438,6.3797,6.3452,6.3752,6.3991,6.4036,6.453,6.5174,6.5772,6.655,6.6954,6.7258,6.9028,7.0479,7.1207,7.3926,7.621,7.7514,7.9142,8.0939,8.2104,8.2581,8.3332,8.4224,8.46,8.4871,8.5554,8.5905,8.6176,8.6839,8.755,8.7989,8.8125,8.8646,8.9275,8.9802,9.0242,9.0614,9.1237,9.1913,9.2421,9.2677,9.2948,9.2778,9.2677,9.3011,9.3281,9.318,9.3281,9.3248,9.3601,9.3601,9.3687,9.3787,9.3317,9.2818,9.1688,9.1272,9.0471,8.9772,8.9079,8.8388,2.0724,2.0975,2.1069,2.1093,2.1093,2.1093,2.1443,2.2059,2.3636,2.5253,2.6847,2.8471,3.0026,3.1359,3.1816,3.2281,3.2808,3.307,3.3207,3.3226,3.3344,3.365,3.4086,3.418,3.4575,3.5258,3.5361,3.6133,3.7531,3.9133,4.0706,4.2204,4.3777,4.5062,4.6039,4.6587,4.7164,4.7973,4.8174,4.8083,4.7666,4.7274,4.7023,4.7101,4.8944,5.0866,5.2955,5.6522,5.857,5.9189,6.1058,6.2944,6.4455,6.5144,6.5039,6.45,6.456,6.4441,6.4156,6.462,6.5323,6.6056,6.7029,6.7613,6.7978,7.0083,7.1107,7.1091,7.4303,7.6966,7.6503,7.7479,7.9633,8.1935,8.3166,8.3811,8.4581,8.5114,8.5486,8.5838,8.6684,8.7347,8.7685,8.8294,8.8748,8.8801,8.9376,9.0019,9.0275,9.1087,9.1682,9.2087,9.2711,9.3131,9.3233,9.3267,9.3199,9.3098,9.3383,9.3601,9.3601,9.3601,9.3601,9.3654,9.362,9.3793,9.3858,9.3616,9.3168,9.2432,9.1563,9.0779,9.0033,8.9359,8.8734,2.0857,2.108,2.1093,2.1093,2.1093,2.1093,2.1093,2.1459,2.3528,2.5165,2.6502,2.8628,3.0437,3.1802,3.23,3.2633,3.3027,3.3304,3.3386,3.3386,3.3386,3.3386,3.3386,3.3386,3.3519,3.3828,3.4,3.4727,3.6011,3.7841,3.9668,4.1489,4.3161,4.4769,4.6185,4.6823,4.75,4.8109,4.8325,4.8184,4.7691,4.7475,4.7299,4.748,4.9546,5.1767,5.4,5.7935,6.0192,6.0655,6.2764,6.4725,6.5922,6.6161,6.5966,6.5233,6.5174,6.5069,6.453,6.5039,6.5787,6.67,6.7747,6.8361,6.8758,7.0614,7.114,7.1173,7.416,7.6274,7.5373,7.7685,7.9722,8.1018,8.2059,8.3485,8.4561,8.5486,8.6108,8.6616,8.7428,8.8037,8.8477,8.9004,8.9458,8.9613,9.0154,9.0797,9.1053,9.1798,9.2305,9.2745,9.3165,9.3451,9.3552,9.3552,9.3586,9.3518,9.3552,9.3601,9.3601,9.3601,9.3601,9.3755,9.3823,9.4499,9.4632,9.4183,9.3663,9.2788,9.2184,9.153,9.0929,8.9927,8.9222,2.0884,2.108,2.1093,2.1093,2.1093,2.1093,2.1093,2.1601,2.4332,2.5971,2.7111,2.9601,3.17,3.2571,3.2715,3.2949,3.3344,3.3367,3.3386,3.3386,3.3386,3.3386,3.3386,3.3386,3.3464,3.3597,3.3922,3.4221,3.478,3.6584,3.8294,4.0709,4.2426,4.4111,4.5984,4.6838,4.7133,4.7299,4.7641,4.7616,4.7274,4.7541,4.7691,4.7407,5.0634,5.3196,5.5124,5.9495,6.2271,6.263,6.4605,6.5832,6.6146,6.6685,6.6355,6.5174,6.5607,6.5518,6.5278,6.5518,6.646,6.7688,6.8421,6.9064,6.9382,7.0303,7.1164,7.1256,7.3598,7.4852,7.5071,7.7795,8.0193,8.0076,8.0826,8.2527,8.5194,8.5838,8.6481,8.7516,8.8023,8.8308,8.8917,8.9579,8.9884,9.0256,9.0729,9.1372,9.2,9.244,9.2827,9.3214,9.3518,9.3552,9.3601,9.3601,9.3601,9.3601,9.3586,9.362,9.362,9.362,9.3601,9.3755,9.4263,9.4939,9.5097,9.4556,9.4502,9.4325,9.3611,9.2693,9.168,9.0659,8.9648,2.1042,2.1093,2.1093,2.1093,2.1093,2.1093,2.1093,2.1405,2.3671,2.5578,2.6937,2.9113,3.1312,3.2692,3.2812,3.3027,3.3324,3.3386,3.3386,3.3386,3.3386,3.3386,3.3386,3.3422,3.3578,3.3883,3.4079,3.4446,3.5149,3.6722,3.8771,4.1005,4.2552,4.4359,4.6119,4.6798,4.7058,4.7124,4.7199,4.7475,4.7616,4.7425,4.7707,4.8485,4.9604,5.2222,5.5834,6.1245,6.4486,6.4949,6.5518,6.6236,6.6655,6.6894,6.643,6.5443,6.5607,6.5727,6.5293,6.5667,6.664,6.7868,6.875,6.9423,7.0334,7.0679,7.1398,7.2135,7.3258,7.3716,7.4128,7.5852,7.7597,7.9818,8.1592,8.3652,8.5418,8.6332,8.7008,8.7854,8.8477,8.8863,8.9052,8.9424,8.9748,9.0256,9.0966,9.1677,9.2406,9.2928,9.3315,9.3383,9.3586,9.3586,9.3601,9.3601,9.3601,9.3601,9.362,9.3654,9.3654,9.3654,9.362,9.3654,9.4601,9.5364,9.5119,9.4684,9.5038,9.5561,9.4212,9.2942,9.2187,9.1282,9.0171,2.1093,2.1093,2.1093,2.1176,2.1299,2.1312,2.1363,2.1997,2.4299,2.5993,2.7482,2.9868,3.1751,3.3,3.3066,3.3184,3.3367,3.3386,3.3386,3.3386,3.3386,3.3386,3.3425,3.3558,3.3828,3.4134,3.4469,3.4919,3.5465,3.6592,3.8542,4.0841,4.2154,4.3894,4.6195,4.6547,4.6747,4.6798,4.6948,4.7274,4.749,4.7741,4.8134,4.9008,4.9863,5.2947,5.8221,6.2283,6.4761,6.5725,6.6236,6.661,6.6909,6.6999,6.649,6.5547,6.6041,6.6131,6.5757,6.6281,6.7298,6.8361,6.9213,7.0081,7.0753,7.1128,7.1846,7.2684,7.2894,7.3373,7.4273,7.5261,7.7403,8.0346,8.2501,8.4335,8.5986,8.6636,8.738,8.8192,8.8815,8.9134,8.9168,8.9593,9.0135,9.0763,9.1759,9.2353,9.2928,9.3349,9.3601,9.3601,9.3601,9.3601,9.3601,9.3601,9.3601,9.3601,9.3958,9.3924,9.3778,9.3812,9.406,9.4296,9.506,9.5589,9.5491,9.5516,9.5918,9.5732,9.4369,9.3483,9.2857,9.1866,9.0801,2.1133,2.1147,2.1162,2.1355,2.1625,2.1636,2.1743,2.2596,2.5559,2.7241,2.8307,3.1305,3.2824,3.3386,3.3324,3.3367,3.3386,3.3386,3.3386,3.3386,3.3386,3.3441,3.3594,3.3864,3.4079,3.431,3.5036,3.5349,3.5617,3.5958,3.7947,4.0456,4.1309,4.3154,4.5641,4.6336,4.6336,4.6562,4.6898,4.7274,4.7641,4.8225,4.8752,4.9485,5.2329,5.5448,5.9675,6.2745,6.4486,6.5966,6.664,6.6909,6.6999,6.7029,6.67,6.6311,6.658,6.6819,6.643,6.7194,6.8271,6.9079,7.0171,7.0932,7.1128,7.1547,7.2146,7.3073,7.2984,7.3522,7.4718,7.6252,7.8329,8.0734,8.1839,8.3409,8.5947,8.6893,8.7482,8.8815,8.9086,8.91,8.9526,9.0236,9.1217,9.1372,9.2218,9.2692,9.3098,9.3451,9.3601,9.3601,9.3601,9.3601,9.3601,9.3601,9.3601,9.3654,9.4214,9.4368,9.411,9.4177,9.4624,9.5003,9.5152,9.5731,9.6453,9.6638,9.6519,9.6254,9.5062,9.4469,9.3888,9.2591,9.1403,2.1489,2.1489,2.1489,2.1662,2.1887,2.1914,2.197,2.2399,2.5954,2.7553,2.8539,3.1635,3.3194,3.3386,3.3386,3.3386,3.3386,3.3386,3.3386,3.3386,3.3386,3.3617,3.3883,3.4079,3.4274,3.4645,3.5117,3.5547,3.584,3.6307,3.7755,4.0731,4.1565,4.2934,4.5808,4.6361,4.6537,4.6888,4.7074,4.7616,4.8234,4.8642,4.9229,5.0267,5.4251,5.7122,5.9317,6.3089,6.5512,6.607,6.658,6.7,6.7179,6.7585,6.73,6.6685,6.7104,6.7433,6.7104,6.7583,6.8526,6.9648,7.047,7.1112,7.1637,7.1803,7.2475,7.3253,7.3253,7.3582,7.48,7.6351,7.8044,7.971,8.0393,8.2031,8.5717,8.6838,8.7411,8.8632,8.9134,8.9323,8.9816,9.0121,9.1,9.1865,9.2508,9.2928,9.3281,9.3552,9.3601,9.3601,9.3601,9.3586,9.3571,9.3527,9.3468,9.366,9.4238,9.4699,9.4422,9.4823,9.5344,9.52,9.4845,9.5659,9.6689,9.5902,9.5442,9.5574,9.5706,9.4895,9.3944,9.2918,9.1784,2.1796,2.1783,2.1783,2.194,2.2164,2.2208,2.2758,2.385,2.5671,2.7654,2.9279,3.1471,3.2603,3.3355,3.3386,3.3386,3.3386,3.3386,3.3386,3.3386,3.3406,3.3656,3.4079,3.4333,3.4606,3.5019,3.5469,3.5803,3.6093,3.6958,3.863,4.1101,4.1915,4.3746,4.5998,4.6537,4.6813,4.7189,4.7666,4.8209,4.8702,4.9079,4.9707,5.1165,5.466,5.7231,5.8864,6.2433,6.4844,6.5904,6.6626,6.7151,6.7359,6.7615,6.736,6.7269,6.7134,6.7628,6.7568,6.8122,6.893,6.9947,7.0799,7.1218,7.1667,7.1936,7.2624,7.3223,7.3462,7.3838,7.4787,7.5472,7.6962,7.8186,7.8628,8.07,8.4473,8.5771,8.6693,8.836,8.9134,8.9492,8.9918,9.0391,9.1121,9.2203,9.2895,9.3349,9.3349,9.3601,9.3601,9.3601,9.3601,9.3586,9.3542,9.3468,9.332,9.3605,9.4158,9.4538,9.4599,9.5329,9.6195,9.5764,9.5256,9.5783,9.6456,9.5458,9.4826,9.5209,9.5242,9.4671,9.3961,9.3029,9.18,2.2074,2.2058,2.2074,2.2218,2.2458,2.2485,2.3369,2.4834,2.572,2.7702,3.0157,3.0803,3.2397,3.3146,3.3386,3.3386,3.3386,3.3386,3.3386,3.3386,3.3539,3.3848,3.4254,3.4645,3.5039,3.5488,3.5801,3.5979,3.6454,3.7759,3.9272,4.1197,4.2848,4.4532,4.6117,4.6838,4.7224,4.7591,4.8234,4.8752,4.9028,4.9464,5.0293,5.173,5.461,5.7082,5.911,6.1932,6.4298,6.586,6.6658,6.7304,6.7675,6.7691,6.733,6.7869,6.7553,6.7792,6.8211,6.878,6.9498,7.0217,7.1354,7.1653,7.1577,7.2249,7.2894,7.3223,7.3552,7.4257,7.4826,7.5061,7.5832,7.6943,7.7286,7.9432,8.301,8.4361,8.5718,8.8385,8.9168,8.9492,9.0222,9.0865,9.1662,9.244,9.3146,9.3601,9.3601,9.3601,9.3601,9.3601,9.3601,9.3453,9.3394,9.3171,9.3051,9.3432,9.397,9.4386,9.4748,9.5488,9.6121,9.6107,9.6002,9.6156,9.5851,9.5027,9.4708,9.5076,9.4807,9.4246,9.3679,9.3104,9.1878,2.2352,2.2352,2.2321,2.2512,2.2783,2.2796,2.3048,2.3822,2.6339,2.7982,2.9017,3.1579,3.2734,3.3371,3.3386,3.3386,3.3386,3.3386,3.3422,3.3519,3.375,3.4157,3.4609,3.5,3.5449,3.5803,3.5999,3.5999,3.6403,3.7775,3.9502,4.1197,4.2879,4.4744,4.637,4.7124,4.7616,4.8209,4.8702,4.9028,4.9414,5.0017,5.077,5.2186,5.5338,5.7635,5.93,6.2058,6.4547,6.5892,6.6628,6.7288,6.7827,6.8239,6.8013,6.7645,6.8016,6.8421,6.8764,6.9393,7.0366,7.1414,7.2116,7.2265,7.2162,7.2804,7.3253,7.3462,7.4001,7.4766,7.4856,7.4886,7.5644,7.6575,7.7071,7.8338,8.2433,8.398,8.4842,8.8022,8.8843,8.9593,9.0493,9.1338,9.2049,9.2692,9.3281,9.3601,9.3601,9.3601,9.3601,9.3601,9.3601,9.3409,9.3216,9.2916,9.2738,9.3129,9.3678,9.4278,9.4739,9.5464,9.5865,9.5718,9.5392,9.5128,9.4726,9.4387,9.4369,9.452,9.4162,9.3783,9.3261,9.2684,9.1978,2.2645,2.2662,2.2662,2.2743,2.288,2.2893,2.3444,2.4249,2.5179,2.7055,2.9115,3.0498,3.1803,3.2956,3.3386,3.3386,3.3386,3.3386,3.3519,3.3769,3.402,3.4469,3.498,3.5329,3.5625,3.5901,3.5999,3.6018,3.6186,3.7772,3.9502,4.1197,4.2879,4.4865,4.668,4.74,4.7958,4.8693,4.9053,4.9314,4.969,5.0393,5.1322,5.289,5.569,5.7941,5.9056,6.2103,6.4352,6.5443,6.6448,6.7064,6.7499,6.7725,6.7863,6.766,6.8151,6.869,6.9034,6.9632,7.0516,7.1623,7.1996,7.1936,7.2132,7.2731,7.3522,7.4001,7.424,7.4886,7.4886,7.4886,7.5286,7.5799,7.5983,7.7918,8.0775,8.2333,8.4816,8.7568,8.8966,8.9993,9.0947,9.1744,9.2421,9.3011,9.3484,9.3601,9.3601,9.3601,9.3586,9.3483,9.3438,9.3122,9.295,9.2699,9.2558,9.2897,9.3473,9.4067,9.4526,9.5127,9.5211,9.5093,9.469,9.4353,9.4386,9.4366,9.4162,9.394,9.3661,9.3314,9.279,9.2201,9.159,2.2893,2.2893,2.2893,2.2893,2.2893,2.2893,2.3648,2.4571,2.4009,2.6122,2.9701,2.9523,3.0692,3.2749,3.3386,3.3386,3.3386,3.3386,3.3636,3.4004,3.4215,3.4665,3.5212,3.5544,3.5723,3.5959,3.6018,3.6018,3.6321,3.7775,3.948,4.1258,4.2949,4.5026,4.6926,4.7842,4.8375,4.8903,4.9314,4.9615,5.0117,5.0896,5.1699,5.254,5.5976,5.806,5.8713,6.1768,6.4129,6.5233,6.6117,6.6809,6.6941,6.6988,6.7318,6.7869,6.8092,6.8571,6.9169,6.9842,7.0845,7.2072,7.1637,7.1787,7.2282,7.3073,7.3642,7.4616,7.4886,7.4886,7.4886,7.4886,7.501,7.5361,7.5949,7.7106,7.9718,8.1933,8.4238,8.6687,8.8849,9.0331,9.1228,9.1913,9.2556,9.3112,9.3601,9.3601,9.3601,9.3601,9.3556,9.3379,9.3201,9.2852,9.2651,9.2548,9.2485,9.2647,9.3351,9.4069,9.4321,9.4616,9.4577,9.4536,9.4332,9.4077,9.421,9.4125,9.3765,9.3471,9.3209,9.2875,9.2485,9.1957,9.1366,2.2893,2.2893,2.2893,2.2893,2.2893,2.2893,2.2979,2.3376,2.4452,2.6371,2.8804,2.9816,3.1176,3.2845,3.3244,3.3307,3.3386,3.348,3.373,3.4157,3.4508,3.4938,3.541,3.5784,3.5879,3.6018,3.6018,3.6018,3.6321,3.7658,3.949,4.1271,4.3242,4.5615,4.7661,4.8284,4.8953,4.9405,4.9565,5.0092,5.0987,5.1649,5.2184,5.3504,5.5961,5.8202,5.8982,6.1691,6.3993,6.5533,6.5817,6.6282,6.6835,6.6984,6.736,6.7958,6.8541,6.9183,6.9768,7.044,7.1308,7.2355,7.2535,7.3013,7.3313,7.3552,7.4018,7.4736,7.4886,7.4886,7.4886,7.4886,7.5215,7.5677,7.622,7.7672,7.9743,8.1397,8.3755,8.6221,8.8483,9.0172,9.1397,9.202,9.2643,9.3199,9.3601,9.3601,9.3556,9.3527,9.3379,9.3171,9.292,9.2602,9.2533,9.2407,9.267,9.2698,9.3234,9.3976,9.4187,9.4311,9.4085,9.4024,9.3817,9.3592,9.3453,9.3346,9.3188,9.2963,9.2734,9.2485,9.2186,9.1669,9.1111,2.2893,2.2893,2.2893,2.2893,2.2893,2.2893,2.2893,2.3047,2.37,2.5618,2.7701,2.7751,2.9278,3.1563,3.1931,3.2492,3.3255,3.3672,3.4023,3.445,3.4863,3.5296,3.5686,3.5901,3.5999,3.6018,3.6018,3.6018,3.6338,3.6947,3.8487,4.1493,4.2786,4.4992,4.7967,4.8636,4.9079,4.9531,4.9941,5.0645,5.1498,5.2,5.2377,5.3017,5.6233,5.7868,5.9158,6.1839,6.4009,6.5338,6.5607,6.6237,6.691,6.7373,6.7898,6.8541,6.9199,6.9678,7.0037,7.0919,7.1876,7.2578,7.2967,7.3146,7.3685,7.3941,7.4227,7.4843,7.4886,7.4886,7.4886,7.4886,7.5288,7.5826,7.6497,7.7465,7.9124,8.113,8.3148,8.5675,8.8072,8.9713,9.1366,9.2464,9.2967,9.3315,9.3601,9.3601,9.3497,9.3364,9.3122,9.2837,9.2602,9.2366,9.2425,9.246,9.3095,9.3201,9.3138,9.3741,9.4029,9.405,9.3802,9.3505,9.3279,9.3033,9.2751,9.2751,9.2787,9.2539,9.2254,9.1967,9.1665,9.1361,9.0643,2.2947,2.2997,2.2934,2.2893,2.2893,2.2893,2.2893,2.2893,2.2928,2.4672,2.6673,2.6806,2.8114,3.0238,3.1029,3.1867,3.3394,3.3883,3.4313,3.4726,3.5176,3.5586,3.5859,3.6018,3.6018,3.6018,3.6018,3.6018,3.6038,3.6612,3.8364,4.1839,4.2339,4.4779,4.7709,4.9003,4.9355,4.9866,5.0553,5.1281,5.195,5.2234,5.2536,5.3783,5.59,5.8103,5.8819,6.1884,6.4217,6.5278,6.5742,6.6296,6.6954,6.7583,6.8227,6.887,6.9528,7.0157,7.0636,7.1414,7.2265,7.2894,7.3373,7.3791,7.4078,7.4168,7.4287,7.4873,7.4886,7.4886,7.4886,7.4886,7.5407,7.5958,7.6587,7.7245,7.8181,8.0315,8.2237,8.4254,8.6722,8.9379,9.1003,9.2639,9.3392,9.3537,9.3601,9.362,9.3588,9.3477,9.341,9.3256,9.3154,9.2882,9.2741,9.2917,9.3465,9.3647,9.3543,9.3514,9.3764,9.3634,9.3366,9.3051,9.2751,9.2361,9.2003,9.2236,9.2382,9.1985,9.1606,9.1388,9.1132,9.08,9.0043,2.305,2.3273,2.301,2.292,2.289,2.2893,2.2893,2.2893,2.2893,2.3924,2.5752,2.7238,2.8821,3.0319,3.0886,3.1755,3.3425,3.3903,3.4372,3.4785,3.5176,3.5644,3.5901,3.6018,3.6018,3.6018,3.6018,3.6018,3.6116,3.6443,3.8735,4.1572,4.2479,4.5239,4.7795,4.9355,4.9816,5.0444,5.123,5.1808,5.2234,5.2511,5.282,5.3581,5.6009,5.8333,5.905,6.2249,6.459,6.5727,6.6026,6.646,6.7164,6.7792,6.8481,6.9139,6.9798,7.0576,7.1444,7.1893,7.2535,7.3552,7.4257,7.4467,7.4437,7.4706,7.4886,7.4856,7.4886,7.4886,7.4886,7.5006,7.5587,7.6258,7.6916,7.7544,7.8474,7.9764,8.1602,8.3096,8.5462,8.8345,9.0829,9.2465,9.3396,9.3586,9.3909,9.3943,9.4054,9.4009,9.4058,9.3987,9.3964,9.3739,9.3411,9.3532,9.3696,9.3725,9.3729,9.353,9.3475,9.3241,9.2857,9.2485,9.2097,9.1696,9.137,9.1588,9.1606,9.1242,9.0967,9.0857,9.0393,8.991,8.8998,2.3505,2.3585,2.3273,2.3153,2.3126,2.2957,2.2893,2.2893,2.2893,2.3205,2.4162,2.6823,2.8542,2.936,3.0579,3.192,3.3688,3.4293,3.4687,3.5137,3.5566,3.5842,3.5999,3.6018,3.6018,3.6018,3.6018,3.6194,3.6482,3.6697,3.9356,4.1713,4.3001,4.5759,4.8134,4.9816,5.0393,5.0971,5.1699,5.2209,5.2611,5.2719,5.2895,5.3162,5.619,5.8165,5.9424,6.2719,6.4664,6.5847,6.637,6.6909,6.7523,6.8181,6.8824,6.9528,7.0187,7.1158,7.2176,7.2551,7.2954,7.3702,7.4437,7.4783,7.4497,7.4646,7.4856,7.4886,7.4886,7.4886,7.4916,7.5275,7.5916,7.6617,7.7275,7.7891,7.8649,7.9736,8.1008,8.254,8.5036,8.7808,9.0127,9.2343,9.307,9.362,9.3977,9.4241,9.4317,9.4519,9.4566,9.4363,9.4235,9.4231,9.391,9.3844,9.3806,9.3811,9.3777,9.3461,9.3153,9.2681,9.2293,9.1899,9.1538,9.1206,9.0986,9.0967,9.0857,9.0673,9.0562,9.0469,8.9867,8.9134,8.8242,2.3839,2.3848,2.347,2.3292,2.3269,2.3027,2.2893,2.2893,2.2893,2.3256,2.3822,2.6389,2.8131,2.9083,3.0332,3.212,3.3785,3.4626,3.5056,3.543,3.5725,3.5979,3.6018,3.6018,3.6018,3.6018,3.6211,3.6443,3.6656,3.6912,3.9561,4.2194,4.3821,4.6089,4.8795,5.0318,5.0946,5.1523,5.2076,5.246,5.287,5.2895,5.341,5.3963,5.6817,5.8991,6.0715,6.3473,6.5397,6.6251,6.6759,6.7284,6.7942,6.863,6.9303,6.9991,7.0799,7.1727,7.2565,7.3163,7.3492,7.4257,7.4317,7.4407,7.439,7.4616,7.4856,7.4886,7.4886,7.4886,7.4963,7.5455,7.6066,7.6706,7.7365,7.7963,7.843,7.9309,8.0613,8.2034,8.4661,8.7097,8.8097,9.0223,9.2219,9.3223,9.462,9.4639,9.4368,9.469,9.5077,9.4733,9.4317,9.4321,9.432,9.4033,9.374,9.3495,9.3423,9.3092,9.2716,9.2275,9.1845,9.1497,9.1151,9.0765,9.0544,9.0414,9.0321,9.0228,9.0079,8.9929,8.9469,8.8742,8.8007,2.3973,2.4115,2.3576,2.3319,2.3309,2.301,2.2893,2.2893,2.2911,2.3665,2.4861,2.5802,2.7685,3.0019,3.1086,3.273,3.4099,3.4997,3.5391,3.5547,3.5823,3.5979,3.6018,3.6018,3.6074,3.6152,3.6367,3.6619,3.6868,3.7804,4.0268,4.2887,4.4686,4.6469,4.9505,5.0736,5.1523,5.2076,5.2561,5.2812,5.287,5.2895,5.3598,5.4796,5.7315,5.9591,6.1415,6.4157,6.595,6.6715,6.6879,6.7358,6.8122,6.8675,6.9333,7.0081,7.1204,7.2086,7.2817,7.3492,7.3941,7.4317,7.4151,7.418,7.4646,7.4856,7.4886,7.4886,7.4886,7.4886,7.5125,7.5557,7.6228,7.6796,7.7454,7.81,7.8579,7.8981,8.0248,8.176,8.4133,8.6241,8.6637,8.7815,9.0529,9.2533,9.4631,9.5089,9.451,9.4958,9.5489,9.4994,9.4453,9.4253,9.4178,9.3949,9.3649,9.3366,9.3033,9.2716,9.245,9.2146,9.1678,9.1169,9.082,9.0562,9.0172,8.9816,8.9798,8.9791,8.9546,8.9314,8.8862,8.835,8.7592,2.4377,2.4431,2.4057,2.3794,2.3585,2.309,2.2893,2.2893,2.2928,2.3256,2.4232,2.602,2.7864,2.9821,3.2171,3.3789,3.4793,3.5114,3.5469,3.5803,3.5942,3.5979,3.6018,3.6038,3.6172,3.6443,3.6697,3.7066,3.7557,3.881,4.107,4.3647,4.659,4.8812,5.0139,5.1172,5.1975,5.2159,5.2586,5.2895,5.2895,5.2947,5.3316,5.4157,5.7396,5.9778,6.1494,6.4527,6.6294,6.6984,6.7059,6.7508,6.8361,6.8974,6.9482,7.038,7.1487,7.2176,7.2714,7.3163,7.3283,7.3582,7.3821,7.3941,7.4257,7.4706,7.4826,7.4886,7.4886,7.4886,7.5006,7.5958,7.6647,7.6976,7.7574,7.831,7.8813,7.9124,7.9994,8.1667,8.3777,8.6907,8.8319,8.7642,8.9479,9.1227,9.313,9.4283,9.4082,9.5184,9.5979,9.5161,9.4578,9.432,9.4041,9.3592,9.3261,9.2963,9.2663,9.2361,9.211,9.1895,9.1406,9.082,9.0599,9.0358,8.9873,8.9508,8.9433,8.9319,8.9151,8.8897,8.8547,8.7962,8.7192,2.4599,2.4559,2.4297,2.4053,2.3732,2.3251,2.3,2.292,2.2911,2.3201,2.4413,2.7082,2.8976,3.0477,3.2906,3.4723,3.541,3.5586,3.5664,3.5999,3.6018,3.6018,3.6018,3.6057,3.6269,3.6619,3.7036,3.7457,3.8965,4.0261,4.2583,4.5649,4.8856,5.0282,5.1197,5.1749,5.2184,5.241,5.2795,5.2895,5.2895,5.3101,5.3733,5.5578,5.7972,6.0298,6.2364,6.453,6.661,6.7074,6.7298,6.7657,6.8525,6.9123,6.9542,7.044,7.1427,7.2146,7.2744,7.2565,7.2744,7.3027,7.3373,7.3762,7.4121,7.4706,7.4826,7.4886,7.4886,7.4886,7.5095,7.6108,7.6796,7.7095,7.7783,7.8519,7.8879,7.916,7.9917,8.1626,8.3631,8.6894,8.9448,8.8824,8.8734,9.013,9.1564,9.2526,9.3539,9.4663,9.5573,9.4925,9.4231,9.3852,9.3436,9.3033,9.2751,9.2539,9.2272,9.2003,9.1805,9.1588,9.1041,9.0525,9.0284,8.9985,8.9527,8.9224,8.9262,8.9139,8.8885,8.8589,8.827,8.7548,8.6736,2.4599,2.4559,2.4311,2.4053,2.3759,2.3394,2.3113,2.289,2.2893,2.3771,2.5414,2.7539,2.9395,3.1416,3.4061,3.5318,3.5488,3.5803,3.592,3.5979,3.6018,3.6018,3.6038,3.6096,3.6426,3.6775,3.7322,3.8369,4.0476,4.2188,4.4483,4.7359,5.0121,5.1347,5.1925,5.2176,5.246,5.2711,5.282,5.2895,5.2895,5.3064,5.4449,5.6495,5.8909,6.1316,6.3531,6.5746,6.6937,6.7313,6.7268,6.7867,6.8465,6.8928,6.9423,7.0201,7.1368,7.2086,7.2565,7.2235,7.2475,7.2847,7.3057,7.3732,7.4407,7.4826,7.4856,7.4886,7.4886,7.4886,7.5065,7.5946,7.6796,7.7365,7.8053,7.8525,7.8819,7.9365,8.0164,8.1644,8.3586,8.6104,8.8278,8.8431,8.8142,8.9224,9.0406,9.1138,9.2187,9.3401,9.4101,9.4229,9.3609,9.3191,9.2822,9.2557,9.2343,9.2164,9.1949,9.1696,9.1529,9.1292,9.082,9.0395,9.0035,8.9659,8.9319,8.9205,8.9205,8.902,8.8774,8.8282,8.7931,8.706,8.6255,2.4599,2.4572,2.4297,2.4053,2.3732,2.322,2.2957,2.2924,2.2893,2.329,2.3867,2.7302,2.9396,3.0274,3.3728,3.5258,3.5764,3.594,3.5979,3.6018,3.6018,3.6018,3.6116,3.6328,3.6699,3.7129,3.7785,3.8975,4.1537,4.3664,4.6979,5.0121,5.118,5.2025,5.2435,5.2661,5.2762,5.2862,5.2895,5.2895,5.302,5.3213,5.4654,5.6072,5.9187,6.1396,6.292,6.5307,6.6455,6.7134,6.664,6.6969,6.8122,6.8764,6.9482,7.1174,7.1773,7.2013,7.2222,7.2445,7.2668,7.2937,7.3266,7.4018,7.4616,7.4886,7.4886,7.4886,7.4886,7.4886,7.5185,7.5946,7.6617,7.7185,7.7933,7.8627,7.8933,7.9442,8.032,8.1954,8.3869,8.5498,8.7549,8.7935,8.7813,8.8608,8.9381,9.0025,9.092,9.217,9.3045,9.3175,9.3104,9.2734,9.2468,9.2186,9.2003,9.1805,9.1583,9.1365,9.12,9.0912,9.063,9.0222,8.9753,8.9489,8.9262,8.9205,8.9205,8.8959,8.8713,8.8128,8.7487,8.6579,8.5669,2.4599,2.4559,2.4311,2.3968,2.3554,2.3108,2.2893,2.2893,2.2893,2.3276,2.4545,2.7659,2.9665,3.1265,3.4113,3.5764,3.5979,3.5999,3.6018,3.6018,3.6018,3.6155,3.6328,3.658,3.701,3.7459,3.8238,3.9473,4.2661,4.6415,4.9792,5.0972,5.185,5.236,5.2711,5.2845,5.2845,5.2895,5.2895,5.2895,5.3113,5.3509,5.4073,5.5564,5.9035,6.0651,6.2162,6.4844,6.6171,6.7089,6.6729,6.7059,6.8331,6.9273,7.044,7.1876,7.1983,7.2162,7.2355,7.2355,7.2624,7.2997,7.3552,7.4168,7.4616,7.4886,7.4886,7.4886,7.4886,7.4976,7.5455,7.5916,7.6395,7.6856,7.7771,7.8699,7.9148,7.9511,8.0804,8.2413,8.3969,8.5499,8.6506,8.6875,8.7293,8.7877,8.8525,8.9253,9.0131,9.1214,9.2112,9.2595,9.251,9.2343,9.2075,9.1787,9.157,9.1333,9.1078,9.0925,9.0765,9.0519,9.0147,8.9791,8.9414,8.9262,8.9205,8.9174,8.9125,8.8836,8.8287,8.7474,8.6722,8.597,8.5098,2.4599,2.4572,2.4284,2.3808,2.3287,2.2997,2.3013,2.3116,2.3328,2.4274,2.6301,2.8629,3.0787,3.2469,3.482,3.5869,3.6018,3.6018,3.6018,3.6018,3.6018,3.6174,3.6521,3.6792,3.7225,3.7693,3.8886,4.081,4.4589,4.8048,5.0514,5.1348,5.1933,5.2485,5.282,5.2895,5.2895,5.2895,5.292,5.2945,5.3163,5.3758,5.4839,5.6839,5.9224,6.1369,6.3397,6.5085,6.6428,6.7177,6.7493,6.7508,6.8944,7.0081,7.1398,7.2026,7.2072,7.2192,7.2325,7.2385,7.2535,7.2954,7.3582,7.4257,7.4736,7.4886,7.4886,7.4886,7.4886,7.4886,7.5245,7.5856,7.6347,7.6916,7.7682,7.843,7.8939,7.9741,8.1215,8.2747,8.4134,8.552,8.6005,8.64,8.6682,8.7151,8.7552,8.8301,8.9272,9.0239,9.1149,9.1856,9.189,9.1787,9.1461,9.1206,9.1059,9.087,9.0667,9.0501,9.0408,9.0072,8.9659,8.9433,8.9281,8.9243,8.9205,8.9051,8.8755,8.8355,8.7696,8.6729,8.5929,8.5232,8.4624,2.4599,2.4546,2.4088,2.3545,2.3023,2.2934,2.37,2.4873,2.5274,2.5799,2.6825,2.9767,3.191,3.3159,3.5054,3.6018,3.6018,3.6018,3.6018,3.6018,3.6018,3.6367,3.6823,3.7293,3.76,3.8331,3.9919,4.2679,4.6272,4.9333,5.1322,5.19,5.2385,5.2744,5.287,5.2895,5.2895,5.2895,5.2995,5.3213,5.3582,5.4102,5.5082,5.6429,5.8192,6.0413,6.2112,6.3045,6.5226,6.7063,6.6593,6.7597,6.9588,7.047,7.1278,7.1906,7.2102,7.2176,7.2295,7.2475,7.2714,7.3163,7.3821,7.4467,7.4856,7.4886,7.4886,7.4886,7.4886,7.4886,7.5095,7.5736,7.6377,7.6946,7.7562,7.816,7.8765,8.0194,8.1633,8.2918,8.43,8.5069,8.5537,8.5898,8.6166,8.6361,8.652,8.7086,8.8147,8.9151,9.0252,9.0946,9.1239,9.1132,9.0889,9.0704,9.0593,9.0488,9.0339,9.0172,9.0016,8.9716,8.9414,8.9319,8.9205,8.9205,8.9051,8.8651,8.8324,8.7868,8.7085,8.6064,8.5227,8.4512,8.3985,2.4599,2.4519,2.4008,2.3598,2.3465,2.4035,2.4906,2.5973,2.7878,2.8821,2.9039,3.1277,3.2994,3.3957,3.5544,3.6018,3.6018,3.6018,3.6018,3.6018,3.6269,3.6601,3.7162,3.81,3.9083,3.9964,4.2553,4.545,4.7983,4.9955,5.154,5.2126,5.2611,5.2895,5.2895,5.2895,5.2895,5.2895,5.3113,5.3557,5.4027,5.4479,5.4881,5.5913,5.7603,5.9774,6.1517,6.2685,6.5004,6.7383,6.7985,6.8675,7.029,7.1351,7.1936,7.2265,7.2385,7.2325,7.2445,7.2624,7.2924,7.3313,7.4138,7.4796,7.4856,7.4886,7.4886,7.4886,7.4886,7.4886,7.5065,7.5587,7.6228,7.6826,7.752,7.8154,7.9232,8.0628,8.1676,8.2589,8.3898,8.503,8.5418,8.5634,8.5916,8.6023,8.6094,8.6798,8.7684,8.8354,8.9363,9.0141,9.0498,9.0723,9.063,9.0389,9.0135,9.0079,9.0023,8.981,8.9584,8.9395,8.9205,8.9205,8.9205,8.9205,8.8959,8.8466,8.7805,8.7305,8.6413,8.5394,8.4594,8.3891,8.3522,2.4572,2.4484,2.4066,2.4008,2.4335,2.5597,2.6548,2.7546,3.0614,3.2345,3.2519,3.3036,3.4429,3.542,3.6018,3.6018,3.6018,3.6018,3.6018,3.623,3.6502,3.6894,3.8007,3.9371,4.0735,4.267,4.5102,4.6832,4.8664,5.052,5.1791,5.2226,5.2561,5.2895,5.2895,5.292,5.2937,5.3146,5.3464,5.4009,5.4403,5.4705,5.5107,5.6112,5.7494,5.9868,6.1775,6.3254,6.5128,6.7712,6.9512,7.0081,7.0859,7.186,7.2445,7.2774,7.2744,7.2774,7.2834,7.2834,7.2924,7.3223,7.4287,7.4826,7.4886,7.4886,7.4886,7.4886,7.4886,7.4946,7.5108,7.5347,7.5988,7.6826,7.7537,7.8172,7.9514,8.0827,8.1642,8.2415,8.3577,8.48,8.5256,8.5473,8.5562,8.5719,8.6199,8.7031,8.7721,8.8172,8.8905,8.9525,8.9929,9.011,9.0166,9.0054,8.9772,8.9666,8.9591,8.9376,8.9205,8.9205,8.9205,8.9205,8.9205,8.9144,8.8774,8.8282,8.7583,8.6707,8.5632,8.4689,8.4127,8.3473,8.3206,2.4484,2.4275,2.4155,2.4832,2.5991,2.6464,2.8341,3.1303,3.2514,3.3884,3.4916,3.562,3.6156,3.6018,3.6018,3.6018,3.6018,3.6018,3.6289,3.658,3.6697,3.7168,3.8306,4.0239,4.2745,4.5066,4.7136,4.85,4.9687,5.1162,5.2201,5.2686,5.2719,5.2895,5.2895,5.2945,5.3088,5.3364,5.3715,5.421,5.4963,5.529,5.5566,5.6103,5.6464,5.9219,6.1193,6.1459,6.479,6.8028,7.032,7.0679,7.1278,7.2069,7.2744,7.2924,7.2924,7.2924,7.2924,7.2924,7.2924,7.3043,7.4018,7.4856,7.4886,7.4886,7.4886,7.4886,7.4886,7.4886,7.5035,7.5095,7.5617,7.6856,7.7789,7.8316,7.9215,8.049,8.1589,8.2504,8.3507,8.4446,8.5129,8.5238,8.5256,8.5452,8.5871,8.6665,8.7401,8.7939,8.8513,8.9014,8.9496,8.9395,8.9433,8.9565,8.9414,8.9319,8.93,8.9243,8.9205,8.9205,8.9205,8.9205,8.9082,8.8928,8.8528,8.7936,8.6968,8.5995,8.4897,8.3954,8.3484,8.3184,8.2995]}]]